Wetterdaten: Mittwoch, 04.05.2016
Datum Zeit Temp. A. Feuchte A. Luftdruck Regen Wind Richtung Richtung Sonnenschein ET UV Solar Taupunkt Windchill Windben Empfang
04.05.2016 00:00 10,0 C 86 % 1018,1 hPa 0,0 l/m 16,7 km/h (3 Bft) W 265 0 min 0,000 mm 0,0 UV-I 0 W/m 7,8 C 4,5 C 25,7 km/h (4 Bft) 93,10 %
04.05.2016 00:02 10,0 C 86 % 1018,2 hPa 0,0 l/m 16,6 km/h (3 Bft) SW 235 0 min 0,000 mm 0,0 UV-I 0 W/m 7,8 C 4,5 C 25,7 km/h (4 Bft) 97,06 %
04.05.2016 00:03 10,0 C 86 % 1018,3 hPa 0,0 l/m 19,9 km/h (4 Bft) W-SW 248 0 min 0,000 mm 0,0 UV-I 0 W/m 7,8 C 3,3 C 27,4 km/h (4 Bft) 100,00 %
04.05.2016 00:04 10,0 C 86 % 1018,2 hPa 0,0 l/m 18,6 km/h (3 Bft) W 263 0 min 0,000 mm 0,0 UV-I 0 W/m 7,8 C 3,8 C 24,1 km/h (4 Bft) 95,83 %
04.05.2016 00:05 10,0 C 86 % 1018,2 hPa 0,0 l/m 16,9 km/h (3 Bft) SW 222 0 min 0,000 mm 0,0 UV-I 0 W/m 7,8 C 4,4 C 22,5 km/h (4 Bft) 100,00 %
04.05.2016 00:06 10,0 C 86 % 1018,2 hPa 0,0 l/m 17,4 km/h (3 Bft) W-SW 257 0 min 0,000 mm 0,0 UV-I 0 W/m 7,8 C 4,2 C 22,5 km/h (4 Bft) 96,30 %
04.05.2016 00:07 10,0 C 86 % 1018,2 hPa 0,0 l/m 13,6 km/h (3 Bft) W-SW 248 0 min 0,000 mm 0,0 UV-I 0 W/m 7,8 C 5,7 C 17,7 km/h (3 Bft) 100,00 %
04.05.2016 00:08 10,0 C 86 % 1018,3 hPa 0,0 l/m 14,3 km/h (3 Bft) W-SW 254 0 min 0,000 mm 0,0 UV-I 0 W/m 7,8 C 5,4 C 19,3 km/h (3 Bft) 100,00 %
04.05.2016 00:09 10,0 C 86 % 1018,2 hPa 0,0 l/m 15,4 km/h (3 Bft) W-SW 258 0 min 0,000 mm 0,0 UV-I 0 W/m 7,8 C 5,0 C 17,7 km/h (3 Bft) 100,00 %
04.05.2016 00:10 10,0 C 87 % 1018,2 hPa 0,0 l/m 14,3 km/h (3 Bft) W-SW 245 0 min 0,000 mm 0,0 UV-I 0 W/m 7,9 C 5,4 C 19,3 km/h (3 Bft) 100,00 %
04.05.2016 00:11 10,0 C 87 % 1018,2 hPa 0,0 l/m 14,8 km/h (3 Bft) SW 216 0 min 0,000 mm 0,0 UV-I 0 W/m 7,9 C 5,2 C 20,9 km/h (4 Bft) 100,00 %
04.05.2016 00:12 10,0 C 86 % 1018,3 hPa 0,0 l/m 13,3 km/h (3 Bft) W-SW 245 0 min 0,000 mm 0,0 UV-I 0 W/m 7,8 C 5,9 C 20,9 km/h (4 Bft) 100,00 %
04.05.2016 00:13 9,9 C 86 % 1018,3 hPa 0,0 l/m 14,3 km/h (3 Bft) W 272 0 min 0,000 mm 0,0 UV-I 0 W/m 7,7 C 5,3 C 19,3 km/h (3 Bft) 95,65 %
04.05.2016 00:14 9,9 C 86 % 1018,2 hPa 0,0 l/m 17,5 km/h (3 Bft) W-SW 250 0 min 0,000 mm 0,0 UV-I 0 W/m 7,7 C 4,0 C 22,5 km/h (4 Bft) 100,00 %
04.05.2016 00:15 9,9 C 86 % 1018,2 hPa 0,0 l/m 13,4 km/h (3 Bft) W-SW 246 0 min 0,000 mm 0,0 UV-I 0 W/m 7,7 C 5,7 C 19,3 km/h (3 Bft) 100,00 %
04.05.2016 00:16 9,9 C 86 % 1018,2 hPa 0,0 l/m 19,4 km/h (3 Bft) W-SW 245 0 min 0,000 mm 0,0 UV-I 0 W/m 7,7 C 3,4 C 25,7 km/h (4 Bft) 100,00 %
04.05.2016 00:17 9,9 C 86 % 1018,2 hPa 0,0 l/m 17,1 km/h (3 Bft) W 261 0 min 0,000 mm 0,0 UV-I 0 W/m 7,7 C 4,2 C 22,5 km/h (4 Bft) 100,00 %
04.05.2016 00:18 9,9 C 86 % 1018,3 hPa 0,0 l/m 16,6 km/h (3 Bft) SW 225 0 min 0,000 mm 0,0 UV-I 0 W/m 7,7 C 4,4 C 22,5 km/h (4 Bft) 100,00 %
04.05.2016 00:19 9,9 C 86 % 1018,2 hPa 0,0 l/m 20,1 km/h (4 Bft) W-SW 244 0 min 0,000 mm 0,0 UV-I 0 W/m 7,7 C 3,1 C 29,0 km/h (5 Bft) 96,15 %
04.05.2016 00:20 9,9 C 86 % 1018,3 hPa 0,0 l/m 14,0 km/h (3 Bft) W 279 0 min 0,000 mm 0,0 UV-I 0 W/m 7,7 C 5,4 C 17,7 km/h (3 Bft) 100,00 %
04.05.2016 00:21 9,9 C 86 % 1018,3 hPa 0,0 l/m 14,3 km/h (3 Bft) W-SW 248 0 min 0,000 mm 0,0 UV-I 0 W/m 7,7 C 5,3 C 25,7 km/h (4 Bft) 100,00 %
04.05.2016 00:22 9,9 C 86 % 1018,3 hPa 0,0 l/m 17,1 km/h (3 Bft) W-SW 258 0 min 0,000 mm 0,0 UV-I 0 W/m 7,7 C 4,2 C 22,5 km/h (4 Bft) 100,00 %
04.05.2016 00:23 9,9 C 86 % 1018,3 hPa 0,0 l/m 16,6 km/h (3 Bft) W-SW 249 0 min 0,000 mm 0,0 UV-I 0 W/m 7,7 C 4,4 C 20,9 km/h (4 Bft) 100,00 %
04.05.2016 00:24 9,9 C 86 % 1018,3 hPa 0,0 l/m 18,1 km/h (3 Bft) W-SW 254 0 min 0,000 mm 0,0 UV-I 0 W/m 7,7 C 3,8 C 24,1 km/h (4 Bft) 100,00 %
04.05.2016 00:25 9,9 C 86 % 1018,3 hPa 0,0 l/m 17,7 km/h (3 Bft) W-SW 252 0 min 0,000 mm 0,0 UV-I 0 W/m 7,7 C 4,0 C 22,5 km/h (4 Bft) 100,00 %
04.05.2016 00:26 9,9 C 86 % 1018,3 hPa 0,0 l/m 20,8 km/h (4 Bft) W-SW 246 0 min 0,000 mm 0,0 UV-I 0 W/m 7,7 C 2,9 C 32,2 km/h (5 Bft) 100,00 %
04.05.2016 00:27 9,9 C 86 % 1018,3 hPa 0,0 l/m 14,8 km/h (3 Bft) W-SW 257 0 min 0,000 mm 0,0 UV-I 0 W/m 7,7 C 5,1 C 19,3 km/h (3 Bft) 100,00 %
04.05.2016 00:28 9,9 C 86 % 1018,3 hPa 0,0 l/m 15,8 km/h (3 Bft) W-SW 250 0 min 0,000 mm 0,0 UV-I 0 W/m 7,7 C 4,7 C 20,9 km/h (4 Bft) 100,00 %
04.05.2016 00:29 9,9 C 86 % 1018,4 hPa 0,0 l/m 14,6 km/h (3 Bft) W 259 0 min 0,000 mm 0,0 UV-I 0 W/m 7,7 C 5,2 C 19,3 km/h (3 Bft) 100,00 %
04.05.2016 00:30 9,9 C 86 % 1018,3 hPa 0,0 l/m 18,6 km/h (3 Bft) W 262 0 min 0,000 mm 0,0 UV-I 0 W/m 7,7 C 3,6 C 25,7 km/h (4 Bft) 100,00 %
04.05.2016 00:31 9,9 C 86 % 1018,3 hPa 0,0 l/m 14,8 km/h (3 Bft) W 278 0 min 0,000 mm 0,0 UV-I 0 W/m 7,7 C 5,1 C 22,5 km/h (4 Bft) 100,00 %
04.05.2016 00:32 9,9 C 86 % 1018,4 hPa 0,0 l/m 19,2 km/h (3 Bft) W 269 0 min 0,000 mm 0,0 UV-I 0 W/m 7,7 C 3,4 C 25,7 km/h (4 Bft) 100,00 %
04.05.2016 00:33 9,9 C 86 % 1018,4 hPa 0,0 l/m 15,6 km/h (3 Bft) W-SW 252 0 min 0,000 mm 0,0 UV-I 0 W/m 7,7 C 4,8 C 20,9 km/h (4 Bft) 100,00 %
04.05.2016 00:34 9,9 C 86 % 1018,4 hPa 0,0 l/m 11,4 km/h (2 Bft) W-SW 244 0 min 0,000 mm 0,0 UV-I 0 W/m 7,7 C 6,7 C 14,5 km/h (3 Bft) 100,00 %
04.05.2016 00:35 9,9 C 86 % 1018,4 hPa 0,0 l/m 16,7 km/h (3 Bft) W 268 0 min 0,000 mm 0,0 UV-I 0 W/m 7,7 C 4,3 C 27,4 km/h (4 Bft) 93,33 %
04.05.2016 00:36 9,9 C 86 % 1018,4 hPa 0,0 l/m 16,7 km/h (3 Bft) W-SW 257 0 min 0,000 mm 0,0 UV-I 0 W/m 7,7 C 4,3 C 24,1 km/h (4 Bft) 96,15 %
04.05.2016 00:37 9,9 C 86 % 1018,4 hPa 0,0 l/m 17,2 km/h (3 Bft) W-SW 238 0 min 0,000 mm 0,0 UV-I 0 W/m 7,7 C 4,1 C 24,1 km/h (4 Bft) 100,00 %
04.05.2016 00:38 9,9 C 86 % 1018,4 hPa 0,0 l/m 18,3 km/h (3 Bft) W-SW 246 0 min 0,000 mm 0,0 UV-I 0 W/m 7,7 C 3,7 C 24,1 km/h (4 Bft) 100,00 %
04.05.2016 00:39 9,9 C 86 % 1018,5 hPa 0,0 l/m 16,1 km/h (3 Bft) W 259 0 min 0,000 mm 0,0 UV-I 0 W/m 7,7 C 4,6 C 22,5 km/h (4 Bft) 100,00 %
04.05.2016 00:40 9,9 C 86 % 1018,4 hPa 0,0 l/m 15,0 km/h (3 Bft) W-SW 240 0 min 0,000 mm 0,0 UV-I 0 W/m 7,7 C 5,0 C 19,3 km/h (3 Bft) 100,00 %
04.05.2016 00:41 9,9 C 85 % 1018,4 hPa 0,0 l/m 17,7 km/h (3 Bft) W 274 0 min 0,000 mm 0,0 UV-I 0 W/m 7,5 C 4,0 C 25,7 km/h (4 Bft) 100,00 %
04.05.2016 00:42 9,9 C 85 % 1018,4 hPa 0,0 l/m 15,5 km/h (3 Bft) W 263 0 min 0,000 mm 0,0 UV-I 0 W/m 7,5 C 4,8 C 25,7 km/h (4 Bft) 100,00 %
04.05.2016 00:43 9,9 C 85 % 1018,5 hPa 0,0 l/m 14,1 km/h (3 Bft) W-SW 254 0 min 0,000 mm 0,0 UV-I 0 W/m 7,5 C 5,4 C 17,7 km/h (3 Bft) 100,00 %
04.05.2016 00:44 9,9 C 85 % 1018,4 hPa 0,0 l/m 16,3 km/h (3 Bft) W-SW 243 0 min 0,000 mm 0,0 UV-I 0 W/m 7,5 C 4,5 C 20,9 km/h (4 Bft) 96,30 %
04.05.2016 00:45 9,9 C 85 % 1018,4 hPa 0,0 l/m 18,1 km/h (3 Bft) SW 222 0 min 0,000 mm 0,0 UV-I 0 W/m 7,5 C 3,8 C 27,4 km/h (4 Bft) 96,15 %
04.05.2016 00:46 9,9 C 85 % 1018,4 hPa 0,0 l/m 16,5 km/h (3 Bft) W-SW 257 0 min 0,000 mm 0,0 UV-I 0 W/m 7,5 C 4,4 C 22,5 km/h (4 Bft) 93,33 %
04.05.2016 00:47 9,9 C 85 % 1018,5 hPa 0,0 l/m 13,8 km/h (3 Bft) W-SW 258 0 min 0,000 mm 0,0 UV-I 0 W/m 7,5 C 5,5 C 20,9 km/h (4 Bft) 96,55 %
04.05.2016 00:48 9,9 C 85 % 1018,5 hPa 0,0 l/m 11,7 km/h (2 Bft) W 263 0 min 0,000 mm 0,0 UV-I 0 W/m 7,5 C 6,6 C 16,1 km/h (3 Bft) 100,00 %
04.05.2016 00:49 9,9 C 85 % 1018,5 hPa 0,0 l/m 12,9 km/h (3 Bft) W 269 0 min 0,000 mm 0,0 UV-I 0 W/m 7,5 C 6,0 C 22,5 km/h (4 Bft) 95,65 %
04.05.2016 00:50 9,9 C 85 % 1018,5 hPa 0,0 l/m 15,4 km/h (3 Bft) W-SW 256 0 min 0,000 mm 0,0 UV-I 0 W/m 7,5 C 4,8 C 20,9 km/h (4 Bft) 100,00 %
04.05.2016 00:51 9,9 C 85 % 1018,5 hPa 0,0 l/m 9,4 km/h (2 Bft) W-SW 239 0 min 0,000 mm 0,0 UV-I 0 W/m 7,5 C 7,8 C 17,7 km/h (3 Bft) 95,65 %
04.05.2016 00:52 9,9 C 85 % 1018,4 hPa 0,0 l/m 10,5 km/h (2 Bft) SW 223 0 min 0,000 mm 0,0 UV-I 0 W/m 7,5 C 7,2 C 12,9 km/h (3 Bft) 96,30 %
04.05.2016 00:53 9,9 C 85 % 1018,5 hPa 0,0 l/m 13,8 km/h (3 Bft) W-SW 254 0 min 0,000 mm 0,0 UV-I 0 W/m 7,5 C 5,5 C 17,7 km/h (3 Bft) 100,00 %
04.05.2016 00:54 9,9 C 85 % 1018,5 hPa 0,0 l/m 16,6 km/h (3 Bft) W 259 0 min 0,000 mm 0,0 UV-I 0 W/m 7,5 C 4,4 C 20,9 km/h (4 Bft) 96,30 %
04.05.2016 00:55 9,9 C 85 % 1018,5 hPa 0,0 l/m 15,5 km/h (3 Bft) SW 230 0 min 0,000 mm 0,0 UV-I 0 W/m 7,5 C 4,8 C 20,9 km/h (4 Bft) 96,15 %
04.05.2016 00:56 9,9 C 85 % 1018,4 hPa 0,0 l/m 13,0 km/h (3 Bft) W 269 0 min 0,000 mm 0,0 UV-I 0 W/m 7,5 C 5,9 C 16,1 km/h (3 Bft) 100,00 %
04.05.2016 00:57 9,9 C 85 % 1018,4 hPa 0,0 l/m 15,2 km/h (3 Bft) W-SW 247 0 min 0,000 mm 0,0 UV-I 0 W/m 7,5 C 4,9 C 27,4 km/h (4 Bft) 96,43 %
04.05.2016 00:58 9,9 C 85 % 1018,3 hPa 0,0 l/m 27,3 km/h (4 Bft) W-SW 246 0 min 0,000 mm 0,0 UV-I 0 W/m 7,5 C 1,1 C 40,2 km/h (6 Bft) 100,00 %
04.05.2016 00:59 9,9 C 84 % 1018,4 hPa 0,0 l/m 18,6 km/h (3 Bft) W 262 0 min 0,000 mm 0,0 UV-I 0 W/m 7,3 C 3,6 C 24,1 km/h (4 Bft) 96,67 %
04.05.2016 01:00 9,9 C 84 % 1018,4 hPa 0,0 l/m 15,2 km/h (3 Bft) W-SW 241 0 min 0,025 mm 0,0 UV-I 0 W/m 7,3 C 4,9 C 20,9 km/h (4 Bft) 94,12 %
04.05.2016 01:01 9,9 C 84 % 1018,4 hPa 0,0 l/m 18,1 km/h (3 Bft) W-SW 252 0 min 0,000 mm 0,0 UV-I 0 W/m 7,3 C 3,8 C 24,1 km/h (4 Bft) 97,37 %
04.05.2016 01:02 9,9 C 84 % 1018,4 hPa 0,0 l/m 20,2 km/h (4 Bft) W-SW 238 0 min 0,000 mm 0,0 UV-I 0 W/m 7,3 C 3,1 C 25,7 km/h (4 Bft) 100,00 %
04.05.2016 01:03 9,9 C 84 % 1018,4 hPa 0,0 l/m 17,8 km/h (3 Bft) W-SW 245 0 min 0,000 mm 0,0 UV-I 0 W/m 7,3 C 3,9 C 33,8 km/h (5 Bft) 100,00 %
04.05.2016 01:04 9,9 C 84 % 1018,5 hPa 0,0 l/m 25,5 km/h (4 Bft) W-SW 248 0 min 0,000 mm 0,0 UV-I 0 W/m 7,3 C 1,6 C 35,4 km/h (5 Bft) 95,65 %
04.05.2016 01:05 9,9 C 84 % 1018,5 hPa 0,0 l/m 16,0 km/h (3 Bft) W-SW 257 0 min 0,000 mm 0,0 UV-I 0 W/m 7,3 C 4,6 C 29,0 km/h (5 Bft) 91,67 %
04.05.2016 01:06 9,9 C 84 % 1018,5 hPa 0,0 l/m 16,0 km/h (3 Bft) W 268 0 min 0,000 mm 0,0 UV-I 0 W/m 7,3 C 4,6 C 20,9 km/h (4 Bft) 96,15 %
04.05.2016 01:07 9,9 C 84 % 1018,5 hPa 0,0 l/m 16,4 km/h (3 Bft) W-SW 247 0 min 0,000 mm 0,0 UV-I 0 W/m 7,3 C 4,4 C 19,3 km/h (3 Bft) 95,83 %
04.05.2016 01:08 9,9 C 84 % 1018,5 hPa 0,0 l/m 12,5 km/h (3 Bft) W-SW 252 0 min 0,000 mm 0,0 UV-I 0 W/m 7,3 C 6,1 C 16,1 km/h (3 Bft) 100,00 %
04.05.2016 01:09 9,9 C 84 % 1018,5 hPa 0,0 l/m 11,0 km/h (2 Bft) W-SW 240 0 min 0,000 mm 0,0 UV-I 0 W/m 7,3 C 6,9 C 16,1 km/h (3 Bft) 96,30 %
04.05.2016 01:10 9,9 C 84 % 1018,5 hPa 0,0 l/m 8,4 km/h (2 Bft) W-SW 257 0 min 0,000 mm 0,0 UV-I 0 W/m 7,3 C 8,5 C 12,9 km/h (3 Bft) 100,00 %
04.05.2016 01:11 9,9 C 84 % 1018,5 hPa 0,0 l/m 14,6 km/h (3 Bft) W-NW 302 0 min 0,000 mm 0,0 UV-I 0 W/m 7,3 C 5,2 C 22,5 km/h (4 Bft) 96,30 %
04.05.2016 01:12 9,9 C 84 % 1018,5 hPa 0,0 l/m 15,8 km/h (3 Bft) W-SW 250 0 min 0,000 mm 0,0 UV-I 0 W/m 7,3 C 4,7 C 20,9 km/h (4 Bft) 96,15 %
04.05.2016 01:13 9,9 C 84 % 1018,5 hPa 0,0 l/m 14,2 km/h (3 Bft) SW 231 0 min 0,000 mm 0,0 UV-I 0 W/m 7,3 C 5,4 C 17,7 km/h (3 Bft) 100,00 %
04.05.2016 01:14 9,9 C 84 % 1018,5 hPa 0,0 l/m 11,1 km/h (2 Bft) W-SW 242 0 min 0,000 mm 0,0 UV-I 0 W/m 7,3 C 6,9 C 17,7 km/h (3 Bft) 95,65 %
04.05.2016 01:15 9,9 C 84 % 1018,5 hPa 0,0 l/m 15,4 km/h (3 Bft) W 259 0 min 0,000 mm 0,0 UV-I 0 W/m 7,3 C 4,8 C 20,9 km/h (4 Bft) 96,30 %
04.05.2016 01:16 9,9 C 84 % 1018,6 hPa 0,0 l/m 16,8 km/h (3 Bft) W-SW 246 0 min 0,000 mm 0,0 UV-I 0 W/m 7,3 C 4,3 C 20,9 km/h (4 Bft) 93,10 %
04.05.2016 01:17 9,9 C 83 % 1018,6 hPa 0,0 l/m 14,2 km/h (3 Bft) W 277 0 min 0,000 mm 0,0 UV-I 0 W/m 7,2 C 5,4 C 20,9 km/h (4 Bft) 100,00 %
04.05.2016 01:18 9,9 C 83 % 1018,5 hPa 0,0 l/m 9,7 km/h (2 Bft) W 266 0 min 0,000 mm 0,0 UV-I 0 W/m 7,2 C 7,7 C 14,5 km/h (3 Bft) 100,00 %
04.05.2016 01:19 9,9 C 84 % 1018,5 hPa 0,0 l/m 12,8 km/h (3 Bft) W 263 0 min 0,000 mm 0,0 UV-I 0 W/m 7,3 C 6,0 C 16,1 km/h (3 Bft) 100,00 %
04.05.2016 01:20 9,9 C 84 % 1018,6 hPa 0,0 l/m 14,4 km/h (3 Bft) SW 233 0 min 0,000 mm 0,0 UV-I 0 W/m 7,3 C 5,3 C 19,3 km/h (3 Bft) 100,00 %
04.05.2016 01:21 9,9 C 84 % 1018,5 hPa 0,0 l/m 18,7 km/h (3 Bft) W-SW 245 0 min 0,000 mm 0,0 UV-I 0 W/m 7,3 C 3,6 C 25,7 km/h (4 Bft) 96,15 %
04.05.2016 01:22 9,9 C 84 % 1018,6 hPa 0,0 l/m 15,8 km/h (3 Bft) W-SW 242 0 min 0,000 mm 0,0 UV-I 0 W/m 7,3 C 4,7 C 22,5 km/h (4 Bft) 100,00 %
04.05.2016 01:23 9,9 C 83 % 1018,5 hPa 0,0 l/m 15,0 km/h (3 Bft) SW 231 0 min 0,000 mm 0,0 UV-I 0 W/m 7,2 C 5,0 C 22,5 km/h (4 Bft) 100,00 %
04.05.2016 01:24 9,9 C 84 % 1018,5 hPa 0,0 l/m 12,8 km/h (3 Bft) W-NW 284 0 min 0,000 mm 0,0 UV-I 0 W/m 7,3 C 6,0 C 17,7 km/h (3 Bft) 100,00 %
04.05.2016 01:25 9,9 C 84 % 1018,6 hPa 0,0 l/m 16,9 km/h (3 Bft) W 270 0 min 0,000 mm 0,0 UV-I 0 W/m 7,3 C 4,3 C 24,1 km/h (4 Bft) 100,00 %
04.05.2016 01:26 9,9 C 84 % 1018,5 hPa 0,0 l/m 18,0 km/h (3 Bft) W 271 0 min 0,000 mm 0,0 UV-I 0 W/m 7,3 C 3,8 C 29,0 km/h (5 Bft) 100,00 %
04.05.2016 01:27 9,9 C 84 % 1018,5 hPa 0,0 l/m 18,2 km/h (3 Bft) W-SW 252 0 min 0,000 mm 0,0 UV-I 0 W/m 7,3 C 3,8 C 25,7 km/h (4 Bft) 100,00 %
04.05.2016 01:28 9,9 C 84 % 1018,5 hPa 0,0 l/m 12,5 km/h (3 Bft) W-SW 244 0 min 0,000 mm 0,0 UV-I 0 W/m 7,3 C 6,1 C 19,3 km/h (3 Bft) 100,00 %
04.05.2016 01:29 9,9 C 84 % 1018,6 hPa 0,0 l/m 25,0 km/h (4 Bft) W 273 0 min 0,000 mm 0,0 UV-I 0 W/m 7,3 C 1,7 C 37,0 km/h (5 Bft) 100,00 %
04.05.2016 01:30 9,9 C 83 % 1018,5 hPa 0,0 l/m 16,3 km/h (3 Bft) W-SW 249 0 min 0,000 mm 0,0 UV-I 0 W/m 7,2 C 4,5 C 25,7 km/h (4 Bft) 96,67 %
04.05.2016 01:31 9,8 C 84 % 1018,5 hPa 0,0 l/m 10,9 km/h (2 Bft) W-SW 247 0 min 0,000 mm 0,0 UV-I 0 W/m 7,2 C 6,9 C 17,7 km/h (3 Bft) 100,00 %
04.05.2016 01:32 9,9 C 84 % 1018,5 hPa 0,0 l/m 17,1 km/h (3 Bft) W-NW 288 0 min 0,000 mm 0,0 UV-I 0 W/m 7,3 C 4,2 C 22,5 km/h (4 Bft) 100,00 %
04.05.2016 01:33 9,8 C 84 % 1018,5 hPa 0,0 l/m 12,5 km/h (3 Bft) W 273 0 min 0,000 mm 0,0 UV-I 0 W/m 7,2 C 6,0 C 16,1 km/h (3 Bft) 95,65 %
04.05.2016 01:34 9,8 C 84 % 1018,5 hPa 0,0 l/m 19,2 km/h (3 Bft) W-NW 293 0 min 0,000 mm 0,0 UV-I 0 W/m 7,2 C 3,3 C 29,0 km/h (5 Bft) 100,00 %
04.05.2016 01:35 9,8 C 84 % 1018,5 hPa 0,0 l/m 14,9 km/h (3 Bft) W-SW 254 0 min 0,000 mm 0,0 UV-I 0 W/m 7,2 C 4,9 C 19,3 km/h (3 Bft) 100,00 %
04.05.2016 01:36 9,8 C 84 % 1018,6 hPa 0,0 l/m 14,6 km/h (3 Bft) W 264 0 min 0,000 mm 0,0 UV-I 0 W/m 7,2 C 5,1 C 20,9 km/h (4 Bft) 100,00 %
04.05.2016 01:37 9,8 C 84 % 1018,6 hPa 0,0 l/m 15,0 km/h (3 Bft) W-SW 254 0 min 0,000 mm 0,0 UV-I 0 W/m 7,2 C 4,9 C 22,5 km/h (4 Bft) 100,00 %
04.05.2016 01:38 9,8 C 84 % 1018,6 hPa 0,0 l/m 12,3 km/h (3 Bft) SW 217 0 min 0,000 mm 0,0 UV-I 0 W/m 7,2 C 6,1 C 20,9 km/h (4 Bft) 100,00 %
04.05.2016 01:39 9,8 C 84 % 1018,6 hPa 0,0 l/m 17,0 km/h (3 Bft) W-SW 250 0 min 0,000 mm 0,0 UV-I 0 W/m 7,2 C 4,1 C 25,7 km/h (4 Bft) 97,37 %
04.05.2016 01:40 9,8 C 84 % 1018,6 hPa 0,0 l/m 15,3 km/h (3 Bft) W 269 0 min 0,000 mm 0,0 UV-I 0 W/m 7,2 C 4,8 C 32,2 km/h (5 Bft) 100,00 %
04.05.2016 01:41 9,8 C 84 % 1018,6 hPa 0,0 l/m 17,2 km/h (3 Bft) W 281 0 min 0,000 mm 0,0 UV-I 0 W/m 7,2 C 4,0 C 27,4 km/h (4 Bft) 98,46 %
04.05.2016 01:42 9,8 C 84 % 1018,6 hPa 0,0 l/m 11,2 km/h (2 Bft) W-NW 290 0 min 0,000 mm 0,0 UV-I 0 W/m 7,2 C 6,7 C 17,7 km/h (3 Bft) 100,00 %
04.05.2016 01:43 9,8 C 84 % 1018,7 hPa 0,0 l/m 11,1 km/h (2 Bft) W-SW 240 0 min 0,000 mm 0,0 UV-I 0 W/m 7,2 C 6,8 C 16,1 km/h (3 Bft) 100,00 %
04.05.2016 01:44 9,8 C 85 % 1018,6 hPa 0,0 l/m 15,5 km/h (3 Bft) W 261 0 min 0,000 mm 0,0 UV-I 0 W/m 7,4 C 4,7 C 25,7 km/h (4 Bft) 100,00 %
04.05.2016 01:45 9,8 C 85 % 1018,6 hPa 0,0 l/m 12,7 km/h (3 Bft) W 264 0 min 0,000 mm 0,0 UV-I 0 W/m 7,4 C 5,9 C 20,9 km/h (4 Bft) 92,59 %
04.05.2016 01:46 9,8 C 85 % 1018,6 hPa 0,0 l/m 12,0 km/h (2 Bft) W 269 0 min 0,000 mm 0,0 UV-I 0 W/m 7,4 C 6,3 C 14,5 km/h (3 Bft) 95,65 %
04.05.2016 01:47 9,8 C 85 % 1018,7 hPa 0,0 l/m 11,3 km/h (2 Bft) W-SW 240 0 min 0,000 mm 0,0 UV-I 0 W/m 7,4 C 6,6 C 19,3 km/h (3 Bft) 100,00 %
04.05.2016 01:48 9,8 C 85 % 1018,6 hPa 0,0 l/m 16,4 km/h (3 Bft) W 265 0 min 0,000 mm 0,0 UV-I 0 W/m 7,4 C 4,3 C 24,1 km/h (4 Bft) 100,00 %
04.05.2016 01:49 9,8 C 85 % 1018,7 hPa 0,0 l/m 15,3 km/h (3 Bft) SW 227 0 min 0,000 mm 0,0 UV-I 0 W/m 7,4 C 4,8 C 22,5 km/h (4 Bft) 100,00 %
04.05.2016 01:50 9,8 C 85 % 1018,8 hPa 0,0 l/m 12,1 km/h (2 Bft) W-SW 257 0 min 0,000 mm 0,0 UV-I 0 W/m 7,4 C 6,2 C 20,9 km/h (4 Bft) 100,00 %
04.05.2016 01:51 9,8 C 85 % 1018,8 hPa 0,0 l/m 11,7 km/h (2 Bft) W 281 0 min 0,000 mm 0,0 UV-I 0 W/m 7,4 C 6,4 C 17,7 km/h (3 Bft) 100,00 %
04.05.2016 01:52 9,8 C 85 % 1018,8 hPa 0,0 l/m 10,6 km/h (2 Bft) W-SW 257 0 min 0,000 mm 0,0 UV-I 0 W/m 7,4 C 7,0 C 14,5 km/h (3 Bft) 100,00 %
04.05.2016 01:53 9,8 C 86 % 1018,8 hPa 0,0 l/m 10,4 km/h (2 Bft) W-SW 257 0 min 0,000 mm 0,0 UV-I 0 W/m 7,6 C 7,1 C 12,9 km/h (3 Bft) 100,00 %
04.05.2016 01:54 9,8 C 86 % 1018,8 hPa 0,0 l/m 10,9 km/h (2 Bft) W 262 0 min 0,000 mm 0,0 UV-I 0 W/m 7,6 C 6,9 C 14,5 km/h (3 Bft) 100,00 %
04.05.2016 01:55 9,8 C 86 % 1018,8 hPa 0,0 l/m 12,9 km/h (3 Bft) W 281 0 min 0,000 mm 0,0 UV-I 0 W/m 7,6 C 5,8 C 16,1 km/h (3 Bft) 100,00 %
04.05.2016 01:56 9,8 C 86 % 1018,8 hPa 0,0 l/m 13,2 km/h (3 Bft) W-SW 245 0 min 0,000 mm 0,0 UV-I 0 W/m 7,6 C 5,7 C 17,7 km/h (3 Bft) 100,00 %
04.05.2016 01:57 9,8 C 86 % 1018,8 hPa 0,0 l/m 14,1 km/h (3 Bft) W-SW 248 0 min 0,000 mm 0,0 UV-I 0 W/m 7,6 C 5,3 C 20,9 km/h (4 Bft) 100,00 %
04.05.2016 01:58 9,8 C 86 % 1018,8 hPa 0,0 l/m 11,9 km/h (2 Bft) W-SW 257 0 min 0,000 mm 0,0 UV-I 0 W/m 7,6 C 6,3 C 17,7 km/h (3 Bft) 95,65 %
04.05.2016 01:59 9,7 C 86 % 1018,8 hPa 0,0 l/m 13,7 km/h (3 Bft) W-SW 246 0 min 0,000 mm 0,0 UV-I 0 W/m 7,5 C 5,3 C 22,5 km/h (4 Bft) 93,33 %
04.05.2016 02:00 9,7 C 86 % 1018,8 hPa 0,0 l/m 16,6 km/h (3 Bft) W 273 0 min 0,026 mm 0,0 UV-I 0 W/m 7,5 C 4,1 C 27,4 km/h (4 Bft) 100,00 %
04.05.2016 02:01 9,7 C 86 % 1018,8 hPa 0,0 l/m 8,4 km/h (2 Bft) SW 232 0 min 0,000 mm 0,0 UV-I 0 W/m 7,5 C 8,3 C 16,1 km/h (3 Bft) 100,00 %
04.05.2016 02:02 9,8 C 86 % 1018,8 hPa 0,0 l/m 16,1 km/h (3 Bft) W 276 0 min 0,000 mm 0,0 UV-I 0 W/m 7,6 C 4,4 C 32,2 km/h (5 Bft) 100,00 %
04.05.2016 02:03 9,7 C 86 % 1018,8 hPa 0,0 l/m 7,2 km/h (2 Bft) W 269 0 min 0,000 mm 0,0 UV-I 0 W/m 7,5 C 9,1 C 19,3 km/h (3 Bft) 100,00 %
04.05.2016 02:04 9,7 C 86 % 1018,8 hPa 0,0 l/m 13,8 km/h (3 Bft) W-SW 253 0 min 0,000 mm 0,0 UV-I 0 W/m 7,5 C 5,3 C 19,3 km/h (3 Bft) 100,00 %
04.05.2016 02:05 9,7 C 86 % 1018,8 hPa 0,0 l/m 15,8 km/h (3 Bft) W-NW 286 0 min 0,000 mm 0,0 UV-I 0 W/m 7,5 C 4,4 C 24,1 km/h (4 Bft) 100,00 %
04.05.2016 02:06 9,7 C 86 % 1018,8 hPa 0,0 l/m 18,3 km/h (3 Bft) W-NW 289 0 min 0,000 mm 0,0 UV-I 0 W/m 7,5 C 3,5 C 25,7 km/h (4 Bft) 100,00 %
04.05.2016 02:07 9,7 C 86 % 1018,9 hPa 0,0 l/m 14,0 km/h (3 Bft) W-SW 241 0 min 0,000 mm 0,0 UV-I 0 W/m 7,5 C 5,2 C 24,1 km/h (4 Bft) 100,00 %
04.05.2016 02:08 9,7 C 86 % 1018,9 hPa 0,0 l/m 10,0 km/h (2 Bft) W 259 0 min 0,000 mm 0,0 UV-I 0 W/m 7,5 C 7,3 C 14,5 km/h (3 Bft) 100,00 %
04.05.2016 02:09 9,7 C 86 % 1018,9 hPa 0,0 l/m 14,9 km/h (3 Bft) W-SW 241 0 min 0,000 mm 0,0 UV-I 0 W/m 7,5 C 4,8 C 22,5 km/h (4 Bft) 100,00 %
04.05.2016 02:10 9,7 C 86 % 1018,9 hPa 0,0 l/m 16,7 km/h (3 Bft) SW 228 0 min 0,000 mm 0,0 UV-I 0 W/m 7,5 C 4,1 C 29,0 km/h (5 Bft) 100,00 %
04.05.2016 02:11 9,7 C 86 % 1018,9 hPa 0,0 l/m 14,1 km/h (3 Bft) W-SW 258 0 min 0,000 mm 0,0 UV-I 0 W/m 7,5 C 5,2 C 17,7 km/h (3 Bft) 100,00 %
04.05.2016 02:12 9,7 C 86 % 1018,9 hPa 0,0 l/m 9,4 km/h (2 Bft) W 265 0 min 0,000 mm 0,0 UV-I 0 W/m 7,5 C 7,6 C 12,9 km/h (3 Bft) 100,00 %
04.05.2016 02:13 9,7 C 86 % 1018,9 hPa 0,0 l/m 10,4 km/h (2 Bft) W 266 0 min 0,000 mm 0,0 UV-I 0 W/m 7,5 C 7,0 C 14,5 km/h (3 Bft) 97,56 %
04.05.2016 02:14 9,7 C 86 % 1018,9 hPa 0,0 l/m 12,9 km/h (3 Bft) S-SW 196 0 min 0,000 mm 0,0 UV-I 0 W/m 7,5 C 5,7 C 17,7 km/h (3 Bft) 100,00 %
04.05.2016 02:15 9,7 C 86 % 1018,9 hPa 0,0 l/m 17,1 km/h (3 Bft) W-SW 250 0 min 0,000 mm 0,0 UV-I 0 W/m 7,5 C 3,9 C 22,5 km/h (4 Bft) 100,00 %
04.05.2016 02:16 9,7 C 86 % 1018,9 hPa 0,0 l/m 16,6 km/h (3 Bft) W 259 0 min 0,000 mm 0,0 UV-I 0 W/m 7,5 C 4,1 C 24,1 km/h (4 Bft) 100,00 %
04.05.2016 02:17 9,7 C 86 % 1019,0 hPa 0,0 l/m 15,0 km/h (3 Bft) W-SW 244 0 min 0,000 mm 0,0 UV-I 0 W/m 7,5 C 4,8 C 19,3 km/h (3 Bft) 100,00 %
04.05.2016 02:18 9,7 C 86 % 1018,9 hPa 0,0 l/m 17,8 km/h (3 Bft) W-SW 257 0 min 0,000 mm 0,0 UV-I 0 W/m 7,5 C 3,7 C 27,4 km/h (4 Bft) 100,00 %
04.05.2016 02:19 9,6 C 86 % 1018,9 hPa 0,0 l/m 19,8 km/h (3 Bft) W-SW 254 0 min 0,000 mm 0,0 UV-I 0 W/m 7,4 C 2,8 C 30,6 km/h (5 Bft) 100,00 %
04.05.2016 02:20 9,6 C 86 % 1018,9 hPa 0,0 l/m 19,6 km/h (3 Bft) W-SW 253 0 min 0,000 mm 0,0 UV-I 0 W/m 7,4 C 2,9 C 25,7 km/h (4 Bft) 100,00 %
04.05.2016 02:21 9,6 C 86 % 1018,8 hPa 0,0 l/m 12,6 km/h (3 Bft) NW 311 0 min 0,000 mm 0,0 UV-I 0 W/m 7,4 C 5,8 C 20,9 km/h (4 Bft) 100,00 %
04.05.2016 02:22 9,6 C 87 % 1018,9 hPa 0,0 l/m 16,1 km/h (3 Bft) W-SW 252 0 min 0,000 mm 0,0 UV-I 0 W/m 7,5 C 4,2 C 24,1 km/h (4 Bft) 100,00 %
04.05.2016 02:23 9,6 C 86 % 1018,9 hPa 0,0 l/m 17,1 km/h (3 Bft) W 272 0 min 0,000 mm 0,0 UV-I 0 W/m 7,4 C 3,8 C 24,1 km/h (4 Bft) 100,00 %
04.05.2016 02:24 9,6 C 87 % 1018,9 hPa 0,0 l/m 23,1 km/h (4 Bft) SW 232 0 min 0,000 mm 0,0 UV-I 0 W/m 7,5 C 1,8 C 29,0 km/h (5 Bft) 100,00 %
04.05.2016 02:25 9,6 C 87 % 1018,9 hPa 0,0 l/m 20,8 km/h (4 Bft) W-SW 257 0 min 0,000 mm 0,0 UV-I 0 W/m 7,5 C 2,5 C 27,4 km/h (4 Bft) 100,00 %
04.05.2016 02:26 9,6 C 86 % 1018,9 hPa 0,0 l/m 16,1 km/h (3 Bft) W 281 0 min 0,000 mm 0,0 UV-I 0 W/m 7,4 C 4,2 C 25,7 km/h (4 Bft) 95,65 %
04.05.2016 02:27 9,6 C 86 % 1018,9 hPa 0,0 l/m 12,7 km/h (3 Bft) W 279 0 min 0,000 mm 0,0 UV-I 0 W/m 7,4 C 5,7 C 16,1 km/h (3 Bft) 100,00 %
04.05.2016 02:28 9,6 C 87 % 1019,0 hPa 0,2 l/m 19,9 km/h (4 Bft) W 271 0 min 0,000 mm 0,0 UV-I 0 W/m 7,5 C 2,8 C 24,1 km/h (4 Bft) 100,00 %
04.05.2016 02:29 9,6 C 87 % 1019,0 hPa 0,0 l/m 17,1 km/h (3 Bft) W 261 0 min 0,000 mm 0,0 UV-I 0 W/m 7,5 C 3,8 C 24,1 km/h (4 Bft) 100,00 %
04.05.2016 02:30 9,6 C 87 % 1019,0 hPa 0,0 l/m 16,3 km/h (3 Bft) W 259 0 min 0,000 mm 0,0 UV-I 0 W/m 7,5 C 4,1 C 22,5 km/h (4 Bft) 100,00 %
04.05.2016 02:31 9,6 C 86 % 1019,0 hPa 0,0 l/m 18,3 km/h (3 Bft) W-SW 255 0 min 0,000 mm 0,0 UV-I 0 W/m 7,4 C 3,4 C 27,4 km/h (4 Bft) 100,00 %
04.05.2016 02:32 9,5 C 87 % 1019,0 hPa 0,0 l/m 18,8 km/h (3 Bft) W-SW 258 0 min 0,000 mm 0,0 UV-I 0 W/m 7,4 C 3,1 C 25,7 km/h (4 Bft) 100,00 %
04.05.2016 02:33 9,5 C 87 % 1018,9 hPa 0,0 l/m 19,0 km/h (3 Bft) W 273 0 min 0,000 mm 0,0 UV-I 0 W/m 7,4 C 3,0 C 27,4 km/h (4 Bft) 100,00 %
04.05.2016 02:34 9,5 C 87 % 1019,0 hPa 0,0 l/m 14,6 km/h (3 Bft) W-SW 248 0 min 0,000 mm 0,0 UV-I 0 W/m 7,4 C 4,7 C 22,5 km/h (4 Bft) 100,00 %
04.05.2016 02:35 9,5 C 87 % 1019,0 hPa 0,0 l/m 13,9 km/h (3 Bft) SW 236 0 min 0,000 mm 0,0 UV-I 0 W/m 7,4 C 5,0 C 19,3 km/h (3 Bft) 100,00 %
04.05.2016 02:36 9,5 C 87 % 1019,0 hPa 0,0 l/m 11,8 km/h (2 Bft) W 273 0 min 0,000 mm 0,0 UV-I 0 W/m 7,4 C 6,0 C 17,7 km/h (3 Bft) 100,00 %
04.05.2016 02:37 9,4 C 87 % 1019,0 hPa 0,0 l/m 14,6 km/h (3 Bft) W 277 0 min 0,000 mm 0,0 UV-I 0 W/m 7,3 C 4,6 C 19,3 km/h (3 Bft) 100,00 %
04.05.2016 02:38 9,4 C 87 % 1019,0 hPa 0,0 l/m 15,8 km/h (3 Bft) W-SW 256 0 min 0,000 mm 0,0 UV-I 0 W/m 7,3 C 4,1 C 19,3 km/h (3 Bft) 100,00 %
04.05.2016 02:39 9,4 C 87 % 1019,1 hPa 0,0 l/m 17,1 km/h (3 Bft) W 263 0 min 0,000 mm 0,0 UV-I 0 W/m 7,3 C 3,6 C 27,4 km/h (4 Bft) 100,00 %
04.05.2016 02:40 9,4 C 87 % 1019,0 hPa 0,0 l/m 20,5 km/h (4 Bft) W-SW 246 0 min 0,000 mm 0,0 UV-I 0 W/m 7,3 C 2,3 C 27,4 km/h (4 Bft) 93,33 %
04.05.2016 02:41 9,4 C 87 % 1019,0 hPa 0,0 l/m 13,4 km/h (3 Bft) W-SW 253 0 min 0,000 mm 0,0 UV-I 0 W/m 7,3 C 5,1 C 17,7 km/h (3 Bft) 100,00 %
04.05.2016 02:42 9,4 C 87 % 1019,1 hPa 0,0 l/m 13,1 km/h (3 Bft) W 260 0 min 0,000 mm 0,0 UV-I 0 W/m 7,3 C 5,3 C 17,7 km/h (3 Bft) 100,00 %
04.05.2016 02:43 9,4 C 87 % 1019,1 hPa 0,0 l/m 17,6 km/h (3 Bft) W 273 0 min 0,000 mm 0,0 UV-I 0 W/m 7,3 C 3,4 C 25,7 km/h (4 Bft) 100,00 %
04.05.2016 02:44 9,4 C 87 % 1019,1 hPa 0,0 l/m 14,3 km/h (3 Bft) W 273 0 min 0,000 mm 0,0 UV-I 0 W/m 7,3 C 4,7 C 20,9 km/h (4 Bft) 100,00 %
04.05.2016 02:45 9,4 C 87 % 1019,1 hPa 0,0 l/m 14,4 km/h (3 Bft) W-SW 250 0 min 0,000 mm 0,0 UV-I 0 W/m 7,3 C 4,7 C 19,3 km/h (3 Bft) 100,00 %
04.05.2016 02:46 9,4 C 87 % 1019,1 hPa 0,0 l/m 12,2 km/h (2 Bft) SW 224 0 min 0,000 mm 0,0 UV-I 0 W/m 7,3 C 5,7 C 16,1 km/h (3 Bft) 95,83 %
04.05.2016 02:47 9,4 C 87 % 1019,1 hPa 0,0 l/m 15,0 km/h (3 Bft) W 272 0 min 0,000 mm 0,0 UV-I 0 W/m 7,3 C 4,4 C 24,1 km/h (4 Bft) 95,65 %
04.05.2016 02:48 9,4 C 87 % 1019,1 hPa 0,0 l/m 15,0 km/h (3 Bft) W-SW 244 0 min 0,000 mm 0,0 UV-I 0 W/m 7,3 C 4,4 C 24,1 km/h (4 Bft) 100,00 %
04.05.2016 02:49 9,3 C 87 % 1019,1 hPa 0,0 l/m 17,9 km/h (3 Bft) W-SW 252 0 min 0,000 mm 0,0 UV-I 0 W/m 7,2 C 3,1 C 22,5 km/h (4 Bft) 96,15 %
04.05.2016 02:50 9,3 C 87 % 1019,2 hPa 0,0 l/m 16,3 km/h (3 Bft) W 264 0 min 0,000 mm 0,0 UV-I 0 W/m 7,2 C 3,7 C 22,5 km/h (4 Bft) 100,00 %
04.05.2016 02:51 9,3 C 87 % 1019,1 hPa 0,0 l/m 15,6 km/h (3 Bft) W 271 0 min 0,000 mm 0,0 UV-I 0 W/m 7,2 C 4,0 C 24,1 km/h (4 Bft) 95,65 %
04.05.2016 02:52 9,3 C 87 % 1019,2 hPa 0,0 l/m 17,0 km/h (3 Bft) W-NW 283 0 min 0,000 mm 0,0 UV-I 0 W/m 7,2 C 3,5 C 22,5 km/h (4 Bft) 100,00 %
04.05.2016 02:53 9,3 C 87 % 1019,2 hPa 0,0 l/m 12,9 km/h (3 Bft) W-SW 248 0 min 0,000 mm 0,0 UV-I 0 W/m 7,2 C 5,3 C 17,7 km/h (3 Bft) 92,31 %
04.05.2016 02:54 9,3 C 87 % 1019,2 hPa 0,0 l/m 12,9 km/h (3 Bft) W-SW 245 0 min 0,000 mm 0,0 UV-I 0 W/m 7,2 C 5,3 C 19,3 km/h (3 Bft) 95,83 %
04.05.2016 02:55 9,3 C 87 % 1019,2 hPa 0,0 l/m 13,8 km/h (3 Bft) W-SW 254 0 min 0,000 mm 0,0 UV-I 0 W/m 7,2 C 4,8 C 19,3 km/h (3 Bft) 96,15 %
04.05.2016 02:56 9,3 C 87 % 1019,2 hPa 0,0 l/m 12,5 km/h (3 Bft) W-NW 298 0 min 0,000 mm 0,0 UV-I 0 W/m 7,2 C 5,5 C 16,1 km/h (3 Bft) 100,00 %
04.05.2016 02:57 9,3 C 87 % 1019,3 hPa 0,0 l/m 11,5 km/h (2 Bft) W-SW 258 0 min 0,000 mm 0,0 UV-I 0 W/m 7,2 C 6,0 C 17,7 km/h (3 Bft) 96,15 %
04.05.2016 02:58 9,3 C 87 % 1019,3 hPa 0,0 l/m 15,9 km/h (3 Bft) W 261 0 min 0,000 mm 0,0 UV-I 0 W/m 7,2 C 3,9 C 25,7 km/h (4 Bft) 96,30 %
04.05.2016 02:59 9,3 C 87 % 1019,2 hPa 0,0 l/m 15,0 km/h (3 Bft) W 260 0 min 0,000 mm 0,0 UV-I 0 W/m 7,2 C 4,3 C 22,5 km/h (4 Bft) 100,00 %
04.05.2016 03:00 9,3 C 87 % 1019,3 hPa 0,0 l/m 11,8 km/h (2 Bft) W-SW 250 0 min 0,025 mm 0,0 UV-I 0 W/m 7,2 C 5,8 C 17,7 km/h (3 Bft) 91,67 %
04.05.2016 03:01 9,2 C 87 % 1019,3 hPa 0,0 l/m 14,2 km/h (3 Bft) W 267 0 min 0,000 mm 0,0 UV-I 0 W/m 7,2 C 4,5 C 19,3 km/h (3 Bft) 100,00 %
04.05.2016 03:02 9,2 C 87 % 1019,3 hPa 0,0 l/m 16,7 km/h (3 Bft) W-SW 245 0 min 0,000 mm 0,0 UV-I 0 W/m 7,2 C 3,5 C 20,9 km/h (4 Bft) 95,65 %
04.05.2016 03:03 9,2 C 87 % 1019,3 hPa 0,0 l/m 17,1 km/h (3 Bft) W 273 0 min 0,000 mm 0,0 UV-I 0 W/m 7,2 C 3,3 C 24,1 km/h (4 Bft) 95,83 %
04.05.2016 03:04 9,2 C 87 % 1019,3 hPa 0,0 l/m 17,5 km/h (3 Bft) W-SW 246 0 min 0,000 mm 0,0 UV-I 0 W/m 7,2 C 3,1 C 24,1 km/h (4 Bft) 96,15 %
04.05.2016 03:05 9,2 C 87 % 1019,3 hPa 0,0 l/m 19,4 km/h (3 Bft) W 266 0 min 0,000 mm 0,0 UV-I 0 W/m 7,2 C 2,5 C 27,4 km/h (4 Bft) 93,33 %
04.05.2016 03:06 9,2 C 87 % 1019,3 hPa 0,0 l/m 15,8 km/h (3 Bft) W 273 0 min 0,000 mm 0,0 UV-I 0 W/m 7,2 C 3,8 C 24,1 km/h (4 Bft) 100,00 %
04.05.2016 03:07 9,2 C 87 % 1019,3 hPa 0,0 l/m 22,0 km/h (4 Bft) W 279 0 min 0,000 mm 0,0 UV-I 0 W/m 7,2 C 1,6 C 30,6 km/h (5 Bft) 96,30 %
04.05.2016 03:08 9,2 C 87 % 1019,3 hPa 0,0 l/m 15,0 km/h (3 Bft) W-SW 249 0 min 0,000 mm 0,0 UV-I 0 W/m 7,2 C 4,2 C 22,5 km/h (4 Bft) 93,10 %
04.05.2016 03:09 9,2 C 87 % 1019,4 hPa 0,0 l/m 14,9 km/h (3 Bft) W 259 0 min 0,000 mm 0,0 UV-I 0 W/m 7,2 C 4,2 C 20,9 km/h (4 Bft) 96,30 %
04.05.2016 03:10 9,2 C 87 % 1019,4 hPa 0,0 l/m 16,3 km/h (3 Bft) W-SW 252 0 min 0,000 mm 0,0 UV-I 0 W/m 7,2 C 3,6 C 20,9 km/h (4 Bft) 98,55 %
04.05.2016 03:11 9,2 C 87 % 1019,4 hPa 0,0 l/m 20,8 km/h (4 Bft) W 271 0 min 0,000 mm 0,0 UV-I 0 W/m 7,2 C 2,0 C 27,4 km/h (4 Bft) 97,73 %
04.05.2016 03:12 9,2 C 87 % 1019,4 hPa 0,0 l/m 15,1 km/h (3 Bft) W 264 0 min 0,000 mm 0,0 UV-I 0 W/m 7,2 C 4,1 C 20,9 km/h (4 Bft) 100,00 %
04.05.2016 03:13 9,2 C 87 % 1019,4 hPa 0,0 l/m 17,3 km/h (3 Bft) W 262 0 min 0,000 mm 0,0 UV-I 0 W/m 7,2 C 3,2 C 22,5 km/h (4 Bft) 96,67 %
04.05.2016 03:14 9,2 C 88 % 1019,4 hPa 0,0 l/m 16,2 km/h (3 Bft) W 271 0 min 0,000 mm 0,0 UV-I 0 W/m 7,3 C 3,7 C 25,7 km/h (4 Bft) 91,30 %
04.05.2016 03:15 9,2 C 88 % 1019,5 hPa 0,0 l/m 17,4 km/h (3 Bft) W 269 0 min 0,000 mm 0,0 UV-I 0 W/m 7,3 C 3,2 C 27,4 km/h (4 Bft) 100,00 %
04.05.2016 03:16 9,2 C 87 % 1019,5 hPa 0,0 l/m 17,4 km/h (3 Bft) W 273 0 min 0,000 mm 0,0 UV-I 0 W/m 7,2 C 3,2 C 29,0 km/h (5 Bft) 96,15 %
04.05.2016 03:17 9,2 C 87 % 1019,5 hPa 0,0 l/m 13,4 km/h (3 Bft) W-SW 250 0 min 0,000 mm 0,0 UV-I 0 W/m 7,2 C 4,9 C 20,9 km/h (4 Bft) 100,00 %
04.05.2016 03:18 9,2 C 87 % 1019,5 hPa 0,0 l/m 13,0 km/h (3 Bft) W-SW 248 0 min 0,000 mm 0,0 UV-I 0 W/m 7,2 C 5,1 C 17,7 km/h (3 Bft) 96,67 %
04.05.2016 03:19 9,2 C 87 % 1019,5 hPa 0,0 l/m 12,4 km/h (3 Bft) W-NW 301 0 min 0,000 mm 0,0 UV-I 0 W/m 7,2 C 5,4 C 22,5 km/h (4 Bft) 100,00 %
04.05.2016 03:20 9,2 C 88 % 1019,5 hPa 0,0 l/m 17,8 km/h (3 Bft) W-SW 245 0 min 0,000 mm 0,0 UV-I 0 W/m 7,3 C 3,0 C 24,1 km/h (4 Bft) 100,00 %
04.05.2016 03:21 9,2 C 88 % 1019,5 hPa 0,0 l/m 15,6 km/h (3 Bft) W-SW 257 0 min 0,000 mm 0,0 UV-I 0 W/m 7,3 C 3,9 C 20,9 km/h (4 Bft) 100,00 %
04.05.2016 03:22 9,2 C 87 % 1019,4 hPa 0,0 l/m 20,3 km/h (4 Bft) W-SW 254 0 min 0,000 mm 0,0 UV-I 0 W/m 7,2 C 2,2 C 27,4 km/h (4 Bft) 100,00 %
04.05.2016 03:23 9,1 C 87 % 1019,5 hPa 0,0 l/m 17,9 km/h (3 Bft) W 263 0 min 0,000 mm 0,0 UV-I 0 W/m 7,1 C 2,9 C 30,6 km/h (5 Bft) 100,00 %
04.05.2016 03:24 9,2 C 87 % 1019,5 hPa 0,0 l/m 18,8 km/h (3 Bft) W-SW 252 0 min 0,000 mm 0,0 UV-I 0 W/m 7,2 C 2,7 C 25,7 km/h (4 Bft) 100,00 %
04.05.2016 03:25 9,1 C 88 % 1019,4 hPa 0,0 l/m 19,2 km/h (3 Bft) W 259 0 min 0,000 mm 0,0 UV-I 0 W/m 7,2 C 2,4 C 32,2 km/h (5 Bft) 100,00 %
04.05.2016 03:26 9,1 C 88 % 1019,5 hPa 0,0 l/m 19,0 km/h (3 Bft) W 267 0 min 0,000 mm 0,0 UV-I 0 W/m 7,2 C 2,5 C 25,7 km/h (4 Bft) 100,00 %
04.05.2016 03:27 9,1 C 88 % 1019,5 hPa 0,0 l/m 17,6 km/h (3 Bft) W-SW 241 0 min 0,000 mm 0,0 UV-I 0 W/m 7,2 C 3,0 C 24,1 km/h (4 Bft) 95,65 %
04.05.2016 03:28 9,1 C 88 % 1019,5 hPa 0,0 l/m 14,4 km/h (3 Bft) W 275 0 min 0,000 mm 0,0 UV-I 0 W/m 7,2 C 4,3 C 17,7 km/h (3 Bft) 100,00 %
04.05.2016 03:29 9,1 C 88 % 1019,6 hPa 0,0 l/m 16,4 km/h (3 Bft) W-SW 257 0 min 0,000 mm 0,0 UV-I 0 W/m 7,2 C 3,5 C 24,1 km/h (4 Bft) 100,00 %
04.05.2016 03:30 9,1 C 88 % 1019,6 hPa 0,0 l/m 14,3 km/h (3 Bft) W-SW 257 0 min 0,000 mm 0,0 UV-I 0 W/m 7,2 C 4,4 C 20,9 km/h (4 Bft) 100,00 %
04.05.2016 03:31 9,1 C 88 % 1019,5 hPa 0,0 l/m 12,9 km/h (3 Bft) W 260 0 min 0,000 mm 0,0 UV-I 0 W/m 7,2 C 5,0 C 19,3 km/h (3 Bft) 100,00 %
04.05.2016 03:32 9,1 C 88 % 1019,6 hPa 0,0 l/m 13,0 km/h (3 Bft) W 261 0 min 0,000 mm 0,0 UV-I 0 W/m 7,2 C 5,0 C 19,3 km/h (3 Bft) 100,00 %
04.05.2016 03:33 9,1 C 88 % 1019,6 hPa 0,0 l/m 13,9 km/h (3 Bft) W-SW 250 0 min 0,000 mm 0,0 UV-I 0 W/m 7,2 C 4,5 C 16,1 km/h (3 Bft) 100,00 %
04.05.2016 03:34 9,1 C 88 % 1019,6 hPa 0,0 l/m 15,1 km/h (3 Bft) W 269 0 min 0,000 mm 0,0 UV-I 0 W/m 7,2 C 4,0 C 17,7 km/h (3 Bft) 100,00 %
04.05.2016 03:35 9,1 C 88 % 1019,6 hPa 0,0 l/m 18,7 km/h (3 Bft) W 275 0 min 0,000 mm 0,0 UV-I 0 W/m 7,2 C 2,6 C 27,4 km/h (4 Bft) 100,00 %
04.05.2016 03:36 9,1 C 88 % 1019,6 hPa 0,0 l/m 16,8 km/h (3 Bft) W-SW 255 0 min 0,000 mm 0,0 UV-I 0 W/m 7,2 C 3,3 C 22,5 km/h (4 Bft) 100,00 %
04.05.2016 03:37 9,1 C 88 % 1019,6 hPa 0,0 l/m 15,3 km/h (3 Bft) SW 236 0 min 0,000 mm 0,0 UV-I 0 W/m 7,2 C 3,9 C 24,1 km/h (4 Bft) 100,00 %
04.05.2016 03:38 9,1 C 88 % 1019,6 hPa 0,0 l/m 15,2 km/h (3 Bft) W-SW 247 0 min 0,000 mm 0,0 UV-I 0 W/m 7,2 C 4,0 C 19,3 km/h (3 Bft) 92,86 %
04.05.2016 03:39 9,1 C 88 % 1019,6 hPa 0,0 l/m 15,5 km/h (3 Bft) W-SW 242 0 min 0,000 mm 0,0 UV-I 0 W/m 7,2 C 3,8 C 24,1 km/h (4 Bft) 100,00 %
04.05.2016 03:40 9,1 C 88 % 1019,6 hPa 0,0 l/m 12,8 km/h (3 Bft) W-SW 249 0 min 0,000 mm 0,0 UV-I 0 W/m 7,2 C 5,1 C 19,3 km/h (3 Bft) 100,00 %
04.05.2016 03:41 9,1 C 88 % 1019,7 hPa 0,0 l/m 16,5 km/h (3 Bft) W 261 0 min 0,000 mm 0,0 UV-I 0 W/m 7,2 C 3,4 C 24,1 km/h (4 Bft) 100,00 %
04.05.2016 03:42 9,1 C 88 % 1019,7 hPa 0,0 l/m 12,0 km/h (2 Bft) W-SW 245 0 min 0,000 mm 0,0 UV-I 0 W/m 7,2 C 5,5 C 19,3 km/h (3 Bft) 100,00 %
04.05.2016 03:43 9,1 C 88 % 1019,7 hPa 0,0 l/m 14,7 km/h (3 Bft) W-SW 243 0 min 0,000 mm 0,0 UV-I 0 W/m 7,2 C 4,2 C 19,3 km/h (3 Bft) 100,00 %
04.05.2016 03:44 9,1 C 88 % 1019,7 hPa 0,0 l/m 13,9 km/h (3 Bft) W-SW 252 0 min 0,000 mm 0,0 UV-I 0 W/m 7,2 C 4,5 C 20,9 km/h (4 Bft) 100,00 %
04.05.2016 03:45 9,1 C 88 % 1019,7 hPa 0,0 l/m 12,5 km/h (3 Bft) W 261 0 min 0,000 mm 0,0 UV-I 0 W/m 7,2 C 5,2 C 16,1 km/h (3 Bft) 100,00 %
04.05.2016 03:46 9,1 C 88 % 1019,8 hPa 0,0 l/m 14,6 km/h (3 Bft) W 267 0 min 0,000 mm 0,0 UV-I 0 W/m 7,2 C 4,2 C 24,1 km/h (4 Bft) 100,00 %
04.05.2016 03:47 9,1 C 88 % 1019,8 hPa 0,0 l/m 18,2 km/h (3 Bft) W-NW 291 0 min 0,000 mm 0,0 UV-I 0 W/m 7,2 C 2,8 C 24,1 km/h (4 Bft) 100,00 %
04.05.2016 03:48 9,1 C 88 % 1019,8 hPa 0,0 l/m 9,4 km/h (2 Bft) W-NW 289 0 min 0,000 mm 0,0 UV-I 0 W/m 7,2 C 7,0 C 16,1 km/h (3 Bft) 95,65 %
04.05.2016 03:49 9,1 C 88 % 1019,8 hPa 0,0 l/m 13,9 km/h (3 Bft) W-SW 248 0 min 0,000 mm 0,0 UV-I 0 W/m 7,2 C 4,5 C 24,1 km/h (4 Bft) 100,00 %
04.05.2016 03:50 9,1 C 88 % 1019,8 hPa 0,0 l/m 14,0 km/h (3 Bft) W 269 0 min 0,000 mm 0,0 UV-I 0 W/m 7,2 C 4,5 C 22,5 km/h (4 Bft) 100,00 %
04.05.2016 03:51 9,1 C 88 % 1019,8 hPa 0,0 l/m 16,3 km/h (3 Bft) SW 232 0 min 0,000 mm 0,0 UV-I 0 W/m 7,2 C 3,5 C 24,1 km/h (4 Bft) 96,30 %
04.05.2016 03:52 9,1 C 87 % 1019,8 hPa 0,0 l/m 11,9 km/h (2 Bft) W 271 0 min 0,000 mm 0,0 UV-I 0 W/m 7,1 C 5,5 C 16,1 km/h (3 Bft) 100,00 %
04.05.2016 03:53 9,1 C 88 % 1019,8 hPa 0,0 l/m 13,7 km/h (3 Bft) NW 304 0 min 0,000 mm 0,0 UV-I 0 W/m 7,2 C 4,6 C 17,7 km/h (3 Bft) 100,00 %
04.05.2016 03:54 9,0 C 88 % 1019,8 hPa 0,0 l/m 17,5 km/h (3 Bft) W-SW 257 0 min 0,000 mm 0,0 UV-I 0 W/m 7,1 C 2,9 C 25,7 km/h (4 Bft) 100,00 %
04.05.2016 03:55 9,0 C 87 % 1019,9 hPa 0,0 l/m 14,4 km/h (3 Bft) W-NW 287 0 min 0,000 mm 0,0 UV-I 0 W/m 7,0 C 4,2 C 24,1 km/h (4 Bft) 100,00 %
04.05.2016 03:56 9,0 C 87 % 1019,9 hPa 0,0 l/m 16,2 km/h (3 Bft) W 261 0 min 0,000 mm 0,0 UV-I 0 W/m 7,0 C 3,4 C 22,5 km/h (4 Bft) 100,00 %
04.05.2016 03:57 9,0 C 87 % 1019,9 hPa 0,0 l/m 15,3 km/h (3 Bft) W 262 0 min 0,000 mm 0,0 UV-I 0 W/m 7,0 C 3,8 C 19,3 km/h (3 Bft) 100,00 %
04.05.2016 03:58 9,0 C 88 % 1019,9 hPa 0,0 l/m 12,4 km/h (3 Bft) W-SW 238 0 min 0,000 mm 0,0 UV-I 0 W/m 7,1 C 5,2 C 14,5 km/h (3 Bft) 100,00 %
04.05.2016 03:59 9,0 C 88 % 1019,9 hPa 0,0 l/m 12,5 km/h (3 Bft) W-NW 297 0 min 0,000 mm 0,0 UV-I 0 W/m 7,1 C 5,1 C 17,7 km/h (3 Bft) 100,00 %
04.05.2016 04:00 9,0 C 87 % 1019,9 hPa 0,0 l/m 11,6 km/h (2 Bft) W-SW 250 0 min 0,026 mm 0,0 UV-I 0 W/m 7,0 C 5,6 C 14,5 km/h (3 Bft) 100,00 %
04.05.2016 04:03 9,0 C 87 % 1020,0 hPa 0,0 l/m 15,5 km/h (3 Bft) W 270 0 min 0,000 mm 0,0 UV-I 0 W/m 7,0 C 3,7 C 16,1 km/h (3 Bft) 87,50 %
04.05.2016 04:04 8,9 C 87 % 1020,0 hPa 0,0 l/m 11,9 km/h (2 Bft) SW 232 0 min 0,000 mm 0,0 UV-I 0 W/m 6,9 C 5,3 C 16,1 km/h (3 Bft) 100,00 %
04.05.2016 04:05 9,0 C 87 % 1019,9 hPa 0,0 l/m 12,5 km/h (3 Bft) W-SW 253 0 min 0,000 mm 0,0 UV-I 0 W/m 7,0 C 5,1 C 16,1 km/h (3 Bft) 92,86 %
04.05.2016 04:06 8,9 C 87 % 1020,0 hPa 0,0 l/m 16,2 km/h (3 Bft) W-SW 255 0 min 0,000 mm 0,0 UV-I 0 W/m 6,9 C 3,3 C 27,4 km/h (4 Bft) 100,00 %
04.05.2016 04:07 9,0 C 87 % 1019,9 hPa 0,0 l/m 14,3 km/h (3 Bft) W-SW 248 0 min 0,000 mm 0,0 UV-I 0 W/m 7,0 C 4,2 C 22,5 km/h (4 Bft) 100,00 %
04.05.2016 04:08 8,9 C 87 % 1019,9 hPa 0,0 l/m 16,3 km/h (3 Bft) W-SW 251 0 min 0,000 mm 0,0 UV-I 0 W/m 6,9 C 3,2 C 20,9 km/h (4 Bft) 100,00 %
04.05.2016 04:09 8,9 C 87 % 1020,0 hPa 0,0 l/m 12,8 km/h (3 Bft) W-SW 254 0 min 0,000 mm 0,0 UV-I 0 W/m 6,9 C 4,8 C 17,7 km/h (3 Bft) 100,00 %
04.05.2016 04:10 8,9 C 87 % 1020,0 hPa 0,0 l/m 18,3 km/h (3 Bft) W-SW 256 0 min 0,000 mm 0,0 UV-I 0 W/m 6,9 C 2,5 C 27,4 km/h (4 Bft) 93,94 %
04.05.2016 04:11 8,9 C 87 % 1019,9 hPa 0,0 l/m 16,7 km/h (3 Bft) W 263 0 min 0,000 mm 0,0 UV-I 0 W/m 6,9 C 3,1 C 24,1 km/h (4 Bft) 100,00 %
04.05.2016 04:12 8,9 C 87 % 1019,9 hPa 0,0 l/m 16,2 km/h (3 Bft) W-SW 247 0 min 0,000 mm 0,0 UV-I 0 W/m 6,9 C 3,3 C 20,9 km/h (4 Bft) 100,00 %
04.05.2016 04:13 8,9 C 87 % 1019,9 hPa 0,0 l/m 13,3 km/h (3 Bft) W-SW 246 0 min 0,000 mm 0,0 UV-I 0 W/m 6,9 C 4,6 C 19,3 km/h (3 Bft) 100,00 %
04.05.2016 04:14 8,9 C 87 % 1019,9 hPa 0,0 l/m 14,2 km/h (3 Bft) W-NW 282 0 min 0,000 mm 0,0 UV-I 0 W/m 6,9 C 4,2 C 19,3 km/h (3 Bft) 100,00 %
04.05.2016 04:15 8,9 C 87 % 1020,0 hPa 0,0 l/m 15,8 km/h (3 Bft) SW 235 0 min 0,000 mm 0,0 UV-I 0 W/m 6,9 C 3,5 C 22,5 km/h (4 Bft) 100,00 %
04.05.2016 04:16 8,9 C 87 % 1020,0 hPa 0,0 l/m 17,6 km/h (3 Bft) W-NW 289 0 min 0,000 mm 0,0 UV-I 0 W/m 6,9 C 2,7 C 29,0 km/h (5 Bft) 100,00 %
04.05.2016 04:17 8,9 C 87 % 1020,0 hPa 0,0 l/m 17,9 km/h (3 Bft) W 271 0 min 0,000 mm 0,0 UV-I 0 W/m 6,9 C 2,6 C 30,6 km/h (5 Bft) 100,00 %
04.05.2016 04:18 8,9 C 87 % 1020,0 hPa 0,0 l/m 15,7 km/h (3 Bft) W-SW 256 0 min 0,000 mm 0,0 UV-I 0 W/m 6,9 C 3,5 C 20,9 km/h (4 Bft) 100,00 %
04.05.2016 04:19 8,9 C 86 % 1020,0 hPa 0,0 l/m 18,1 km/h (3 Bft) S-SW 209 0 min 0,000 mm 0,0 UV-I 0 W/m 6,7 C 2,5 C 25,7 km/h (4 Bft) 100,00 %
04.05.2016 04:20 8,9 C 87 % 1020,0 hPa 0,0 l/m 17,9 km/h (3 Bft) SW 234 0 min 0,000 mm 0,0 UV-I 0 W/m 6,9 C 2,6 C 25,7 km/h (4 Bft) 100,00 %
04.05.2016 04:21 8,9 C 87 % 1020,0 hPa 0,0 l/m 17,1 km/h (3 Bft) W-SW 254 0 min 0,000 mm 0,0 UV-I 0 W/m 6,9 C 2,9 C 30,6 km/h (5 Bft) 100,00 %
04.05.2016 04:22 8,8 C 87 % 1020,0 hPa 0,0 l/m 21,2 km/h (4 Bft) W 277 0 min 0,000 mm 0,0 UV-I 0 W/m 6,8 C 1,3 C 29,0 km/h (5 Bft) 96,15 %
04.05.2016 04:23 8,8 C 86 % 1020,1 hPa 0,0 l/m 16,3 km/h (3 Bft) W 264 0 min 0,000 mm 0,0 UV-I 0 W/m 6,6 C 3,1 C 22,5 km/h (4 Bft) 100,00 %
04.05.2016 04:24 8,8 C 87 % 1020,1 hPa 0,0 l/m 12,1 km/h (2 Bft) W-NW 302 0 min 0,000 mm 0,0 UV-I 0 W/m 6,8 C 5,1 C 16,1 km/h (3 Bft) 100,00 %
04.05.2016 04:25 8,8 C 87 % 1020,1 hPa 0,0 l/m 15,8 km/h (3 Bft) SW 226 0 min 0,000 mm 0,0 UV-I 0 W/m 6,8 C 3,3 C 24,1 km/h (4 Bft) 100,00 %
04.05.2016 04:26 8,8 C 87 % 1020,1 hPa 0,0 l/m 14,0 km/h (3 Bft) W-SW 250 0 min 0,000 mm 0,0 UV-I 0 W/m 6,8 C 4,1 C 17,7 km/h (3 Bft) 100,00 %
04.05.2016 04:27 8,8 C 87 % 1020,1 hPa 0,0 l/m 17,7 km/h (3 Bft) N-NW 342 0 min 0,000 mm 0,0 UV-I 0 W/m 6,8 C 2,6 C 22,5 km/h (4 Bft) 100,00 %
04.05.2016 04:28 8,8 C 87 % 1020,0 hPa 0,0 l/m 14,1 km/h (3 Bft) W-SW 256 0 min 0,000 mm 0,0 UV-I 0 W/m 6,8 C 4,1 C 17,7 km/h (3 Bft) 100,00 %
04.05.2016 04:29 8,8 C 87 % 1020,1 hPa 0,0 l/m 12,0 km/h (2 Bft) W-NW 283 0 min 0,000 mm 0,0 UV-I 0 W/m 6,8 C 5,1 C 25,7 km/h (4 Bft) 100,00 %
04.05.2016 04:30 8,8 C 87 % 1020,1 hPa 0,0 l/m 15,1 km/h (3 Bft) W-SW 249 0 min 0,000 mm 0,0 UV-I 0 W/m 6,8 C 3,6 C 24,1 km/h (4 Bft) 100,00 %
04.05.2016 04:31 8,8 C 87 % 1020,1 hPa 0,0 l/m 17,0 km/h (3 Bft) W-SW 239 0 min 0,000 mm 0,0 UV-I 0 W/m 6,8 C 2,8 C 27,4 km/h (4 Bft) 100,00 %
04.05.2016 04:32 8,8 C 87 % 1020,1 hPa 0,0 l/m 17,0 km/h (3 Bft) W-NW 300 0 min 0,000 mm 0,0 UV-I 0 W/m 6,8 C 2,8 C 32,2 km/h (5 Bft) 100,00 %
04.05.2016 04:33 8,8 C 87 % 1020,2 hPa 0,0 l/m 17,9 km/h (3 Bft) W 273 0 min 0,000 mm 0,0 UV-I 0 W/m 6,8 C 2,5 C 27,4 km/h (4 Bft) 100,00 %
04.05.2016 04:34 8,8 C 87 % 1020,2 hPa 0,0 l/m 17,7 km/h (3 Bft) W-SW 245 0 min 0,000 mm 0,0 UV-I 0 W/m 6,8 C 2,6 C 24,1 km/h (4 Bft) 100,00 %
04.05.2016 04:35 8,8 C 87 % 1020,2 hPa 0,0 l/m 16,4 km/h (3 Bft) W-NW 291 0 min 0,000 mm 0,0 UV-I 0 W/m 6,8 C 3,1 C 24,1 km/h (4 Bft) 96,15 %
04.05.2016 04:36 8,8 C 87 % 1020,2 hPa 0,0 l/m 17,6 km/h (3 Bft) W 268 0 min 0,000 mm 0,0 UV-I 0 W/m 6,8 C 2,6 C 27,4 km/h (4 Bft) 100,00 %
04.05.2016 04:37 8,8 C 86 % 1020,2 hPa 0,0 l/m 15,1 km/h (3 Bft) W 271 0 min 0,000 mm 0,0 UV-I 0 W/m 6,6 C 3,6 C 25,7 km/h (4 Bft) 100,00 %
04.05.2016 04:38 8,8 C 86 % 1020,3 hPa 0,0 l/m 15,4 km/h (3 Bft) W-SW 248 0 min 0,000 mm 0,0 UV-I 0 W/m 6,6 C 3,5 C 19,3 km/h (3 Bft) 96,97 %
04.05.2016 04:39 8,8 C 86 % 1020,3 hPa 0,0 l/m 19,4 km/h (3 Bft) W 269 0 min 0,000 mm 0,0 UV-I 0 W/m 6,6 C 1,9 C 25,7 km/h (4 Bft) 100,00 %
04.05.2016 04:40 8,7 C 86 % 1020,2 hPa 0,0 l/m 14,5 km/h (3 Bft) W-SW 244 0 min 0,000 mm 0,0 UV-I 0 W/m 6,5 C 3,8 C 19,3 km/h (3 Bft) 100,00 %
04.05.2016 04:41 8,7 C 86 % 1020,2 hPa 0,0 l/m 16,2 km/h (3 Bft) W-SW 255 0 min 0,000 mm 0,0 UV-I 0 W/m 6,5 C 3,0 C 29,0 km/h (5 Bft) 100,00 %
04.05.2016 04:42 8,7 C 86 % 1020,3 hPa 0,0 l/m 14,9 km/h (3 Bft) W-SW 255 0 min 0,000 mm 0,0 UV-I 0 W/m 6,5 C 3,6 C 22,5 km/h (4 Bft) 100,00 %
04.05.2016 04:43 8,7 C 86 % 1020,3 hPa 0,0 l/m 14,6 km/h (3 Bft) W 273 0 min 0,000 mm 0,0 UV-I 0 W/m 6,5 C 3,7 C 17,7 km/h (3 Bft) 100,00 %
04.05.2016 04:44 8,7 C 87 % 1020,3 hPa 0,0 l/m 13,9 km/h (3 Bft) W 263 0 min 0,000 mm 0,0 UV-I 0 W/m 6,7 C 4,1 C 19,3 km/h (3 Bft) 100,00 %
04.05.2016 04:45 8,7 C 87 % 1020,3 hPa 0,0 l/m 16,0 km/h (3 Bft) W-SW 250 0 min 0,000 mm 0,0 UV-I 0 W/m 6,7 C 3,1 C 20,9 km/h (4 Bft) 100,00 %
04.05.2016 04:46 8,7 C 87 % 1020,3 hPa 0,0 l/m 13,8 km/h (3 Bft) SW 236 0 min 0,000 mm 0,0 UV-I 0 W/m 6,7 C 4,1 C 20,9 km/h (4 Bft) 100,00 %
04.05.2016 04:47 8,7 C 87 % 1020,3 hPa 0,0 l/m 16,8 km/h (3 Bft) W 261 0 min 0,000 mm 0,0 UV-I 0 W/m 6,7 C 2,8 C 20,9 km/h (4 Bft) 94,12 %
04.05.2016 04:48 8,7 C 87 % 1020,4 hPa 0,0 l/m 14,1 km/h (3 Bft) W-SW 250 0 min 0,000 mm 0,0 UV-I 0 W/m 6,7 C 4,0 C 19,3 km/h (3 Bft) 96,67 %
04.05.2016 04:49 8,7 C 87 % 1020,4 hPa 0,0 l/m 16,1 km/h (3 Bft) W-SW 246 0 min 0,000 mm 0,0 UV-I 0 W/m 6,7 C 3,1 C 22,5 km/h (4 Bft) 99,15 %
04.05.2016 04:50 8,7 C 87 % 1020,4 hPa 0,0 l/m 14,6 km/h (3 Bft) W-SW 243 0 min 0,000 mm 0,0 UV-I 0 W/m 6,7 C 3,7 C 20,9 km/h (4 Bft) 97,56 %
04.05.2016 04:51 8,7 C 87 % 1020,4 hPa 0,0 l/m 10,6 km/h (2 Bft) W-SW 250 0 min 0,000 mm 0,0 UV-I 0 W/m 6,7 C 5,8 C 12,9 km/h (3 Bft) 95,65 %
04.05.2016 04:52 8,7 C 87 % 1020,4 hPa 0,0 l/m 14,5 km/h (3 Bft) W-SW 252 0 min 0,000 mm 0,0 UV-I 0 W/m 6,7 C 3,8 C 19,3 km/h (3 Bft) 100,00 %
04.05.2016 04:53 8,7 C 87 % 1020,4 hPa 0,0 l/m 14,5 km/h (3 Bft) W-SW 253 0 min 0,000 mm 0,0 UV-I 0 W/m 6,7 C 3,8 C 19,3 km/h (3 Bft) 94,12 %
04.05.2016 04:54 8,6 C 87 % 1020,4 hPa 0,0 l/m 15,7 km/h (3 Bft) W-SW 247 0 min 0,000 mm 0,0 UV-I 0 W/m 6,6 C 3,1 C 22,5 km/h (4 Bft) 100,00 %
04.05.2016 04:55 8,7 C 87 % 1020,5 hPa 0,0 l/m 17,7 km/h (3 Bft) W-SW 255 0 min 0,000 mm 0,0 UV-I 0 W/m 6,7 C 2,4 C 20,9 km/h (4 Bft) 96,15 %
04.05.2016 04:56 8,6 C 87 % 1020,4 hPa 0,0 l/m 19,6 km/h (3 Bft) W-SW 245 0 min 0,000 mm 0,0 UV-I 0 W/m 6,6 C 1,6 C 29,0 km/h (5 Bft) 96,30 %
04.05.2016 04:57 8,6 C 87 % 1020,5 hPa 0,0 l/m 14,0 km/h (3 Bft) SW 236 0 min 0,000 mm 0,0 UV-I 0 W/m 6,6 C 3,9 C 16,1 km/h (3 Bft) 100,00 %
04.05.2016 04:58 8,6 C 87 % 1020,5 hPa 0,0 l/m 13,3 km/h (3 Bft) W-SW 248 0 min 0,000 mm 0,0 UV-I 0 W/m 6,6 C 4,2 C 17,7 km/h (3 Bft) 95,83 %
04.05.2016 04:59 8,6 C 87 % 1020,5 hPa 0,0 l/m 12,2 km/h (2 Bft) SW 230 0 min 0,000 mm 0,0 UV-I 0 W/m 6,6 C 4,8 C 17,7 km/h (3 Bft) 100,00 %
04.05.2016 05:00 8,6 C 87 % 1020,5 hPa 0,0 l/m 18,7 km/h (3 Bft) W 267 0 min 0,025 mm 0,0 UV-I 0 W/m 6,6 C 1,9 C 29,0 km/h (5 Bft) 96,15 %
04.05.2016 05:01 8,6 C 87 % 1020,6 hPa 0,0 l/m 17,1 km/h (3 Bft) W-SW 256 0 min 0,000 mm 0,0 UV-I 0 W/m 6,6 C 2,6 C 24,1 km/h (4 Bft) 100,00 %
04.05.2016 05:02 8,6 C 87 % 1020,6 hPa 0,0 l/m 14,4 km/h (3 Bft) W 262 0 min 0,000 mm 0,0 UV-I 0 W/m 6,6 C 3,7 C 17,7 km/h (3 Bft) 92,86 %
04.05.2016 05:03 8,6 C 87 % 1020,6 hPa 0,0 l/m 11,2 km/h (2 Bft) W 261 0 min 0,000 mm 0,0 UV-I 0 W/m 6,6 C 5,3 C 17,7 km/h (3 Bft) 100,00 %
04.05.2016 05:04 8,6 C 87 % 1020,6 hPa 0,0 l/m 15,2 km/h (3 Bft) W 276 0 min 0,000 mm 0,0 UV-I 0 W/m 6,6 C 3,3 C 29,0 km/h (5 Bft) 95,65 %
04.05.2016 05:05 8,6 C 87 % 1020,5 hPa 0,0 l/m 15,4 km/h (3 Bft) W-SW 255 0 min 0,000 mm 0,0 UV-I 0 W/m 6,6 C 3,3 C 22,5 km/h (4 Bft) 92,59 %
04.05.2016 05:06 8,6 C 87 % 1020,6 hPa 0,0 l/m 16,4 km/h (3 Bft) W-SW 257 0 min 0,000 mm 0,0 UV-I 0 W/m 6,6 C 2,8 C 27,4 km/h (4 Bft) 100,00 %
04.05.2016 05:07 8,6 C 87 % 1020,6 hPa 0,0 l/m 15,1 km/h (3 Bft) SW 236 0 min 0,000 mm 0,0 UV-I 0 W/m 6,6 C 3,4 C 19,3 km/h (3 Bft) 96,55 %
04.05.2016 05:08 8,6 C 87 % 1020,7 hPa 0,0 l/m 18,4 km/h (3 Bft) W 259 0 min 0,000 mm 0,0 UV-I 0 W/m 6,6 C 2,1 C 24,1 km/h (4 Bft) 100,00 %
04.05.2016 05:09 8,6 C 87 % 1020,6 hPa 0,0 l/m 17,9 km/h (3 Bft) W-SW 252 0 min 0,000 mm 0,0 UV-I 0 W/m 6,6 C 2,2 C 27,4 km/h (4 Bft) 91,67 %
04.05.2016 05:10 8,6 C 87 % 1020,7 hPa 0,0 l/m 12,8 km/h (3 Bft) W-SW 238 0 min 0,000 mm 0,0 UV-I 0 W/m 6,6 C 4,5 C 17,7 km/h (3 Bft) 100,00 %
04.05.2016 05:11 8,6 C 87 % 1020,7 hPa 0,0 l/m 14,9 km/h (3 Bft) W 273 0 min 0,000 mm 0,0 UV-I 0 W/m 6,6 C 3,5 C 20,9 km/h (4 Bft) 96,67 %
04.05.2016 05:12 8,5 C 87 % 1020,7 hPa 0,0 l/m 13,0 km/h (3 Bft) W-SW 243 0 min 0,000 mm 0,0 UV-I 0 W/m 6,5 C 4,3 C 20,9 km/h (4 Bft) 100,00 %
04.05.2016 05:13 8,5 C 87 % 1020,7 hPa 0,0 l/m 12,0 km/h (2 Bft) W 270 0 min 0,000 mm 0,0 UV-I 0 W/m 6,5 C 4,8 C 20,9 km/h (4 Bft) 93,10 %
04.05.2016 05:14 8,5 C 87 % 1020,6 hPa 0,0 l/m 13,0 km/h (3 Bft) W-SW 245 0 min 0,000 mm 0,0 UV-I 0 W/m 6,5 C 4,3 C 24,1 km/h (4 Bft) 96,15 %
04.05.2016 05:15 8,5 C 87 % 1020,6 hPa 0,0 l/m 13,6 km/h (3 Bft) W-SW 243 0 min 0,000 mm 0,0 UV-I 0 W/m 6,5 C 4,0 C 20,9 km/h (4 Bft) 100,00 %
04.05.2016 05:16 8,5 C 87 % 1020,7 hPa 0,0 l/m 13,9 km/h (3 Bft) W-NW 286 0 min 0,000 mm 0,0 UV-I 0 W/m 6,5 C 3,8 C 22,5 km/h (4 Bft) 86,67 %
04.05.2016 05:17 8,5 C 87 % 1020,7 hPa 0,0 l/m 12,2 km/h (2 Bft) W-SW 239 0 min 0,000 mm 0,0 UV-I 0 W/m 6,5 C 4,7 C 17,7 km/h (3 Bft) 100,00 %
04.05.2016 05:18 8,5 C 87 % 1020,7 hPa 0,0 l/m 11,6 km/h (2 Bft) SW 226 0 min 0,000 mm 0,0 UV-I 0 W/m 6,5 C 5,0 C 19,3 km/h (3 Bft) 95,83 %
04.05.2016 05:19 8,4 C 87 % 1020,7 hPa 0,0 l/m 15,0 km/h (3 Bft) NW 315 0 min 0,000 mm 0,0 UV-I 0 W/m 6,4 C 3,2 C 20,9 km/h (4 Bft) 100,00 %
04.05.2016 05:20 8,4 C 87 % 1020,7 hPa 0,0 l/m 11,6 km/h (2 Bft) W-NW 294 0 min 0,000 mm 0,0 UV-I 0 W/m 6,4 C 4,9 C 16,1 km/h (3 Bft) 96,15 %
04.05.2016 05:21 8,4 C 87 % 1020,7 hPa 0,0 l/m 12,8 km/h (3 Bft) W 277 0 min 0,000 mm 0,0 UV-I 0 W/m 6,4 C 4,3 C 17,7 km/h (3 Bft) 100,00 %
04.05.2016 05:22 8,4 C 87 % 1020,7 hPa 0,0 l/m 16,3 km/h (3 Bft) W-SW 257 0 min 0,000 mm 0,0 UV-I 0 W/m 6,4 C 2,6 C 22,5 km/h (4 Bft) 100,00 %
04.05.2016 05:23 8,4 C 87 % 1020,7 hPa 0,0 l/m 14,2 km/h (3 Bft) W 265 0 min 0,000 mm 0,0 UV-I 0 W/m 6,4 C 3,6 C 20,9 km/h (4 Bft) 96,15 %
04.05.2016 05:24 8,4 C 87 % 1020,7 hPa 0,0 l/m 15,4 km/h (3 Bft) W 280 0 min 0,000 mm 0,0 UV-I 0 W/m 6,4 C 3,0 C 25,7 km/h (4 Bft) 100,00 %
04.05.2016 05:25 8,4 C 87 % 1020,7 hPa 0,0 l/m 16,5 km/h (3 Bft) W 264 0 min 0,000 mm 0,0 UV-I 0 W/m 6,4 C 2,5 C 20,9 km/h (4 Bft) 100,00 %
04.05.2016 05:26 8,4 C 87 % 1020,7 hPa 0,0 l/m 16,8 km/h (3 Bft) W 264 0 min 0,000 mm 0,0 UV-I 0 W/m 6,4 C 2,4 C 27,4 km/h (4 Bft) 100,00 %
04.05.2016 05:27 8,4 C 87 % 1020,7 hPa 0,0 l/m 24,0 km/h (4 Bft) W 280 0 min 0,000 mm 0,0 UV-I 0 W/m 6,4 C -0,1 C 40,2 km/h (6 Bft) 100,00 %
04.05.2016 05:28 8,4 C 87 % 1020,8 hPa 0,0 l/m 19,7 km/h (3 Bft) W 273 0 min 0,000 mm 0,0 UV-I 0 W/m 6,4 C 1,3 C 29,0 km/h (5 Bft) 100,00 %
04.05.2016 05:29 8,3 C 87 % 1020,8 hPa 0,0 l/m 18,9 km/h (3 Bft) W 275 0 min 0,000 mm 0,0 UV-I 0 W/m 6,3 C 1,5 C 30,6 km/h (5 Bft) 100,00 %
04.05.2016 05:30 8,3 C 87 % 1020,8 hPa 0,0 l/m 16,9 km/h (3 Bft) W 267 0 min 0,000 mm 0,0 UV-I 0 W/m 6,3 C 2,3 C 22,5 km/h (4 Bft) 100,00 %
04.05.2016 05:31 8,3 C 87 % 1020,9 hPa 0,0 l/m 13,3 km/h (3 Bft) W 268 0 min 0,000 mm 0,0 UV-I 0 W/m 6,3 C 3,9 C 19,3 km/h (3 Bft) 100,00 %
04.05.2016 05:32 8,3 C 87 % 1020,8 hPa 0,0 l/m 17,7 km/h (3 Bft) W 270 0 min 0,000 mm 0,0 UV-I 0 W/m 6,3 C 1,9 C 27,4 km/h (4 Bft) 95,83 %
04.05.2016 05:33 8,3 C 87 % 1020,9 hPa 0,0 l/m 18,6 km/h (3 Bft) W-SW 252 0 min 0,000 mm 0,0 UV-I 0 W/m 6,3 C 1,6 C 25,7 km/h (4 Bft) 100,00 %
04.05.2016 05:34 8,3 C 87 % 1020,9 hPa 0,0 l/m 12,8 km/h (3 Bft) W 278 0 min 0,000 mm 0,0 UV-I 0 W/m 6,3 C 4,1 C 25,7 km/h (4 Bft) 100,00 %
04.05.2016 05:35 8,3 C 87 % 1020,9 hPa 0,0 l/m 16,8 km/h (3 Bft) W 268 0 min 0,000 mm 0,0 UV-I 0 W/m 6,3 C 2,3 C 27,4 km/h (4 Bft) 100,00 %
04.05.2016 05:36 8,3 C 87 % 1020,9 hPa 0,0 l/m 18,5 km/h (3 Bft) W 260 0 min 0,000 mm 0,0 UV-I 0 W/m 6,3 C 1,6 C 24,1 km/h (4 Bft) 100,00 %
04.05.2016 05:37 8,3 C 87 % 1020,9 hPa 0,0 l/m 14,8 km/h (3 Bft) SW 225 0 min 0,000 mm 0,0 UV-I 0 W/m 6,3 C 3,2 C 20,9 km/h (4 Bft) 100,00 %
04.05.2016 05:38 8,3 C 87 % 1021,0 hPa 0,0 l/m 15,4 km/h (3 Bft) W-NW 287 0 min 0,000 mm 0,0 UV-I 0 W/m 6,3 C 2,9 C 20,9 km/h (4 Bft) 96,15 %
04.05.2016 05:39 8,3 C 87 % 1021,0 hPa 0,0 l/m 16,0 km/h (3 Bft) W-SW 257 0 min 0,000 mm 0,0 UV-I 0 W/m 6,3 C 2,6 C 22,5 km/h (4 Bft) 100,00 %
04.05.2016 05:40 8,2 C 87 % 1021,0 hPa 0,0 l/m 14,8 km/h (3 Bft) W-NW 283 0 min 0,000 mm 0,0 UV-I 0 W/m 6,2 C 3,0 C 19,3 km/h (3 Bft) 100,00 %
04.05.2016 05:41 8,2 C 87 % 1021,0 hPa 0,0 l/m 17,1 km/h (3 Bft) W-NW 284 0 min 0,000 mm 0,0 UV-I 0 W/m 6,2 C 2,1 C 27,4 km/h (4 Bft) 100,00 %
04.05.2016 05:42 8,2 C 87 % 1020,9 hPa 0,0 l/m 20,7 km/h (4 Bft) S-SW 205 0 min 0,000 mm 0,0 UV-I 0 W/m 6,2 C 0,7 C 32,2 km/h (5 Bft) 100,00 %
04.05.2016 05:43 8,2 C 87 % 1021,0 hPa 0,0 l/m 18,4 km/h (3 Bft) W-SW 251 0 min 0,000 mm 0,0 UV-I 0 W/m 6,2 C 1,5 C 27,4 km/h (4 Bft) 95,83 %
04.05.2016 05:44 8,2 C 87 % 1021,1 hPa 0,0 l/m 13,1 km/h (3 Bft) W-NW 284 0 min 0,000 mm 0,0 UV-I 0 W/m 6,2 C 3,9 C 17,7 km/h (3 Bft) 95,65 %
04.05.2016 05:45 8,2 C 87 % 1021,1 hPa 0,0 l/m 14,3 km/h (3 Bft) W 273 0 min 0,000 mm 0,0 UV-I 0 W/m 6,2 C 3,3 C 22,5 km/h (4 Bft) 100,00 %
04.05.2016 05:46 8,2 C 87 % 1021,0 hPa 0,0 l/m 14,9 km/h (3 Bft) W-SW 244 0 min 0,000 mm 0,0 UV-I 0 W/m 6,2 C 3,0 C 20,9 km/h (4 Bft) 100,00 %
04.05.2016 05:47 8,1 C 87 % 1021,0 hPa 0,0 l/m 11,3 km/h (2 Bft) W-SW 246 0 min 0,000 mm 0,0 UV-I 0 W/m 6,1 C 4,7 C 16,1 km/h (3 Bft) 100,00 %
04.05.2016 05:48 8,1 C 87 % 1021,1 hPa 0,0 l/m 16,6 km/h (3 Bft) W-SW 252 0 min 0,000 mm 0,0 UV-I 0 W/m 6,1 C 2,1 C 24,1 km/h (4 Bft) 100,00 %
04.05.2016 05:49 8,1 C 87 % 1021,1 hPa 0,0 l/m 17,4 km/h (3 Bft) W-SW 252 0 min 0,000 mm 0,0 UV-I 0 W/m 6,1 C 1,8 C 27,4 km/h (4 Bft) 100,00 %
04.05.2016 05:50 8,1 C 87 % 1021,1 hPa 0,0 l/m 16,0 km/h (3 Bft) W-SW 251 0 min 0,000 mm 0,0 UV-I 0 W/m 6,1 C 2,4 C 20,9 km/h (4 Bft) 100,00 %
04.05.2016 05:51 8,1 C 87 % 1021,1 hPa 0,0 l/m 14,9 km/h (3 Bft) W-SW 256 0 min 0,000 mm 0,0 UV-I 0 W/m 6,1 C 2,9 C 17,7 km/h (3 Bft) 98,61 %
04.05.2016 05:52 8,1 C 87 % 1021,1 hPa 0,0 l/m 22,2 km/h (4 Bft) W 272 0 min 0,000 mm 0,0 UV-I 0 W/m 6,1 C 0,1 C 29,0 km/h (5 Bft) 97,37 %
04.05.2016 05:53 8,1 C 87 % 1021,2 hPa 0,0 l/m 16,6 km/h (3 Bft) W-SW 252 0 min 0,000 mm 0,0 UV-I 0 W/m 6,1 C 2,1 C 20,9 km/h (4 Bft) 100,00 %
04.05.2016 05:54 8,0 C 87 % 1021,2 hPa 0,0 l/m 19,2 km/h (3 Bft) W-NW 282 0 min 0,000 mm 0,0 UV-I 0 W/m 6,0 C 1,0 C 24,1 km/h (4 Bft) 100,00 %
04.05.2016 05:55 8,1 C 87 % 1021,2 hPa 0,0 l/m 15,9 km/h (3 Bft) W 261 0 min 0,000 mm 0,0 UV-I 0 W/m 6,1 C 2,4 C 20,9 km/h (4 Bft) 100,00 %
04.05.2016 05:56 8,0 C 87 % 1021,2 hPa 0,0 l/m 13,9 km/h (3 Bft) W-SW 240 0 min 0,000 mm 0,0 UV-I 0 W/m 6,0 C 3,2 C 17,7 km/h (3 Bft) 95,65 %
04.05.2016 05:57 8,0 C 88 % 1021,2 hPa 0,0 l/m 12,0 km/h (2 Bft) W-SW 255 0 min 0,000 mm 0,0 UV-I 0 W/m 6,1 C 4,2 C 19,3 km/h (3 Bft) 100,00 %
04.05.2016 05:58 8,0 C 88 % 1021,2 hPa 0,0 l/m 10,1 km/h (2 Bft) W-SW 237 0 min 0,000 mm 0,0 UV-I 0 W/m 6,1 C 5,3 C 14,5 km/h (3 Bft) 100,00 %
04.05.2016 05:59 8,0 C 88 % 1021,2 hPa 0,0 l/m 16,8 km/h (3 Bft) W 261 0 min 0,000 mm 0,0 UV-I 0 W/m 6,1 C 1,9 C 24,1 km/h (4 Bft) 100,00 %
04.05.2016 06:00 8,0 C 88 % 1021,2 hPa 0,0 l/m 15,8 km/h (3 Bft) W 273 0 min 0,025 mm 0,0 UV-I 0 W/m 6,1 C 2,4 C 22,5 km/h (4 Bft) 100,00 %
04.05.2016 06:01 8,0 C 88 % 1021,3 hPa 0,0 l/m 11,8 km/h (2 Bft) W-NW 284 0 min 0,000 mm 0,0 UV-I 0 W/m 6,1 C 4,3 C 17,7 km/h (3 Bft) 100,00 %
04.05.2016 06:02 7,9 C 88 % 1021,3 hPa 0,0 l/m 12,7 km/h (3 Bft) W 267 0 min 0,000 mm 0,0 UV-I 0 W/m 6,0 C 3,7 C 17,7 km/h (3 Bft) 100,00 %
04.05.2016 06:03 7,9 C 88 % 1021,3 hPa 0,0 l/m 17,4 km/h (3 Bft) W-SW 250 0 min 0,000 mm 0,0 UV-I 0 W/m 6,0 C 1,6 C 24,1 km/h (4 Bft) 100,00 %
04.05.2016 06:04 7,9 C 88 % 1021,3 hPa 0,0 l/m 14,2 km/h (3 Bft) W-SW 250 0 min 0,000 mm 0,0 UV-I 0 W/m 6,0 C 3,0 C 22,5 km/h (4 Bft) 100,00 %
04.05.2016 06:05 7,9 C 88 % 1021,3 hPa 0,0 l/m 14,4 km/h (3 Bft) W-SW 254 0 min 0,000 mm 0,0 UV-I 0 W/m 6,0 C 2,9 C 19,3 km/h (3 Bft) 100,00 %
04.05.2016 06:06 7,9 C 88 % 1021,3 hPa 0,0 l/m 13,6 km/h (3 Bft) W-SW 242 0 min 0,000 mm 0,0 UV-I 2 W/m 6,0 C 3,3 C 17,7 km/h (3 Bft) 100,00 %
04.05.2016 06:07 7,9 C 88 % 1021,3 hPa 0,0 l/m 13,5 km/h (3 Bft) W 259 0 min 0,000 mm 0,0 UV-I 5 W/m 6,0 C 3,3 C 17,7 km/h (3 Bft) 100,00 %
04.05.2016 06:08 7,9 C 88 % 1021,3 hPa 0,0 l/m 17,1 km/h (3 Bft) W 270 0 min 0,000 mm 0,0 UV-I 5 W/m 6,0 C 1,7 C 24,1 km/h (4 Bft) 100,00 %
04.05.2016 06:09 7,9 C 88 % 1021,3 hPa 0,0 l/m 14,3 km/h (3 Bft) W-SW 246 0 min 0,000 mm 0,0 UV-I 5 W/m 6,0 C 2,9 C 17,7 km/h (3 Bft) 100,00 %
04.05.2016 06:10 7,9 C 88 % 1021,3 hPa 0,0 l/m 22,7 km/h (4 Bft) W 271 0 min 0,000 mm 0,0 UV-I 5 W/m 6,0 C -0,3 C 32,2 km/h (5 Bft) 95,83 %
04.05.2016 06:11 7,9 C 88 % 1021,3 hPa 0,0 l/m 18,5 km/h (3 Bft) W-SW 255 0 min 0,000 mm 0,0 UV-I 5 W/m 6,0 C 1,1 C 25,7 km/h (4 Bft) 100,00 %
04.05.2016 06:12 7,9 C 88 % 1021,3 hPa 0,0 l/m 15,8 km/h (3 Bft) W 264 0 min 0,000 mm 0,0 UV-I 5 W/m 6,0 C 2,2 C 20,9 km/h (4 Bft) 100,00 %
04.05.2016 06:13 7,8 C 88 % 1021,4 hPa 0,0 l/m 15,3 km/h (3 Bft) W 264 0 min 0,000 mm 0,0 UV-I 5 W/m 5,9 C 2,3 C 19,3 km/h (3 Bft) 100,00 %
04.05.2016 06:14 7,8 C 88 % 1021,4 hPa 0,0 l/m 15,2 km/h (3 Bft) W-SW 240 0 min 0,000 mm 0,0 UV-I 5 W/m 5,9 C 2,4 C 19,3 km/h (3 Bft) 100,00 %
04.05.2016 06:15 7,8 C 88 % 1021,4 hPa 0,0 l/m 20,2 km/h (4 Bft) W 263 0 min 0,000 mm 0,0 UV-I 5 W/m 5,9 C 0,4 C 29,0 km/h (5 Bft) 100,00 %
04.05.2016 06:16 7,8 C 88 % 1021,4 hPa 0,0 l/m 17,4 km/h (3 Bft) W 269 0 min 0,000 mm 0,0 UV-I 5 W/m 5,9 C 1,4 C 29,0 km/h (5 Bft) 100,00 %
04.05.2016 06:17 7,8 C 88 % 1021,5 hPa 0,0 l/m 12,1 km/h (2 Bft) W 273 0 min 0,000 mm 0,0 UV-I 5 W/m 5,9 C 3,9 C 16,1 km/h (3 Bft) 100,00 %
04.05.2016 06:18 7,8 C 88 % 1021,5 hPa 0,0 l/m 11,1 km/h (2 Bft) W 270 0 min 0,000 mm 0,0 UV-I 5 W/m 5,9 C 4,5 C 19,3 km/h (3 Bft) 100,00 %
04.05.2016 06:19 7,8 C 89 % 1021,4 hPa 0,0 l/m 19,6 km/h (3 Bft) W 274 0 min 0,000 mm 0,0 UV-I 5 W/m 6,1 C 0,6 C 24,1 km/h (4 Bft) 100,00 %
04.05.2016 06:20 7,8 C 89 % 1021,5 hPa 0,0 l/m 16,9 km/h (3 Bft) W-SW 248 0 min 0,000 mm 0,0 UV-I 5 W/m 6,1 C 1,6 C 22,5 km/h (4 Bft) 100,00 %
04.05.2016 06:21 7,8 C 89 % 1021,5 hPa 0,0 l/m 14,8 km/h (3 Bft) W-SW 240 0 min 0,000 mm 0,0 UV-I 5 W/m 6,1 C 2,6 C 22,5 km/h (4 Bft) 100,00 %
04.05.2016 06:22 7,8 C 89 % 1021,5 hPa 0,0 l/m 12,1 km/h (2 Bft) W 277 0 min 0,000 mm 0,0 UV-I 6 W/m 6,1 C 3,9 C 16,1 km/h (3 Bft) 100,00 %
04.05.2016 06:23 7,8 C 89 % 1021,5 hPa 0,0 l/m 18,6 km/h (3 Bft) W-SW 254 0 min 0,000 mm 0,0 UV-I 7 W/m 6,1 C 1,0 C 24,1 km/h (4 Bft) 100,00 %
04.05.2016 06:24 7,8 C 89 % 1021,6 hPa 0,0 l/m 20,2 km/h (4 Bft) W-NW 286 0 min 0,000 mm 0,0 UV-I 7 W/m 6,1 C 0,4 C 25,7 km/h (4 Bft) 94,12 %
04.05.2016 06:25 7,7 C 89 % 1021,5 hPa 0,0 l/m 18,8 km/h (3 Bft) W-SW 252 0 min 0,000 mm 0,0 UV-I 7 W/m 6,0 C 0,8 C 24,1 km/h (4 Bft) 100,00 %
04.05.2016 06:26 7,7 C 89 % 1021,5 hPa 0,0 l/m 19,2 km/h (3 Bft) W-SW 246 0 min 0,000 mm 0,0 UV-I 7 W/m 6,0 C 0,6 C 24,1 km/h (4 Bft) 100,00 %
04.05.2016 06:27 7,7 C 89 % 1021,6 hPa 0,0 l/m 15,1 km/h (3 Bft) W-NW 289 0 min 0,000 mm 0,0 UV-I 7 W/m 6,0 C 2,3 C 20,9 km/h (4 Bft) 100,00 %
04.05.2016 06:28 7,7 C 89 % 1021,6 hPa 0,0 l/m 20,0 km/h (4 Bft) W-SW 246 0 min 0,000 mm 0,0 UV-I 7 W/m 6,0 C 0,3 C 27,4 km/h (4 Bft) 100,00 %
04.05.2016 06:29 7,7 C 89 % 1021,5 hPa 0,0 l/m 22,1 km/h (4 Bft) W 263 0 min 0,000 mm 0,0 UV-I 7 W/m 6,0 C -0,4 C 32,2 km/h (5 Bft) 96,30 %
04.05.2016 06:30 7,7 C 89 % 1021,6 hPa 0,0 l/m 21,7 km/h (4 Bft) W-SW 256 0 min 0,000 mm 0,0 UV-I 7 W/m 6,0 C -0,3 C 32,2 km/h (5 Bft) 100,00 %
04.05.2016 06:31 7,7 C 89 % 1021,6 hPa 0,0 l/m 17,6 km/h (3 Bft) W-NW 294 0 min 0,000 mm 0,0 UV-I 5 W/m 6,0 C 1,2 C 25,7 km/h (4 Bft) 100,00 %
04.05.2016 06:32 7,7 C 89 % 1021,6 hPa 0,0 l/m 17,3 km/h (3 Bft) W 259 0 min 0,000 mm 0,0 UV-I 5 W/m 6,0 C 1,3 C 33,8 km/h (5 Bft) 100,00 %
04.05.2016 06:33 7,7 C 89 % 1021,6 hPa 0,0 l/m 25,5 km/h (4 Bft) SW 232 0 min 0,000 mm 0,0 UV-I 5 W/m 6,0 C -1,4 C 33,8 km/h (5 Bft) 96,30 %
04.05.2016 06:34 7,6 C 89 % 1021,7 hPa 0,0 l/m 18,3 km/h (3 Bft) W 269 0 min 0,000 mm 0,0 UV-I 5 W/m 5,9 C 0,8 C 29,0 km/h (5 Bft) 100,00 %
04.05.2016 06:35 7,6 C 89 % 1021,7 hPa 0,0 l/m 15,7 km/h (3 Bft) W-SW 240 0 min 0,000 mm 0,0 UV-I 5 W/m 5,9 C 1,9 C 25,7 km/h (4 Bft) 100,00 %
04.05.2016 06:36 7,6 C 90 % 1021,7 hPa 0,0 l/m 19,1 km/h (3 Bft) W-SW 245 0 min 0,000 mm 0,0 UV-I 5 W/m 6,1 C 0,5 C 27,4 km/h (4 Bft) 100,00 %
04.05.2016 06:37 7,6 C 90 % 1021,7 hPa 0,0 l/m 14,3 km/h (3 Bft) W-SW 252 0 min 0,000 mm 0,0 UV-I 5 W/m 6,1 C 2,6 C 25,7 km/h (4 Bft) 100,00 %
04.05.2016 06:38 7,6 C 90 % 1021,7 hPa 0,0 l/m 20,1 km/h (4 Bft) W 267 0 min 0,000 mm 0,0 UV-I 5 W/m 6,1 C 0,2 C 25,7 km/h (4 Bft) 100,00 %
04.05.2016 06:39 7,5 C 90 % 1021,7 hPa 0,0 l/m 17,0 km/h (3 Bft) W 264 0 min 0,000 mm 0,0 UV-I 5 W/m 6,0 C 1,2 C 25,7 km/h (4 Bft) 100,00 %
04.05.2016 06:40 7,5 C 90 % 1021,7 hPa 0,0 l/m 14,5 km/h (3 Bft) W-SW 254 0 min 0,000 mm 0,0 UV-I 6 W/m 6,0 C 2,3 C 22,5 km/h (4 Bft) 95,83 %
04.05.2016 06:41 7,5 C 90 % 1021,7 hPa 0,0 l/m 15,1 km/h (3 Bft) W-SW 249 0 min 0,000 mm 0,0 UV-I 7 W/m 6,0 C 2,1 C 19,3 km/h (3 Bft) 95,65 %
04.05.2016 06:42 7,4 C 91 % 1021,7 hPa 0,0 l/m 14,4 km/h (3 Bft) SW 234 0 min 0,000 mm 0,0 UV-I 7 W/m 6,0 C 2,3 C 19,3 km/h (3 Bft) 96,67 %
04.05.2016 06:43 7,4 C 91 % 1021,7 hPa 0,0 l/m 12,9 km/h (3 Bft) W-SW 238 0 min 0,000 mm 0,0 UV-I 7 W/m 6,0 C 3,0 C 17,7 km/h (3 Bft) 100,00 %
04.05.2016 06:44 7,4 C 91 % 1021,7 hPa 0,0 l/m 18,6 km/h (3 Bft) W 263 0 min 0,000 mm 0,0 UV-I 7 W/m 6,0 C 0,5 C 30,6 km/h (5 Bft) 100,00 %
04.05.2016 06:45 7,4 C 91 % 1021,7 hPa 0,0 l/m 17,7 km/h (3 Bft) W-SW 246 0 min 0,000 mm 0,0 UV-I 9 W/m 6,0 C 0,8 C 27,4 km/h (4 Bft) 100,00 %
04.05.2016 06:46 7,4 C 91 % 1021,8 hPa 0,0 l/m 18,3 km/h (3 Bft) W-SW 257 0 min 0,000 mm 0,0 UV-I 10 W/m 6,0 C 0,6 C 22,5 km/h (4 Bft) 100,00 %
04.05.2016 06:47 7,4 C 91 % 1021,8 hPa 0,2 l/m 17,6 km/h (3 Bft) W 265 0 min 0,000 mm 0,0 UV-I 11 W/m 6,0 C 0,8 C 24,1 km/h (4 Bft) 100,00 %
04.05.2016 06:48 7,3 C 91 % 1021,8 hPa 0,0 l/m 18,7 km/h (3 Bft) W 262 0 min 0,000 mm 0,0 UV-I 11 W/m 5,9 C 0,3 C 29,0 km/h (5 Bft) 97,56 %
04.05.2016 06:49 7,3 C 91 % 1021,8 hPa 0,0 l/m 20,5 km/h (4 Bft) W-SW 253 0 min 0,000 mm 0,0 UV-I 11 W/m 5,9 C -0,4 C 29,0 km/h (5 Bft) 96,15 %
04.05.2016 06:50 7,3 C 91 % 1021,8 hPa 0,0 l/m 19,2 km/h (3 Bft) SW 235 0 min 0,000 mm 0,0 UV-I 11 W/m 5,9 C 0,1 C 30,6 km/h (5 Bft) 100,00 %
04.05.2016 06:51 7,3 C 91 % 1021,8 hPa 0,0 l/m 14,6 km/h (3 Bft) W 263 0 min 0,000 mm 0,0 UV-I 10 W/m 5,9 C 2,1 C 20,9 km/h (4 Bft) 96,88 %
04.05.2016 06:52 7,3 C 91 % 1021,9 hPa 0,0 l/m 12,3 km/h (3 Bft) W-SW 247 0 min 0,000 mm 0,0 UV-I 10 W/m 5,9 C 3,2 C 16,1 km/h (3 Bft) 100,00 %
04.05.2016 06:53 7,3 C 92 % 1021,9 hPa 0,0 l/m 12,3 km/h (3 Bft) S-SW 213 0 min 0,000 mm 0,0 UV-I 11 W/m 6,1 C 3,2 C 16,1 km/h (3 Bft) 96,55 %
04.05.2016 06:54 7,3 C 92 % 1021,8 hPa 0,0 l/m 14,9 km/h (3 Bft) W 271 0 min 0,000 mm 0,0 UV-I 11 W/m 6,1 C 1,9 C 20,9 km/h (4 Bft) 95,83 %
04.05.2016 06:55 7,3 C 92 % 1021,8 hPa 0,0 l/m 19,0 km/h (3 Bft) W-SW 249 0 min 0,000 mm 0,0 UV-I 11 W/m 6,1 C 0,2 C 27,4 km/h (4 Bft) 96,15 %
04.05.2016 06:56 7,2 C 92 % 1021,8 hPa 0,0 l/m 20,8 km/h (4 Bft) W-SW 238 0 min 0,000 mm 0,0 UV-I 11 W/m 6,0 C -0,6 C 29,0 km/h (5 Bft) 100,00 %
04.05.2016 06:57 7,2 C 92 % 1021,8 hPa 0,0 l/m 20,0 km/h (4 Bft) W 259 0 min 0,000 mm 0,0 UV-I 11 W/m 6,0 C -0,3 C 24,1 km/h (4 Bft) 93,33 %
04.05.2016 06:58 7,2 C 92 % 1021,9 hPa 0,0 l/m 16,5 km/h (3 Bft) W 264 0 min 0,000 mm 0,0 UV-I 11 W/m 6,0 C 1,1 C 22,5 km/h (4 Bft) 96,55 %
04.05.2016 06:59 7,2 C 92 % 1021,9 hPa 0,0 l/m 16,3 km/h (3 Bft) W 278 0 min 0,000 mm 0,0 UV-I 12 W/m 6,0 C 1,2 C 27,4 km/h (4 Bft) 100,00 %
04.05.2016 07:00 7,2 C 92 % 1021,8 hPa 0,2 l/m 21,2 km/h (4 Bft) W-SW 242 0 min 0,026 mm 0,0 UV-I 12 W/m 6,0 C -0,8 C 32,2 km/h (5 Bft) 95,65 %
04.05.2016 07:01 7,2 C 92 % 1021,9 hPa 0,0 l/m 19,3 km/h (3 Bft) W-SW 248 0 min 0,000 mm 0,0 UV-I 12 W/m 6,0 C -0,1 C 22,5 km/h (4 Bft) 95,83 %
04.05.2016 07:02 7,2 C 92 % 1021,8 hPa 0,0 l/m 20,8 km/h (4 Bft) W-SW 250 0 min 0,000 mm 0,0 UV-I 12 W/m 6,0 C -0,6 C 29,0 km/h (5 Bft) 96,15 %
04.05.2016 07:03 7,2 C 92 % 1021,8 hPa 0,2 l/m 19,4 km/h (3 Bft) W 263 0 min 0,000 mm 0,0 UV-I 13 W/m 6,0 C -0,1 C 27,4 km/h (4 Bft) 100,00 %
04.05.2016 07:04 7,2 C 92 % 1021,9 hPa 0,0 l/m 21,2 km/h (4 Bft) W 260 0 min 0,000 mm 0,0 UV-I 13 W/m 6,0 C -0,8 C 29,0 km/h (5 Bft) 88,46 %
04.05.2016 07:05 7,1 C 92 % 1021,9 hPa 0,0 l/m 17,1 km/h (3 Bft) W-SW 246 0 min 0,000 mm 0,0 UV-I 12 W/m 5,9 C 0,7 C 22,5 km/h (4 Bft) 100,00 %
04.05.2016 07:06 7,1 C 92 % 1021,9 hPa 0,0 l/m 18,1 km/h (3 Bft) W 269 0 min 0,000 mm 0,0 UV-I 12 W/m 5,9 C 0,3 C 27,4 km/h (4 Bft) 95,65 %
04.05.2016 07:07 7,1 C 92 % 1021,9 hPa 0,0 l/m 14,6 km/h (3 Bft) W-SW 257 0 min 0,000 mm 0,0 UV-I 12 W/m 5,9 C 1,8 C 19,3 km/h (3 Bft) 96,30 %
04.05.2016 07:08 7,1 C 93 % 1022,0 hPa 0,0 l/m 16,1 km/h (3 Bft) W 271 0 min 0,000 mm 0,0 UV-I 12 W/m 6,0 C 1,1 C 22,5 km/h (4 Bft) 100,00 %
04.05.2016 07:09 7,1 C 93 % 1022,0 hPa 0,0 l/m 15,6 km/h (3 Bft) W 263 0 min 0,000 mm 0,0 UV-I 12 W/m 6,0 C 1,3 C 20,9 km/h (4 Bft) 96,30 %
04.05.2016 07:10 7,1 C 93 % 1021,9 hPa 0,2 l/m 16,1 km/h (3 Bft) W-SW 254 0 min 0,000 mm 0,0 UV-I 12 W/m 6,0 C 1,1 C 24,1 km/h (4 Bft) 100,00 %
04.05.2016 07:11 7,1 C 93 % 1022,0 hPa 0,0 l/m 18,0 km/h (3 Bft) W 271 0 min 0,000 mm 0,0 UV-I 13 W/m 6,0 C 0,3 C 25,7 km/h (4 Bft) 95,83 %
04.05.2016 07:12 7,1 C 93 % 1022,0 hPa 0,0 l/m 21,0 km/h (4 Bft) W-NW 301 0 min 0,000 mm 0,0 UV-I 14 W/m 6,0 C -0,8 C 24,1 km/h (4 Bft) 100,00 %
04.05.2016 07:13 7,1 C 93 % 1022,1 hPa 0,0 l/m 14,3 km/h (3 Bft) W-SW 244 0 min 0,000 mm 0,0 UV-I 14 W/m 6,0 C 2,0 C 19,3 km/h (3 Bft) 95,83 %
04.05.2016 07:14 7,1 C 93 % 1022,1 hPa 0,0 l/m 20,7 km/h (4 Bft) W 260 0 min 0,000 mm 0,0 UV-I 16 W/m 6,0 C -0,7 C 27,4 km/h (4 Bft) 100,00 %
04.05.2016 07:15 7,1 C 93 % 1022,1 hPa 0,0 l/m 17,5 km/h (3 Bft) W-SW 241 0 min 0,000 mm 0,0 UV-I 17 W/m 6,0 C 0,5 C 24,1 km/h (4 Bft) 91,67 %
04.05.2016 07:16 7,1 C 93 % 1022,1 hPa 0,2 l/m 19,9 km/h (4 Bft) W-SW 238 0 min 0,000 mm 0,0 UV-I 20 W/m 6,0 C -0,4 C 25,7 km/h (4 Bft) 100,00 %
04.05.2016 07:17 7,1 C 93 % 1022,1 hPa 0,0 l/m 24,0 km/h (4 Bft) W-SW 254 0 min 0,000 mm 0,0 UV-I 22 W/m 6,0 C -1,8 C 29,0 km/h (5 Bft) 96,55 %
04.05.2016 07:18 7,0 C 93 % 1022,1 hPa 0,0 l/m 20,5 km/h (4 Bft) W-SW 240 0 min 0,000 mm 0,0 UV-I 22 W/m 5,9 C -0,8 C 24,1 km/h (4 Bft) 100,00 %
04.05.2016 07:19 7,0 C 93 % 1022,1 hPa 0,0 l/m 13,8 km/h (3 Bft) SW 229 0 min 0,000 mm 0,0 UV-I 21 W/m 5,9 C 2,1 C 20,9 km/h (4 Bft) 97,14 %
04.05.2016 07:20 7,0 C 93 % 1022,1 hPa 0,0 l/m 17,7 km/h (3 Bft) W 276 0 min 0,000 mm 0,0 UV-I 21 W/m 5,9 C 0,3 C 25,7 km/h (4 Bft) 96,30 %
04.05.2016 07:21 7,0 C 94 % 1022,1 hPa 0,0 l/m 18,5 km/h (3 Bft) W-SW 241 0 min 0,000 mm 0,0 UV-I 20 W/m 6,1 C -0,0 C 25,7 km/h (4 Bft) 100,00 %
04.05.2016 07:22 7,0 C 94 % 1022,2 hPa 0,0 l/m 19,9 km/h (4 Bft) W-SW 250 0 min 0,000 mm 0,0 UV-I 19 W/m 6,1 C -0,6 C 25,7 km/h (4 Bft) 96,67 %
04.05.2016 07:23 7,0 C 93 % 1022,2 hPa 0,0 l/m 17,3 km/h (3 Bft) W-NW 288 0 min 0,000 mm 0,0 UV-I 18 W/m 5,9 C 0,5 C 20,9 km/h (4 Bft) 96,15 %
04.05.2016 07:24 7,0 C 94 % 1022,2 hPa 0,0 l/m 19,0 km/h (3 Bft) SW 232 0 min 0,000 mm 0,0 UV-I 18 W/m 6,1 C -0,2 C 27,4 km/h (4 Bft) 95,83 %
04.05.2016 07:25 7,0 C 94 % 1022,2 hPa 0,0 l/m 15,1 km/h (3 Bft) W 274 0 min 0,000 mm 0,0 UV-I 18 W/m 6,1 C 1,5 C 20,9 km/h (4 Bft) 95,65 %
04.05.2016 07:26 7,0 C 94 % 1022,2 hPa 0,2 l/m 14,3 km/h (3 Bft) W-SW 244 0 min 0,000 mm 0,0 UV-I 18 W/m 6,1 C 1,8 C 19,3 km/h (3 Bft) 100,00 %
04.05.2016 07:27 7,0 C 94 % 1022,3 hPa 0,0 l/m 15,2 km/h (3 Bft) W 262 0 min 0,000 mm 0,0 UV-I 18 W/m 6,1 C 1,4 C 24,1 km/h (4 Bft) 100,00 %
04.05.2016 07:28 7,0 C 94 % 1022,2 hPa 0,0 l/m 19,3 km/h (3 Bft) W 261 0 min 0,000 mm 0,0 UV-I 18 W/m 6,1 C -0,3 C 25,7 km/h (4 Bft) 100,00 %
04.05.2016 07:29 7,0 C 94 % 1022,3 hPa 0,0 l/m 20,3 km/h (4 Bft) W-SW 250 0 min 0,000 mm 0,0 UV-I 18 W/m 6,1 C -0,7 C 27,4 km/h (4 Bft) 96,15 %
04.05.2016 07:30 7,0 C 94 % 1022,2 hPa 0,0 l/m 19,2 km/h (3 Bft) W 271 0 min 0,000 mm 0,0 UV-I 18 W/m 6,1 C -0,3 C 25,7 km/h (4 Bft) 100,00 %
04.05.2016 07:31 7,0 C 94 % 1022,3 hPa 0,0 l/m 14,7 km/h (3 Bft) W-SW 244 0 min 0,000 mm 0,0 UV-I 18 W/m 6,1 C 1,6 C 22,5 km/h (4 Bft) 95,65 %
04.05.2016 07:32 7,0 C 94 % 1022,3 hPa 0,0 l/m 15,0 km/h (3 Bft) W 269 0 min 0,000 mm 0,0 UV-I 19 W/m 6,1 C 1,5 C 20,9 km/h (4 Bft) 100,00 %
04.05.2016 07:33 6,9 C 93 % 1022,3 hPa 0,2 l/m 15,4 km/h (3 Bft) W-SW 252 0 min 0,000 mm 0,0 UV-I 19 W/m 5,8 C 1,2 C 22,5 km/h (4 Bft) 100,00 %
04.05.2016 07:34 6,9 C 94 % 1022,3 hPa 0,0 l/m 12,9 km/h (3 Bft) W-SW 252 0 min 0,000 mm 0,0 UV-I 19 W/m 6,0 C 2,4 C 19,3 km/h (3 Bft) 100,00 %
04.05.2016 07:35 6,9 C 94 % 1022,3 hPa 0,0 l/m 17,0 km/h (3 Bft) W 267 0 min 0,000 mm 0,0 UV-I 19 W/m 6,0 C 0,5 C 22,5 km/h (4 Bft) 100,00 %
04.05.2016 07:36 6,9 C 94 % 1022,2 hPa 0,0 l/m 18,3 km/h (3 Bft) W-SW 248 0 min 0,000 mm 0,0 UV-I 21 W/m 6,0 C -0,1 C 29,0 km/h (5 Bft) 100,00 %
04.05.2016 07:37 6,9 C 94 % 1022,3 hPa 0,0 l/m 16,0 km/h (3 Bft) W 266 0 min 0,000 mm 0,0 UV-I 21 W/m 6,0 C 0,9 C 24,1 km/h (4 Bft) 100,00 %
04.05.2016 07:38 6,9 C 94 % 1022,3 hPa 0,2 l/m 20,9 km/h (4 Bft) W 279 0 min 0,000 mm 0,0 UV-I 21 W/m 6,0 C -1,0 C 29,0 km/h (5 Bft) 95,65 %
04.05.2016 07:39 6,9 C 94 % 1022,4 hPa 0,0 l/m 18,0 km/h (3 Bft) W 259 0 min 0,000 mm 0,0 UV-I 20 W/m 6,0 C 0,1 C 24,1 km/h (4 Bft) 100,00 %
04.05.2016 07:40 6,9 C 94 % 1022,4 hPa 0,0 l/m 21,5 km/h (4 Bft) W 276 0 min 0,000 mm 0,0 UV-I 19 W/m 6,0 C -1,3 C 32,2 km/h (5 Bft) 100,00 %
04.05.2016 07:41 6,9 C 94 % 1022,5 hPa 0,2 l/m 16,6 km/h (3 Bft) W 271 0 min 0,000 mm 0,0 UV-I 19 W/m 6,0 C 0,6 C 20,9 km/h (4 Bft) 100,00 %
04.05.2016 07:42 6,9 C 94 % 1022,5 hPa 0,0 l/m 17,0 km/h (3 Bft) W 277 0 min 0,000 mm 0,0 UV-I 21 W/m 6,0 C 0,5 C 22,5 km/h (4 Bft) 100,00 %
04.05.2016 07:43 6,9 C 93 % 1022,6 hPa 0,0 l/m 15,4 km/h (3 Bft) W-SW 248 0 min 0,000 mm 0,0 UV-I 19 W/m 5,8 C 1,2 C 20,9 km/h (4 Bft) 100,00 %
04.05.2016 07:44 6,9 C 94 % 1022,6 hPa 0,0 l/m 15,6 km/h (3 Bft) W-SW 252 0 min 0,000 mm 0,0 UV-I 19 W/m 6,0 C 1,1 C 22,5 km/h (4 Bft) 100,00 %
04.05.2016 07:45 6,9 C 94 % 1022,5 hPa 0,2 l/m 16,9 km/h (3 Bft) W-SW 250 0 min 0,000 mm 0,0 UV-I 19 W/m 6,0 C 0,5 C 20,9 km/h (4 Bft) 93,33 %
04.05.2016 07:46 6,9 C 94 % 1022,6 hPa 0,0 l/m 15,0 km/h (3 Bft) SW 235 0 min 0,000 mm 0,0 UV-I 18 W/m 6,0 C 1,4 C 24,1 km/h (4 Bft) 100,00 %
04.05.2016 07:47 6,9 C 94 % 1022,6 hPa 0,0 l/m 18,2 km/h (3 Bft) W-SW 253 0 min 0,000 mm 0,0 UV-I 18 W/m 6,0 C -0,0 C 24,1 km/h (4 Bft) 100,00 %
04.05.2016 07:48 6,9 C 94 % 1022,6 hPa 0,0 l/m 16,4 km/h (3 Bft) W-SW 246 0 min 0,000 mm 0,0 UV-I 18 W/m 6,0 C 0,7 C 20,9 km/h (4 Bft) 100,00 %
04.05.2016 07:49 6,9 C 94 % 1022,6 hPa 0,2 l/m 17,0 km/h (3 Bft) W 271 0 min 0,000 mm 0,0 UV-I 18 W/m 6,0 C 0,5 C 22,5 km/h (4 Bft) 100,00 %
04.05.2016 07:50 6,9 C 94 % 1022,6 hPa 0,0 l/m 18,0 km/h (3 Bft) W 260 0 min 0,000 mm 0,0 UV-I 18 W/m 6,0 C 0,1 C 22,5 km/h (4 Bft) 100,00 %
04.05.2016 07:51 6,9 C 94 % 1022,6 hPa 0,0 l/m 13,4 km/h (3 Bft) W-SW 252 0 min 0,000 mm 0,0 UV-I 18 W/m 6,0 C 2,2 C 17,7 km/h (3 Bft) 100,00 %
04.05.2016 07:52 6,9 C 94 % 1022,6 hPa 0,0 l/m 10,9 km/h (2 Bft) W 263 0 min 0,000 mm 0,0 UV-I 19 W/m 6,0 C 3,6 C 16,1 km/h (3 Bft) 100,00 %
04.05.2016 07:53 6,9 C 94 % 1022,6 hPa 0,0 l/m 13,7 km/h (3 Bft) W 259 0 min 0,000 mm 0,0 UV-I 19 W/m 6,0 C 2,0 C 19,3 km/h (3 Bft) 95,83 %
04.05.2016 07:54 6,8 C 94 % 1022,7 hPa 0,2 l/m 17,6 km/h (3 Bft) W-SW 252 0 min 0,000 mm 0,0 UV-I 19 W/m 5,9 C 0,1 C 19,3 km/h (3 Bft) 100,00 %
04.05.2016 07:55 6,8 C 94 % 1022,6 hPa 0,0 l/m 14,8 km/h (3 Bft) W 263 0 min 0,000 mm 0,0 UV-I 19 W/m 5,9 C 1,4 C 20,9 km/h (4 Bft) 100,00 %
04.05.2016 07:56 6,8 C 94 % 1022,6 hPa 0,0 l/m 13,9 km/h (3 Bft) W-SW 242 0 min 0,000 mm 0,0 UV-I 19 W/m 5,9 C 1,8 C 17,7 km/h (3 Bft) 100,00 %
04.05.2016 07:57 6,8 C 94 % 1022,7 hPa 0,0 l/m 14,8 km/h (3 Bft) W-SW 240 0 min 0,000 mm 0,0 UV-I 20 W/m 5,9 C 1,4 C 22,5 km/h (4 Bft) 100,00 %
04.05.2016 07:58 6,8 C 94 % 1022,7 hPa 0,0 l/m 14,4 km/h (3 Bft) W 271 0 min 0,000 mm 0,0 UV-I 21 W/m 5,9 C 1,5 C 17,7 km/h (3 Bft) 100,00 %
04.05.2016 07:59 6,8 C 94 % 1022,7 hPa 0,0 l/m 11,7 km/h (2 Bft) W-SW 257 0 min 0,000 mm 0,0 UV-I 21 W/m 5,9 C 3,0 C 14,5 km/h (3 Bft) 100,00 %
04.05.2016 08:00 6,8 C 94 % 1022,7 hPa 0,0 l/m 13,9 km/h (3 Bft) W 259 0 min 0,000 mm 0,0 UV-I 19 W/m 5,9 C 1,8 C 20,9 km/h (4 Bft) 100,00 %
04.05.2016 08:01 6,8 C 94 % 1022,7 hPa 0,0 l/m 14,0 km/h (3 Bft) W-SW 252 0 min 0,025 mm 0,0 UV-I 19 W/m 5,9 C 1,8 C 19,3 km/h (3 Bft) 100,00 %
04.05.2016 08:02 6,8 C 94 % 1022,8 hPa 0,2 l/m 15,6 km/h (3 Bft) W-NW 289 0 min 0,000 mm 0,0 UV-I 20 W/m 5,9 C 1,0 C 27,4 km/h (4 Bft) 100,00 %
04.05.2016 08:03 6,8 C 94 % 1022,8 hPa 0,0 l/m 13,9 km/h (3 Bft) W-SW 255 0 min 0,000 mm 0,0 UV-I 21 W/m 5,9 C 1,8 C 17,7 km/h (3 Bft) 95,65 %
04.05.2016 08:04 6,8 C 94 % 1022,8 hPa 0,0 l/m 15,5 km/h (3 Bft) SW 215 0 min 0,000 mm 0,0 UV-I 21 W/m 5,9 C 1,0 C 20,9 km/h (4 Bft) 100,00 %
04.05.2016 08:05 6,8 C 94 % 1022,8 hPa 0,0 l/m 17,7 km/h (3 Bft) W 271 0 min 0,000 mm 0,0 UV-I 21 W/m 5,9 C 0,1 C 22,5 km/h (4 Bft) 100,00 %
04.05.2016 08:06 6,8 C 94 % 1022,8 hPa 0,0 l/m 14,9 km/h (3 Bft) W 273 0 min 0,000 mm 0,0 UV-I 21 W/m 5,9 C 1,3 C 19,3 km/h (3 Bft) 100,00 %
04.05.2016 08:07 6,8 C 94 % 1022,8 hPa 0,0 l/m 16,0 km/h (3 Bft) W 266 0 min 0,000 mm 0,0 UV-I 23 W/m 5,9 C 0,8 C 20,9 km/h (4 Bft) 100,00 %
04.05.2016 08:08 6,8 C 94 % 1022,8 hPa 0,0 l/m 12,6 km/h (3 Bft) W 272 0 min 0,000 mm 0,0 UV-I 22 W/m 5,9 C 2,5 C 17,7 km/h (3 Bft) 100,00 %
04.05.2016 08:09 6,8 C 94 % 1022,8 hPa 0,0 l/m 13,9 km/h (3 Bft) W 265 0 min 0,000 mm 0,0 UV-I 22 W/m 5,9 C 1,8 C 17,7 km/h (3 Bft) 100,00 %
04.05.2016 08:10 6,8 C 94 % 1022,8 hPa 0,0 l/m 16,3 km/h (3 Bft) W-SW 245 0 min 0,000 mm 0,0 UV-I 23 W/m 5,9 C 0,7 C 20,9 km/h (4 Bft) 100,00 %
04.05.2016 08:11 6,8 C 94 % 1022,8 hPa 0,0 l/m 13,8 km/h (3 Bft) SW 225 0 min 0,000 mm 0,0 UV-I 23 W/m 5,9 C 1,9 C 17,7 km/h (3 Bft) 100,00 %
04.05.2016 08:12 6,8 C 94 % 1022,9 hPa 0,0 l/m 16,0 km/h (3 Bft) SW 225 0 min 0,000 mm 0,0 UV-I 25 W/m 5,9 C 0,8 C 20,9 km/h (4 Bft) 100,00 %
04.05.2016 08:13 6,8 C 94 % 1022,9 hPa 0,0 l/m 14,1 km/h (3 Bft) W 263 0 min 0,000 mm 0,0 UV-I 25 W/m 5,9 C 1,7 C 20,9 km/h (4 Bft) 100,00 %
04.05.2016 08:14 6,8 C 94 % 1022,9 hPa 0,0 l/m 19,4 km/h (3 Bft) W-SW 256 0 min 0,000 mm 0,0 UV-I 25 W/m 5,9 C -0,6 C 24,1 km/h (4 Bft) 93,33 %
04.05.2016 08:15 6,8 C 94 % 1022,9 hPa 0,0 l/m 14,6 km/h (3 Bft) W-SW 250 0 min 0,000 mm 0,0 UV-I 24 W/m 5,9 C 1,5 C 25,7 km/h (4 Bft) 100,00 %
04.05.2016 08:16 6,8 C 94 % 1022,9 hPa 0,0 l/m 15,4 km/h (3 Bft) W 263 0 min 0,000 mm 0,0 UV-I 25 W/m 5,9 C 1,1 C 20,9 km/h (4 Bft) 95,65 %
04.05.2016 08:17 6,8 C 94 % 1022,9 hPa 0,0 l/m 15,4 km/h (3 Bft) W-SW 243 0 min 0,000 mm 0,0 UV-I 26 W/m 5,9 C 1,1 C 20,9 km/h (4 Bft) 100,00 %
04.05.2016 08:18 6,8 C 94 % 1023,0 hPa 0,0 l/m 12,7 km/h (3 Bft) W 277 0 min 0,000 mm 0,0 UV-I 28 W/m 5,9 C 2,4 C 17,7 km/h (3 Bft) 94,12 %
04.05.2016 08:19 6,8 C 94 % 1022,9 hPa 0,2 l/m 11,0 km/h (2 Bft) W-SW 252 0 min 0,000 mm 0,0 UV-I 28 W/m 5,9 C 3,4 C 17,7 km/h (3 Bft) 100,00 %
04.05.2016 08:20 6,8 C 94 % 1022,9 hPa 0,0 l/m 14,9 km/h (3 Bft) W-SW 254 0 min 0,000 mm 0,0 UV-I 31 W/m 5,9 C 1,3 C 20,9 km/h (4 Bft) 96,55 %
04.05.2016 08:21 6,8 C 94 % 1023,0 hPa 0,0 l/m 12,3 km/h (3 Bft) W-SW 243 0 min 0,000 mm 0,0 UV-I 32 W/m 5,9 C 2,7 C 17,7 km/h (3 Bft) 100,00 %
04.05.2016 08:22 6,8 C 94 % 1023,0 hPa 0,0 l/m 13,9 km/h (3 Bft) W-SW 248 0 min 0,000 mm 0,0 UV-I 32 W/m 5,9 C 1,8 C 17,7 km/h (3 Bft) 95,65 %
04.05.2016 08:23 6,8 C 94 % 1023,0 hPa 0,0 l/m 12,0 km/h (2 Bft) W-NW 285 0 min 0,000 mm 0,0 UV-I 33 W/m 5,9 C 2,8 C 16,1 km/h (3 Bft) 95,83 %
04.05.2016 08:24 6,8 C 94 % 1023,0 hPa 0,0 l/m 13,2 km/h (3 Bft) W-SW 257 0 min 0,000 mm 0,0 UV-I 35 W/m 5,9 C 2,2 C 17,7 km/h (3 Bft) 100,00 %
04.05.2016 08:25 6,8 C 94 % 1023,0 hPa 0,2 l/m 10,3 km/h (2 Bft) SW 226 0 min 0,000 mm 0,0 UV-I 35 W/m 5,9 C 3,9 C 16,1 km/h (3 Bft) 100,00 %
04.05.2016 08:26 6,8 C 94 % 1023,1 hPa 0,0 l/m 11,8 km/h (2 Bft) W-SW 244 0 min 0,000 mm 0,0 UV-I 36 W/m 5,9 C 2,9 C 17,7 km/h (3 Bft) 100,00 %
04.05.2016 08:27 6,8 C 94 % 1023,1 hPa 0,0 l/m 14,3 km/h (3 Bft) W-SW 247 0 min 0,000 mm 0,0 UV-I 38 W/m 5,9 C 1,6 C 20,9 km/h (4 Bft) 100,00 %
04.05.2016 08:28 6,8 C 94 % 1023,1 hPa 0,0 l/m 13,4 km/h (3 Bft) SW 228 0 min 0,000 mm 0,0 UV-I 39 W/m 5,9 C 2,1 C 17,7 km/h (3 Bft) 100,00 %
04.05.2016 08:29 6,8 C 94 % 1023,1 hPa 0,0 l/m 13,9 km/h (3 Bft) W-SW 247 0 min 0,000 mm 0,0 UV-I 39 W/m 5,9 C 1,8 C 19,3 km/h (3 Bft) 100,00 %
04.05.2016 08:30 6,8 C 94 % 1023,1 hPa 0,0 l/m 11,6 km/h (2 Bft) W 264 0 min 0,000 mm 0,0 UV-I 37 W/m 5,9 C 3,1 C 14,5 km/h (3 Bft) 100,00 %
04.05.2016 08:31 6,8 C 94 % 1023,1 hPa 0,0 l/m 13,9 km/h (3 Bft) W 263 0 min 0,000 mm 0,0 UV-I 37 W/m 5,9 C 1,8 C 17,7 km/h (3 Bft) 96,30 %
04.05.2016 08:32 6,8 C 94 % 1023,1 hPa 0,0 l/m 14,0 km/h (3 Bft) W-NW 288 0 min 0,000 mm 0,0 UV-I 38 W/m 5,9 C 1,8 C 17,7 km/h (3 Bft) 100,00 %
04.05.2016 08:33 6,8 C 94 % 1023,1 hPa 0,0 l/m 14,5 km/h (3 Bft) W 267 0 min 0,000 mm 0,0 UV-I 40 W/m 5,9 C 1,5 C 19,3 km/h (3 Bft) 100,00 %
04.05.2016 08:34 6,8 C 94 % 1023,1 hPa 0,2 l/m 12,5 km/h (3 Bft) W 261 0 min 0,000 mm 0,0 UV-I 40 W/m 5,9 C 2,5 C 19,3 km/h (3 Bft) 100,00 %
04.05.2016 08:35 6,8 C 94 % 1023,1 hPa 0,0 l/m 13,1 km/h (3 Bft) W-SW 254 0 min 0,000 mm 0,0 UV-I 40 W/m 5,9 C 2,2 C 17,7 km/h (3 Bft) 100,00 %
04.05.2016 08:36 6,8 C 94 % 1023,1 hPa 0,0 l/m 11,4 km/h (2 Bft) W-SW 254 0 min 0,000 mm 0,0 UV-I 40 W/m 5,9 C 3,2 C 12,9 km/h (3 Bft) 100,00 %
04.05.2016 08:37 6,8 C 94 % 1023,2 hPa 0,0 l/m 18,9 km/h (3 Bft) W 264 0 min 0,000 mm 0,0 UV-I 40 W/m 5,9 C -0,4 C 22,5 km/h (4 Bft) 100,00 %
04.05.2016 08:38 6,8 C 94 % 1023,1 hPa 0,0 l/m 18,1 km/h (3 Bft) W 273 0 min 0,000 mm 0,0 UV-I 42 W/m 5,9 C -0,1 C 22,5 km/h (4 Bft) 96,15 %
04.05.2016 08:39 6,8 C 94 % 1023,1 hPa 0,0 l/m 18,2 km/h (3 Bft) W 269 0 min 0,000 mm 0,0 UV-I 45 W/m 5,9 C -0,2 C 20,9 km/h (4 Bft) 100,00 %
04.05.2016 08:40 6,8 C 94 % 1023,2 hPa 0,0 l/m 13,8 km/h (3 Bft) W-SW 248 0 min 0,000 mm 0,0 UV-I 47 W/m 5,9 C 1,9 C 22,5 km/h (4 Bft) 96,30 %
04.05.2016 08:41 6,8 C 94 % 1023,1 hPa 0,0 l/m 15,1 km/h (3 Bft) W 263 0 min 0,000 mm 0,0 UV-I 49 W/m 5,9 C 1,2 C 22,5 km/h (4 Bft) 100,00 %
04.05.2016 08:42 6,8 C 94 % 1023,2 hPa 0,0 l/m 13,0 km/h (3 Bft) W-SW 254 0 min 0,000 mm 0,0 UV-I 49 W/m 5,9 C 2,3 C 19,3 km/h (3 Bft) 100,00 %
04.05.2016 08:43 6,8 C 94 % 1023,2 hPa 0,0 l/m 10,8 km/h (2 Bft) W-SW 238 0 min 0,000 mm 0,0 UV-I 49 W/m 5,9 C 3,5 C 17,7 km/h (3 Bft) 100,00 %
04.05.2016 08:44 6,8 C 94 % 1023,2 hPa 0,0 l/m 13,1 km/h (3 Bft) W-SW 247 0 min 0,000 mm 0,0 UV-I 47 W/m 5,9 C 2,2 C 17,7 km/h (3 Bft) 100,00 %
04.05.2016 08:45 6,8 C 94 % 1023,2 hPa 0,2 l/m 12,8 km/h (3 Bft) W-SW 253 0 min 0,000 mm 0,0 UV-I 46 W/m 5,9 C 2,4 C 16,1 km/h (3 Bft) 96,15 %
04.05.2016 08:46 6,8 C 94 % 1023,2 hPa 0,0 l/m 11,9 km/h (2 Bft) W 260 0 min 0,000 mm 0,0 UV-I 45 W/m 5,9 C 2,9 C 16,1 km/h (3 Bft) 100,00 %
04.05.2016 08:47 6,8 C 94 % 1023,3 hPa 0,0 l/m 10,9 km/h (2 Bft) W-SW 245 0 min 0,000 mm 0,0 UV-I 46 W/m 5,9 C 3,5 C 16,1 km/h (3 Bft) 93,10 %
04.05.2016 08:48 6,8 C 94 % 1023,3 hPa 0,0 l/m 15,9 km/h (3 Bft) W-SW 248 0 min 0,000 mm 0,0 UV-I 47 W/m 5,9 C 0,8 C 25,7 km/h (4 Bft) 100,00 %
04.05.2016 08:49 6,8 C 94 % 1023,3 hPa 0,0 l/m 17,1 km/h (3 Bft) SW 214 0 min 0,000 mm 0,0 UV-I 46 W/m 5,9 C 0,3 C 20,9 km/h (4 Bft) 100,00 %
04.05.2016 08:50 6,8 C 94 % 1023,3 hPa 0,0 l/m 13,5 km/h (3 Bft) W-SW 253 0 min 0,000 mm 0,0 UV-I 47 W/m 5,9 C 2,0 C 17,7 km/h (3 Bft) 100,00 %
04.05.2016 08:51 6,8 C 94 % 1023,3 hPa 0,0 l/m 14,1 km/h (3 Bft) W-SW 251 0 min 0,000 mm 0,0 UV-I 47 W/m 5,9 C 1,7 C 20,9 km/h (4 Bft) 95,65 %
04.05.2016 08:52 6,8 C 94 % 1023,3 hPa 0,2 l/m 13,1 km/h (3 Bft) W-SW 248 0 min 0,000 mm 0,0 UV-I 46 W/m 5,9 C 2,2 C 19,3 km/h (3 Bft) 100,00 %
04.05.2016 08:53 6,8 C 94 % 1023,4 hPa 0,0 l/m 9,8 km/h (2 Bft) W 264 0 min 0,000 mm 0,0 UV-I 44 W/m 5,9 C 4,2 C 14,5 km/h (3 Bft) 100,00 %
04.05.2016 08:54 6,8 C 94 % 1023,4 hPa 0,0 l/m 12,0 km/h (2 Bft) W-SW 250 0 min 0,000 mm 0,0 UV-I 44 W/m 5,9 C 2,8 C 16,1 km/h (3 Bft) 100,00 %
04.05.2016 08:55 6,8 C 94 % 1023,4 hPa 0,0 l/m 11,6 km/h (2 Bft) W-SW 242 0 min 0,000 mm 0,0 UV-I 42 W/m 5,9 C 3,1 C 14,5 km/h (3 Bft) 93,33 %
04.05.2016 08:56 6,8 C 94 % 1023,4 hPa 0,0 l/m 11,8 km/h (2 Bft) W-SW 253 0 min 0,000 mm 0,0 UV-I 41 W/m 5,9 C 2,9 C 14,5 km/h (3 Bft) 100,00 %
04.05.2016 08:57 6,8 C 94 % 1023,4 hPa 0,0 l/m 13,9 km/h (3 Bft) W-SW 248 0 min 0,000 mm 0,0 UV-I 37 W/m 5,9 C 1,8 C 20,9 km/h (4 Bft) 95,83 %
04.05.2016 08:58 6,8 C 94 % 1023,4 hPa 0,0 l/m 13,7 km/h (3 Bft) W-SW 256 0 min 0,000 mm 0,0 UV-I 33 W/m 5,9 C 1,9 C 17,7 km/h (3 Bft) 100,00 %
04.05.2016 08:59 6,8 C 94 % 1023,4 hPa 0,0 l/m 11,0 km/h (2 Bft) W 260 0 min 0,000 mm 0,0 UV-I 28 W/m 5,9 C 3,4 C 14,5 km/h (3 Bft) 96,30 %
04.05.2016 09:00 6,8 C 94 % 1023,4 hPa 0,0 l/m 11,1 km/h (2 Bft) W 271 0 min 0,026 mm 0,0 UV-I 28 W/m 5,9 C 3,4 C 14,5 km/h (3 Bft) 96,15 %
04.05.2016 09:02 6,8 C 94 % 1023,5 hPa 0,0 l/m 9,0 km/h (2 Bft) W 265 0 min 0,000 mm 0,0 UV-I 27 W/m 5,9 C 4,7 C 16,1 km/h (3 Bft) 95,45 %
04.05.2016 09:03 6,8 C 94 % 1023,5 hPa 0,0 l/m 12,2 km/h (2 Bft) W-SW 240 0 min 0,000 mm 0,0 UV-I 25 W/m 5,9 C 2,7 C 14,5 km/h (3 Bft) 100,00 %
04.05.2016 09:04 6,8 C 94 % 1023,5 hPa 0,2 l/m 15,4 km/h (3 Bft) W 265 0 min 0,000 mm 0,0 UV-I 26 W/m 5,9 C 1,1 C 17,7 km/h (3 Bft) 96,15 %
04.05.2016 09:05 6,8 C 94 % 1023,5 hPa 0,0 l/m 11,5 km/h (2 Bft) W-SW 248 0 min 0,000 mm 0,0 UV-I 30 W/m 5,9 C 3,1 C 16,1 km/h (3 Bft) 100,00 %
04.05.2016 09:06 6,8 C 94 % 1023,5 hPa 0,0 l/m 11,5 km/h (2 Bft) W-SW 254 0 min 0,000 mm 0,0 UV-I 33 W/m 5,9 C 3,1 C 16,1 km/h (3 Bft) 96,15 %
04.05.2016 09:07 6,8 C 94 % 1023,5 hPa 0,0 l/m 14,7 km/h (3 Bft) W-SW 244 0 min 0,000 mm 0,0 UV-I 34 W/m 5,9 C 1,4 C 19,3 km/h (3 Bft) 100,00 %
04.05.2016 09:08 6,8 C 94 % 1023,5 hPa 0,0 l/m 11,1 km/h (2 Bft) W-SW 253 0 min 0,000 mm 0,0 UV-I 36 W/m 5,9 C 3,4 C 14,5 km/h (3 Bft) 96,15 %
04.05.2016 09:09 6,8 C 94 % 1023,5 hPa 0,2 l/m 14,1 km/h (3 Bft) W-SW 243 0 min 0,000 mm 0,0 UV-I 38 W/m 5,9 C 1,7 C 19,3 km/h (3 Bft) 95,83 %
04.05.2016 09:10 6,8 C 94 % 1023,5 hPa 0,0 l/m 17,8 km/h (3 Bft) W-SW 253 0 min 0,000 mm 0,0 UV-I 38 W/m 5,9 C 0,0 C 22,5 km/h (4 Bft) 100,00 %
04.05.2016 09:11 6,8 C 94 % 1023,6 hPa 0,0 l/m 15,7 km/h (3 Bft) W 281 0 min 0,000 mm 0,0 UV-I 39 W/m 5,9 C 0,9 C 22,5 km/h (4 Bft) 96,30 %
04.05.2016 09:12 6,8 C 94 % 1023,5 hPa 0,2 l/m 11,3 km/h (2 Bft) W-SW 252 0 min 0,000 mm 0,0 UV-I 39 W/m 5,9 C 3,2 C 20,9 km/h (4 Bft) 100,00 %
04.05.2016 09:13 6,8 C 94 % 1023,5 hPa 0,0 l/m 13,9 km/h (3 Bft) W 264 0 min 0,000 mm 0,0 UV-I 40 W/m 5,9 C 1,8 C 17,7 km/h (3 Bft) 91,67 %
04.05.2016 09:14 6,8 C 94 % 1023,6 hPa 0,0 l/m 11,3 km/h (2 Bft) SW 227 0 min 0,000 mm 0,0 UV-I 40 W/m 5,9 C 3,2 C 14,5 km/h (3 Bft) 100,00 %
04.05.2016 09:15 6,8 C 94 % 1023,6 hPa 0,0 l/m 15,4 km/h (3 Bft) W-SW 242 0 min 0,000 mm 0,0 UV-I 41 W/m 5,9 C 1,1 C 20,9 km/h (4 Bft) 96,15 %
04.05.2016 09:16 6,8 C 94 % 1023,6 hPa 0,0 l/m 14,7 km/h (3 Bft) SW 229 0 min 0,000 mm 0,0 UV-I 42 W/m 5,9 C 1,4 C 19,3 km/h (3 Bft) 100,00 %
04.05.2016 09:17 6,8 C 94 % 1023,6 hPa 0,0 l/m 10,8 km/h (2 Bft) SW 226 0 min 0,000 mm 0,0 UV-I 42 W/m 5,9 C 3,5 C 12,9 km/h (3 Bft) 92,31 %
04.05.2016 09:18 6,8 C 94 % 1023,6 hPa 0,0 l/m 16,2 km/h (3 Bft) W-SW 249 0 min 0,000 mm 0,0 UV-I 44 W/m 5,9 C 0,7 C 20,9 km/h (4 Bft) 96,30 %
04.05.2016 09:19 6,8 C 94 % 1023,7 hPa 0,0 l/m 11,8 km/h (2 Bft) W-SW 253 0 min 0,000 mm 0,0 UV-I 44 W/m 5,9 C 2,9 C 16,1 km/h (3 Bft) 100,00 %
04.05.2016 09:22 6,8 C 94 % 1023,7 hPa 0,2 l/m 12,7 km/h (3 Bft) SW 220 0 min 0,000 mm 0,0 UV-I 47 W/m 5,9 C 2,4 C 16,1 km/h (3 Bft) 97,50 %
04.05.2016 09:23 6,8 C 94 % 1023,8 hPa 0,0 l/m 10,4 km/h (2 Bft) W-SW 245 0 min 0,000 mm 0,0 UV-I 47 W/m 5,9 C 3,8 C 12,9 km/h (3 Bft) 100,00 %
04.05.2016 09:24 6,8 C 94 % 1023,8 hPa 0,0 l/m 10,5 km/h (2 Bft) W 261 0 min 0,000 mm 0,0 UV-I 49 W/m 5,9 C 3,7 C 12,9 km/h (3 Bft) 95,83 %
04.05.2016 09:25 6,8 C 94 % 1023,8 hPa 0,0 l/m 12,7 km/h (3 Bft) W-SW 240 0 min 0,000 mm 0,0 UV-I 50 W/m 5,9 C 2,4 C 19,3 km/h (3 Bft) 100,00 %
04.05.2016 09:26 6,8 C 94 % 1023,8 hPa 0,0 l/m 11,3 km/h (2 Bft) W-SW 240 0 min 0,000 mm 0,0 UV-I 52 W/m 5,9 C 3,2 C 16,1 km/h (3 Bft) 93,33 %
04.05.2016 09:27 6,8 C 94 % 1023,8 hPa 0,2 l/m 9,7 km/h (2 Bft) SW 220 0 min 0,000 mm 0,0 UV-I 55 W/m 5,9 C 4,3 C 16,1 km/h (3 Bft) 91,30 %
04.05.2016 09:28 6,8 C 94 % 1023,8 hPa 0,0 l/m 11,3 km/h (2 Bft) W 261 0 min 0,000 mm 0,0 UV-I 59 W/m 5,9 C 3,2 C 17,7 km/h (3 Bft) 98,51 %
04.05.2016 09:29 6,8 C 94 % 1023,8 hPa 0,0 l/m 14,8 km/h (3 Bft) SW 219 0 min 0,000 mm 0,0 UV-I 61 W/m 5,9 C 1,4 C 19,3 km/h (3 Bft) 100,00 %
04.05.2016 09:30 6,8 C 94 % 1023,8 hPa 0,0 l/m 12,7 km/h (3 Bft) W-SW 258 0 min 0,000 mm 0,0 UV-I 64 W/m 5,9 C 2,4 C 19,3 km/h (3 Bft) 100,00 %
04.05.2016 09:31 6,8 C 94 % 1023,8 hPa 0,0 l/m 11,4 km/h (2 Bft) SW 228 0 min 0,000 mm 0,0 UV-I 66 W/m 5,9 C 3,2 C 16,1 km/h (3 Bft) 98,53 %
04.05.2016 09:32 6,8 C 95 % 1023,8 hPa 0,0 l/m 12,6 km/h (3 Bft) W-SW 250 0 min 0,000 mm 0,0 UV-I 67 W/m 6,1 C 2,5 C 17,7 km/h (3 Bft) 100,00 %
04.05.2016 09:33 6,8 C 95 % 1023,8 hPa 0,0 l/m 10,3 km/h (2 Bft) W-SW 255 0 min 0,000 mm 0,0 UV-I 67 W/m 6,1 C 3,9 C 19,3 km/h (3 Bft) 96,15 %
04.05.2016 09:34 6,8 C 95 % 1023,8 hPa 0,0 l/m 14,1 km/h (3 Bft) W 259 0 min 0,000 mm 0,0 UV-I 67 W/m 6,1 C 1,7 C 20,9 km/h (4 Bft) 96,30 %
04.05.2016 09:35 6,8 C 95 % 1023,8 hPa 0,0 l/m 11,6 km/h (2 Bft) SW 220 0 min 0,000 mm 0,0 UV-I 67 W/m 6,1 C 3,1 C 17,7 km/h (3 Bft) 100,00 %
04.05.2016 09:36 6,9 C 95 % 1023,8 hPa 0,2 l/m 12,1 km/h (2 Bft) W-SW 249 0 min 0,000 mm 0,0 UV-I 68 W/m 6,2 C 2,9 C 19,3 km/h (3 Bft) 100,00 %
04.05.2016 09:37 6,8 C 95 % 1023,8 hPa 0,0 l/m 11,6 km/h (2 Bft) SW 223 0 min 0,000 mm 0,0 UV-I 68 W/m 6,1 C 3,1 C 16,1 km/h (3 Bft) 100,00 %
04.05.2016 09:38 6,8 C 94 % 1023,8 hPa 0,0 l/m 10,3 km/h (2 Bft) W 273 0 min 0,000 mm 0,0 UV-I 70 W/m 5,9 C 3,9 C 12,9 km/h (3 Bft) 100,00 %
04.05.2016 09:39 6,9 C 95 % 1023,8 hPa 0,0 l/m 8,7 km/h (2 Bft) W-SW 240 0 min 0,000 mm 0,0 UV-I 70 W/m 6,2 C 5,1 C 16,1 km/h (3 Bft) 100,00 %
04.05.2016 09:40 6,9 C 95 % 1023,8 hPa 0,0 l/m 10,6 km/h (2 Bft) W-SW 254 0 min 0,000 mm 0,0 UV-I 69 W/m 6,2 C 3,8 C 16,1 km/h (3 Bft) 100,00 %
04.05.2016 09:41 6,9 C 95 % 1023,8 hPa 0,0 l/m 12,3 km/h (3 Bft) W-SW 248 0 min 0,000 mm 0,0 UV-I 69 W/m 6,2 C 2,8 C 19,3 km/h (3 Bft) 100,00 %
04.05.2016 09:42 6,9 C 95 % 1023,8 hPa 0,0 l/m 9,0 km/h (2 Bft) W-SW 243 0 min 0,000 mm 0,0 UV-I 69 W/m 6,2 C 4,9 C 12,9 km/h (3 Bft) 100,00 %
04.05.2016 09:43 6,9 C 95 % 1023,9 hPa 0,2 l/m 13,2 km/h (3 Bft) W-SW 247 0 min 0,000 mm 0,0 UV-I 71 W/m 6,2 C 2,3 C 19,3 km/h (3 Bft) 100,00 %
04.05.2016 09:44 6,9 C 95 % 1023,8 hPa 0,0 l/m 10,8 km/h (2 Bft) S-SW 205 0 min 0,000 mm 0,0 UV-I 72 W/m 6,2 C 3,7 C 14,5 km/h (3 Bft) 100,00 %
04.05.2016 09:45 6,9 C 95 % 1023,9 hPa 0,0 l/m 7,5 km/h (2 Bft) W 264 0 min 0,000 mm 0,0 UV-I 74 W/m 6,2 C 6,0 C 9,7 km/h (2 Bft) 100,00 %
04.05.2016 09:46 6,9 C 94 % 1023,8 hPa 0,0 l/m 14,3 km/h (3 Bft) W 265 0 min 0,000 mm 0,0 UV-I 74 W/m 6,0 C 1,7 C 19,3 km/h (3 Bft) 100,00 %
04.05.2016 09:47 6,9 C 94 % 1023,8 hPa 0,0 l/m 14,5 km/h (3 Bft) W-SW 252 0 min 0,000 mm 0,0 UV-I 76 W/m 6,0 C 1,6 C 16,1 km/h (3 Bft) 100,00 %
04.05.2016 09:48 6,9 C 94 % 1023,8 hPa 0,0 l/m 11,1 km/h (2 Bft) W-SW 246 0 min 0,000 mm 0,0 UV-I 77 W/m 6,0 C 3,5 C 14,5 km/h (3 Bft) 94,44 %
04.05.2016 09:49 6,9 C 95 % 1023,8 hPa 0,2 l/m 12,5 km/h (3 Bft) W 267 0 min 0,000 mm 0,0 UV-I 77 W/m 6,2 C 2,7 C 16,1 km/h (3 Bft) 100,00 %
04.05.2016 09:50 6,9 C 95 % 1023,8 hPa 0,0 l/m 10,7 km/h (2 Bft) W 260 0 min 0,000 mm 0,0 UV-I 77 W/m 6,2 C 3,7 C 14,5 km/h (3 Bft) 100,00 %
04.05.2016 09:51 7,0 C 95 % 1023,8 hPa 0,0 l/m 13,3 km/h (3 Bft) W-SW 258 0 min 0,000 mm 0,0 UV-I 77 W/m 6,3 C 2,3 C 17,7 km/h (3 Bft) 95,83 %
04.05.2016 09:52 7,0 C 95 % 1023,8 hPa 0,2 l/m 10,6 km/h (2 Bft) W-SW 245 0 min 0,000 mm 0,0 UV-I 79 W/m 6,3 C 3,9 C 16,1 km/h (3 Bft) 100,00 %
04.05.2016 09:53 7,0 C 95 % 1023,8 hPa 0,0 l/m 9,1 km/h (2 Bft) W 263 0 min 0,000 mm 0,0 UV-I 79 W/m 6,3 C 4,9 C 11,3 km/h (2 Bft) 100,00 %
04.05.2016 09:54 7,0 C 95 % 1023,8 hPa 0,0 l/m 13,8 km/h (3 Bft) W 267 0 min 0,000 mm 0,0 UV-I 80 W/m 6,3 C 2,1 C 17,7 km/h (3 Bft) 98,57 %
04.05.2016 09:55 7,0 C 95 % 1023,8 hPa 0,0 l/m 10,8 km/h (2 Bft) W-SW 237 0 min 0,000 mm 0,0 UV-I 81 W/m 6,3 C 3,8 C 16,1 km/h (3 Bft) 100,00 %
04.05.2016 09:56 7,0 C 95 % 1023,8 hPa 0,0 l/m 15,5 km/h (3 Bft) W-SW 254 0 min 0,000 mm 0,0 UV-I 80 W/m 6,3 C 1,3 C 20,9 km/h (4 Bft) 100,00 %
04.05.2016 09:57 7,0 C 95 % 1023,8 hPa 0,0 l/m 10,9 km/h (2 Bft) W-SW 248 0 min 0,000 mm 0,0 UV-I 81 W/m 6,3 C 3,7 C 19,3 km/h (3 Bft) 100,00 %
04.05.2016 09:58 7,0 C 95 % 1023,9 hPa 0,0 l/m 9,3 km/h (2 Bft) W-SW 252 0 min 0,000 mm 0,0 UV-I 81 W/m 6,3 C 4,8 C 12,9 km/h (3 Bft) 100,00 %
04.05.2016 09:59 7,0 C 95 % 1023,9 hPa 0,0 l/m 11,3 km/h (2 Bft) W 265 0 min 0,000 mm 0,0 UV-I 82 W/m 6,3 C 3,5 C 17,7 km/h (3 Bft) 100,00 %
04.05.2016 10:00 7,0 C 95 % 1023,8 hPa 0,2 l/m 10,7 km/h (2 Bft) W-SW 249 0 min 0,000 mm 0,0 UV-I 83 W/m 6,3 C 3,8 C 16,1 km/h (3 Bft) 100,00 %
04.05.2016 10:01 7,1 C 95 % 1023,9 hPa 0,0 l/m 8,6 km/h (2 Bft) W-SW 242 0 min 0,025 mm 0,0 UV-I 82 W/m 6,4 C 5,4 C 12,9 km/h (3 Bft) 100,00 %
04.05.2016 10:02 7,1 C 95 % 1023,9 hPa 0,0 l/m 11,0 km/h (2 Bft) W 259 0 min 0,000 mm 0,0 UV-I 81 W/m 6,4 C 3,8 C 14,5 km/h (3 Bft) 100,00 %
04.05.2016 10:03 7,1 C 95 % 1023,9 hPa 0,0 l/m 12,8 km/h (3 Bft) SW 225 0 min 0,000 mm 0,0 UV-I 81 W/m 6,4 C 2,7 C 17,7 km/h (3 Bft) 96,15 %
04.05.2016 10:04 7,1 C 95 % 1023,9 hPa 0,0 l/m 8,6 km/h (2 Bft) W-SW 258 0 min 0,000 mm 0,0 UV-I 80 W/m 6,4 C 5,4 C 11,3 km/h (2 Bft) 100,00 %
04.05.2016 10:05 7,1 C 95 % 1023,9 hPa 0,2 l/m 12,7 km/h (3 Bft) W-SW 252 0 min 0,000 mm 0,0 UV-I 76 W/m 6,4 C 2,8 C 17,7 km/h (3 Bft) 100,00 %
04.05.2016 10:06 7,1 C 95 % 1023,9 hPa 0,0 l/m 15,4 km/h (3 Bft) W-SW 256 0 min 0,000 mm 0,0 UV-I 74 W/m 6,4 C 1,4 C 17,7 km/h (3 Bft) 100,00 %
04.05.2016 10:07 7,1 C 95 % 1023,9 hPa 0,0 l/m 13,9 km/h (3 Bft) SW 226 0 min 0,000 mm 0,0 UV-I 75 W/m 6,4 C 2,2 C 17,7 km/h (3 Bft) 100,00 %
04.05.2016 10:08 7,1 C 95 % 1023,9 hPa 0,0 l/m 16,4 km/h (3 Bft) W-SW 254 0 min 0,000 mm 0,0 UV-I 76 W/m 6,4 C 1,0 C 20,9 km/h (4 Bft) 100,00 %
04.05.2016 10:09 7,1 C 95 % 1023,9 hPa 0,0 l/m 13,4 km/h (3 Bft) W 263 0 min 0,000 mm 0,0 UV-I 74 W/m 6,4 C 2,4 C 17,7 km/h (3 Bft) 100,00 %
04.05.2016 10:10 7,1 C 95 % 1023,9 hPa 0,0 l/m 14,1 km/h (3 Bft) W 259 0 min 0,000 mm 0,0 UV-I 74 W/m 6,4 C 2,1 C 19,3 km/h (3 Bft) 100,00 %
04.05.2016 10:11 7,1 C 95 % 1024,0 hPa 0,0 l/m 11,6 km/h (2 Bft) W 261 0 min 0,000 mm 0,0 UV-I 73 W/m 6,4 C 3,4 C 17,7 km/h (3 Bft) 100,00 %
04.05.2016 10:12 7,1 C 95 % 1024,0 hPa 0,0 l/m 17,1 km/h (3 Bft) W 259 0 min 0,000 mm 0,0 UV-I 71 W/m 6,4 C 0,7 C 24,1 km/h (4 Bft) 96,15 %
04.05.2016 10:13 7,1 C 95 % 1024,0 hPa 0,0 l/m 17,7 km/h (3 Bft) W 271 0 min 0,000 mm 0,0 UV-I 69 W/m 6,4 C 0,4 C 22,5 km/h (4 Bft) 100,00 %
04.05.2016 10:14 7,1 C 94 % 1023,9 hPa 0,0 l/m 14,8 km/h (3 Bft) SW 225 0 min 0,000 mm 0,0 UV-I 69 W/m 6,2 C 1,7 C 17,7 km/h (3 Bft) 100,00 %
04.05.2016 10:15 7,1 C 94 % 1024,0 hPa 0,0 l/m 10,6 km/h (2 Bft) W 262 0 min 0,000 mm 0,0 UV-I 69 W/m 6,2 C 4,0 C 14,5 km/h (3 Bft) 100,00 %
04.05.2016 10:16 7,1 C 94 % 1024,0 hPa 0,0 l/m 9,7 km/h (2 Bft) W-SW 257 0 min 0,000 mm 0,0 UV-I 69 W/m 6,2 C 4,6 C 12,9 km/h (3 Bft) 100,00 %
04.05.2016 10:17 7,1 C 94 % 1024,0 hPa 0,0 l/m 12,4 km/h (3 Bft) W 265 0 min 0,000 mm 0,0 UV-I 67 W/m 6,2 C 3,0 C 14,5 km/h (3 Bft) 100,00 %
04.05.2016 10:18 7,1 C 94 % 1024,0 hPa 0,2 l/m 14,0 km/h (3 Bft) W-SW 250 0 min 0,000 mm 0,0 UV-I 69 W/m 6,2 C 2,1 C 16,1 km/h (3 Bft) 100,00 %
04.05.2016 10:19 7,1 C 94 % 1024,0 hPa 0,0 l/m 11,6 km/h (2 Bft) SW 233 0 min 0,000 mm 0,0 UV-I 69 W/m 6,2 C 3,4 C 14,5 km/h (3 Bft) 100,00 %
04.05.2016 10:20 7,1 C 94 % 1024,0 hPa 0,0 l/m 11,3 km/h (2 Bft) W-SW 250 0 min 0,000 mm 0,0 UV-I 69 W/m 6,2 C 3,6 C 14,5 km/h (3 Bft) 100,00 %
04.05.2016 10:21 7,1 C 95 % 1024,0 hPa 0,0 l/m 11,6 km/h (2 Bft) W-SW 247 0 min 0,000 mm 0,0 UV-I 70 W/m 6,4 C 3,4 C 16,1 km/h (3 Bft) 100,00 %
04.05.2016 10:22 7,1 C 94 % 1024,0 hPa 0,0 l/m 12,3 km/h (3 Bft) W-SW 248 0 min 0,000 mm 0,0 UV-I 69 W/m 6,2 C 3,0 C 16,1 km/h (3 Bft) 100,00 %
04.05.2016 10:23 7,1 C 94 % 1024,0 hPa 0,0 l/m 14,0 km/h (3 Bft) W-SW 252 0 min 0,000 mm 0,0 UV-I 70 W/m 6,2 C 2,1 C 20,9 km/h (4 Bft) 100,00 %
04.05.2016 10:24 7,1 C 94 % 1024,0 hPa 0,0 l/m 11,8 km/h (2 Bft) W-SW 241 0 min 0,000 mm 0,0 UV-I 72 W/m 6,2 C 3,3 C 14,5 km/h (3 Bft) 100,00 %
04.05.2016 10:25 7,1 C 94 % 1024,0 hPa 0,2 l/m 14,8 km/h (3 Bft) W-SW 252 0 min 0,000 mm 0,0 UV-I 72 W/m 6,2 C 1,7 C 22,5 km/h (4 Bft) 100,00 %
04.05.2016 10:26 7,1 C 94 % 1024,0 hPa 0,0 l/m 12,9 km/h (3 Bft) W 263 0 min 0,000 mm 0,0 UV-I 72 W/m 6,2 C 2,7 C 17,7 km/h (3 Bft) 98,67 %
04.05.2016 10:27 7,1 C 94 % 1024,0 hPa 0,0 l/m 14,1 km/h (3 Bft) SW 232 0 min 0,000 mm 0,0 UV-I 71 W/m 6,2 C 2,1 C 20,9 km/h (4 Bft) 97,73 %
04.05.2016 10:28 7,1 C 94 % 1024,0 hPa 0,0 l/m 16,2 km/h (3 Bft) W 273 0 min 0,000 mm 0,0 UV-I 74 W/m 6,2 C 1,1 C 24,1 km/h (4 Bft) 100,00 %
04.05.2016 10:29 7,1 C 94 % 1024,0 hPa 0,0 l/m 15,1 km/h (3 Bft) W-SW 252 0 min 0,000 mm 0,0 UV-I 74 W/m 6,2 C 1,6 C 17,7 km/h (3 Bft) 100,00 %
04.05.2016 10:30 7,1 C 94 % 1024,0 hPa 0,0 l/m 13,3 km/h (3 Bft) W-SW 245 0 min 0,000 mm 0,0 UV-I 73 W/m 6,2 C 2,5 C 16,1 km/h (3 Bft) 98,67 %
04.05.2016 10:31 7,1 C 95 % 1024,0 hPa 0,0 l/m 14,5 km/h (3 Bft) W-SW 246 0 min 0,000 mm 0,0 UV-I 73 W/m 6,4 C 1,9 C 19,3 km/h (3 Bft) 100,00 %
04.05.2016 10:32 7,2 C 94 % 1024,0 hPa 0,2 l/m 14,4 km/h (3 Bft) W-SW 238 0 min 0,000 mm 0,0 UV-I 74 W/m 6,3 C 2,0 C 17,7 km/h (3 Bft) 100,00 %
04.05.2016 10:33 7,2 C 95 % 1024,0 hPa 0,0 l/m 12,4 km/h (3 Bft) W 267 0 min 0,000 mm 0,0 UV-I 72 W/m 6,5 C 3,1 C 16,1 km/h (3 Bft) 100,00 %
04.05.2016 10:34 7,2 C 95 % 1024,0 hPa 0,0 l/m 13,3 km/h (3 Bft) W-SW 258 0 min 0,000 mm 0,0 UV-I 70 W/m 6,5 C 2,6 C 17,7 km/h (3 Bft) 100,00 %
04.05.2016 10:35 7,1 C 94 % 1024,0 hPa 0,0 l/m 10,1 km/h (2 Bft) W 265 0 min 0,000 mm 0,0 UV-I 70 W/m 6,2 C 4,3 C 16,1 km/h (3 Bft) 100,00 %
04.05.2016 10:36 7,2 C 94 % 1024,0 hPa 0,0 l/m 13,1 km/h (3 Bft) W 265 0 min 0,000 mm 0,0 UV-I 70 W/m 6,3 C 2,7 C 17,7 km/h (3 Bft) 100,00 %
04.05.2016 10:37 7,1 C 94 % 1024,1 hPa 0,2 l/m 9,5 km/h (2 Bft) W 265 0 min 0,000 mm 0,0 UV-I 69 W/m 6,2 C 4,7 C 12,9 km/h (3 Bft) 100,00 %
04.05.2016 10:38 7,1 C 94 % 1024,1 hPa 0,0 l/m 10,5 km/h (2 Bft) W-SW 246 0 min 0,000 mm 0,0 UV-I 69 W/m 6,2 C 4,1 C 16,1 km/h (3 Bft) 95,83 %
04.05.2016 10:39 7,1 C 94 % 1024,0 hPa 0,0 l/m 8,2 km/h (2 Bft) W-NW 291 0 min 0,000 mm 0,0 UV-I 69 W/m 6,2 C 5,7 C 12,9 km/h (3 Bft) 100,00 %
04.05.2016 10:40 7,1 C 94 % 1024,0 hPa 0,0 l/m 11,7 km/h (2 Bft) W-SW 257 0 min 0,000 mm 0,0 UV-I 70 W/m 6,2 C 3,3 C 17,7 km/h (3 Bft) 100,00 %
04.05.2016 10:41 7,1 C 94 % 1024,1 hPa 0,0 l/m 11,6 km/h (2 Bft) W-SW 238 0 min 0,000 mm 0,0 UV-I 67 W/m 6,2 C 3,4 C 17,7 km/h (3 Bft) 100,00 %
04.05.2016 10:42 7,1 C 94 % 1024,1 hPa 0,0 l/m 16,0 km/h (3 Bft) W-SW 248 0 min 0,000 mm 0,0 UV-I 65 W/m 6,2 C 1,2 C 24,1 km/h (4 Bft) 100,00 %
04.05.2016 10:43 7,1 C 94 % 1024,1 hPa 0,0 l/m 12,2 km/h (2 Bft) W-SW 254 0 min 0,000 mm 0,0 UV-I 67 W/m 6,2 C 3,1 C 16,1 km/h (3 Bft) 100,00 %
04.05.2016 10:44 7,1 C 94 % 1024,1 hPa 0,0 l/m 11,3 km/h (2 Bft) W-SW 245 0 min 0,000 mm 0,0 UV-I 67 W/m 6,2 C 3,6 C 16,1 km/h (3 Bft) 100,00 %
04.05.2016 10:45 7,1 C 94 % 1024,1 hPa 0,0 l/m 14,3 km/h (3 Bft) W-SW 248 0 min 0,000 mm 0,0 UV-I 69 W/m 6,2 C 2,0 C 20,9 km/h (4 Bft) 100,00 %
04.05.2016 10:46 7,1 C 94 % 1024,2 hPa 0,0 l/m 14,1 km/h (3 Bft) W-SW 248 0 min 0,000 mm 0,0 UV-I 67 W/m 6,2 C 2,1 C 17,7 km/h (3 Bft) 100,00 %
04.05.2016 10:47 7,1 C 94 % 1024,2 hPa 0,0 l/m 11,5 km/h (2 Bft) W-SW 256 0 min 0,000 mm 0,0 UV-I 69 W/m 6,2 C 3,5 C 16,1 km/h (3 Bft) 100,00 %
04.05.2016 10:48 7,1 C 94 % 1024,1 hPa 0,0 l/m 18,0 km/h (3 Bft) W-SW 242 0 min 0,000 mm 0,0 UV-I 69 W/m 6,2 C 0,3 C 30,6 km/h (5 Bft) 100,00 %
04.05.2016 10:49 7,1 C 94 % 1024,2 hPa 0,0 l/m 17,4 km/h (3 Bft) W 260 0 min 0,000 mm 0,0 UV-I 69 W/m 6,2 C 0,6 C 22,5 km/h (4 Bft) 100,00 %
04.05.2016 10:50 7,1 C 94 % 1024,2 hPa 0,0 l/m 11,6 km/h (2 Bft) W-NW 298 0 min 0,000 mm 0,0 UV-I 69 W/m 6,2 C 3,4 C 17,7 km/h (3 Bft) 100,00 %
04.05.2016 10:51 7,2 C 94 % 1024,2 hPa 0,0 l/m 8,7 km/h (2 Bft) W 263 0 min 0,000 mm 0,0 UV-I 67 W/m 6,3 C 5,4 C 14,5 km/h (3 Bft) 95,83 %
04.05.2016 10:55 7,2 C 94 % 1024,2 hPa 0,0 l/m 11,3 km/h (2 Bft) W-SW 247 0 min 0,000 mm 0,0 UV-I 65 W/m 6,3 C 3,7 C 17,7 km/h (3 Bft) 100,00 %
04.05.2016 11:00 7,1 C 94 % 1024,3 hPa 0,2 l/m 11,3 km/h (2 Bft) W 270 0 min 0,025 mm 0,0 UV-I 59 W/m 6,2 C 3,6 C 22,5 km/h (4 Bft) 99,12 %
04.05.2016 11:05 7,1 C 94 % 1024,2 hPa 0,2 l/m 12,9 km/h (3 Bft) W 270 0 min 0,000 mm 0,0 UV-I 61 W/m 6,2 C 2,7 C 22,5 km/h (4 Bft) 100,00 %
04.05.2016 11:07 7,1 C 94 % 1024,2 hPa 0,0 l/m 16,1 km/h (3 Bft) W-SW 254 0 min 0,000 mm 0,0 UV-I 67 W/m 6,2 C 1,1 C 20,9 km/h (4 Bft) 97,84 %
04.05.2016 11:08 7,1 C 94 % 1024,2 hPa 0,0 l/m 13,0 km/h (3 Bft) W-NW 292 0 min 0,000 mm 0,0 UV-I 67 W/m 6,2 C 2,6 C 17,7 km/h (3 Bft) 96,67 %
04.05.2016 11:09 7,1 C 94 % 1024,3 hPa 0,0 l/m 10,8 km/h (2 Bft) W 266 0 min 0,000 mm 0,0 UV-I 69 W/m 6,2 C 3,9 C 12,9 km/h (3 Bft) 96,67 %
04.05.2016 11:10 7,1 C 94 % 1024,3 hPa 0,0 l/m 8,5 km/h (2 Bft) SW 231 0 min 0,000 mm 0,0 UV-I 69 W/m 6,2 C 5,4 C 11,3 km/h (2 Bft) 100,00 %
04.05.2016 11:11 7,1 C 94 % 1024,3 hPa 0,0 l/m 10,8 km/h (2 Bft) W-SW 251 0 min 0,000 mm 0,0 UV-I 71 W/m 6,2 C 3,9 C 16,1 km/h (3 Bft) 100,00 %
04.05.2016 11:12 7,1 C 94 % 1024,3 hPa 0,0 l/m 11,9 km/h (2 Bft) W-SW 250 0 min 0,000 mm 0,0 UV-I 73 W/m 6,2 C 3,2 C 16,1 km/h (3 Bft) 91,67 %
04.05.2016 11:13 7,1 C 94 % 1024,3 hPa 0,0 l/m 10,3 km/h (2 Bft) W-SW 256 0 min 0,000 mm 0,0 UV-I 74 W/m 6,2 C 4,2 C 16,1 km/h (3 Bft) 96,15 %
04.05.2016 11:14 7,1 C 94 % 1024,3 hPa 0,0 l/m 13,4 km/h (3 Bft) NW 312 0 min 0,000 mm 0,0 UV-I 74 W/m 6,2 C 2,4 C 17,7 km/h (3 Bft) 100,00 %
04.05.2016 11:15 7,1 C 94 % 1024,3 hPa 0,0 l/m 10,5 km/h (2 Bft) W 267 0 min 0,000 mm 0,0 UV-I 74 W/m 6,2 C 4,1 C 16,1 km/h (3 Bft) 95,65 %
04.05.2016 11:16 7,1 C 94 % 1024,3 hPa 0,0 l/m 9,0 km/h (2 Bft) W 273 0 min 0,000 mm 0,0 UV-I 75 W/m 6,2 C 5,1 C 14,5 km/h (3 Bft) 100,00 %
04.05.2016 11:17 7,2 C 94 % 1024,3 hPa 0,0 l/m 9,4 km/h (2 Bft) W-SW 250 0 min 0,000 mm 0,0 UV-I 76 W/m 6,3 C 4,9 C 12,9 km/h (3 Bft) 95,65 %
04.05.2016 11:18 7,1 C 94 % 1024,3 hPa 0,0 l/m 15,0 km/h (3 Bft) W-SW 258 0 min 0,000 mm 0,3 UV-I 76 W/m 6,2 C 1,6 C 17,7 km/h (3 Bft) 100,00 %
04.05.2016 11:19 7,2 C 94 % 1024,3 hPa 0,0 l/m 11,5 km/h (2 Bft) W-SW 248 0 min 0,000 mm 0,5 UV-I 77 W/m 6,3 C 3,6 C 14,5 km/h (3 Bft) 96,55 %
04.05.2016 11:20 7,2 C 94 % 1024,4 hPa 0,0 l/m 11,1 km/h (2 Bft) W-SW 250 0 min 0,000 mm 0,5 UV-I 77 W/m 6,3 C 3,8 C 12,9 km/h (3 Bft) 100,00 %
04.05.2016 11:21 7,2 C 94 % 1024,4 hPa 0,2 l/m 12,3 km/h (3 Bft) W 259 0 min 0,000 mm 0,5 UV-I 77 W/m 6,3 C 3,1 C 16,1 km/h (3 Bft) 96,55 %
04.05.2016 11:22 7,2 C 94 % 1024,3 hPa 0,0 l/m 11,9 km/h (2 Bft) W 270 0 min 0,000 mm 0,5 UV-I 76 W/m 6,3 C 3,3 C 17,7 km/h (3 Bft) 96,67 %
04.05.2016 11:23 7,2 C 94 % 1024,4 hPa 0,0 l/m 11,8 km/h (2 Bft) W 262 0 min 0,000 mm 0,5 UV-I 76 W/m 6,3 C 3,4 C 16,1 km/h (3 Bft) 100,00 %
04.05.2016 11:24 7,2 C 94 % 1024,4 hPa 0,0 l/m 14,0 km/h (3 Bft) W 263 0 min 0,000 mm 0,5 UV-I 77 W/m 6,3 C 2,2 C 17,7 km/h (3 Bft) 92,59 %
04.05.2016 11:25 7,2 C 94 % 1024,4 hPa 0,0 l/m 10,7 km/h (2 Bft) W 273 0 min 0,000 mm 0,5 UV-I 77 W/m 6,3 C 4,1 C 14,5 km/h (3 Bft) 100,00 %
04.05.2016 11:26 7,2 C 95 % 1024,4 hPa 0,0 l/m 11,8 km/h (2 Bft) W 261 0 min 0,000 mm 0,5 UV-I 78 W/m 6,5 C 3,4 C 17,7 km/h (3 Bft) 95,83 %
04.05.2016 11:27 7,2 C 94 % 1024,5 hPa 0,0 l/m 15,7 km/h (3 Bft) SW 233 0 min 0,000 mm 0,5 UV-I 81 W/m 6,3 C 1,4 C 17,7 km/h (3 Bft) 96,15 %
04.05.2016 11:28 7,2 C 94 % 1024,4 hPa 0,0 l/m 11,7 km/h (2 Bft) W 271 0 min 0,000 mm 0,5 UV-I 82 W/m 6,3 C 3,5 C 16,1 km/h (3 Bft) 91,67 %
04.05.2016 11:29 7,2 C 95 % 1024,4 hPa 0,0 l/m 12,0 km/h (2 Bft) SW 232 0 min 0,000 mm 0,5 UV-I 84 W/m 6,5 C 3,3 C 17,7 km/h (3 Bft) 100,00 %
04.05.2016 11:30 7,2 C 95 % 1024,4 hPa 0,0 l/m 9,7 km/h (2 Bft) W-SW 252 0 min 0,000 mm 0,5 UV-I 84 W/m 6,5 C 4,7 C 12,9 km/h (3 Bft) 96,30 %
04.05.2016 11:31 7,2 C 95 % 1024,5 hPa 0,0 l/m 11,7 km/h (2 Bft) W 262 0 min 0,000 mm 0,5 UV-I 84 W/m 6,5 C 3,5 C 14,5 km/h (3 Bft) 91,67 %
04.05.2016 11:32 7,2 C 95 % 1024,5 hPa 0,2 l/m 15,4 km/h (3 Bft) W 259 0 min 0,000 mm 0,5 UV-I 84 W/m 6,5 C 1,6 C 19,3 km/h (3 Bft) 100,00 %
04.05.2016 11:33 7,2 C 94 % 1024,5 hPa 0,0 l/m 12,7 km/h (3 Bft) W-SW 252 0 min 0,000 mm 0,5 UV-I 85 W/m 6,3 C 2,9 C 16,1 km/h (3 Bft) 100,00 %
04.05.2016 11:34 7,2 C 94 % 1024,4 hPa 0,0 l/m 11,8 km/h (2 Bft) SW 214 0 min 0,000 mm 0,5 UV-I 87 W/m 6,3 C 3,4 C 17,7 km/h (3 Bft) 100,00 %
04.05.2016 11:35 7,2 C 95 % 1024,5 hPa 0,0 l/m 12,6 km/h (3 Bft) W-SW 238 0 min 0,000 mm 0,6 UV-I 90 W/m 6,5 C 3,0 C 17,7 km/h (3 Bft) 100,00 %
04.05.2016 11:36 7,2 C 95 % 1024,4 hPa 0,0 l/m 12,9 km/h (3 Bft) W-SW 251 0 min 0,000 mm 0,6 UV-I 95 W/m 6,5 C 2,8 C 14,5 km/h (3 Bft) 100,00 %
04.05.2016 11:37 7,3 C 95 % 1024,4 hPa 0,0 l/m 8,6 km/h (2 Bft) W 271 0 min 0,000 mm 0,6 UV-I 102 W/m 6,6 C 5,6 C 12,9 km/h (3 Bft) 100,00 %
04.05.2016 11:38 7,3 C 95 % 1024,5 hPa 0,0 l/m 11,8 km/h (2 Bft) W 262 0 min 0,000 mm 0,7 UV-I 108 W/m 6,6 C 3,5 C 14,5 km/h (3 Bft) 100,00 %
04.05.2016 11:39 7,3 C 95 % 1024,5 hPa 0,0 l/m 13,4 km/h (3 Bft) W-SW 249 0 min 0,000 mm 0,7 UV-I 114 W/m 6,6 C 2,7 C 17,7 km/h (3 Bft) 100,00 %
04.05.2016 11:40 7,3 C 95 % 1024,4 hPa 0,0 l/m 12,3 km/h (3 Bft) W-SW 239 0 min 0,000 mm 0,7 UV-I 118 W/m 6,6 C 3,2 C 17,7 km/h (3 Bft) 95,65 %
04.05.2016 11:41 7,3 C 95 % 1024,4 hPa 0,0 l/m 7,4 km/h (2 Bft) W 264 0 min 0,000 mm 0,8 UV-I 121 W/m 6,6 C 6,5 C 9,7 km/h (2 Bft) 100,00 %
04.05.2016 11:42 7,3 C 95 % 1024,4 hPa 0,0 l/m 7,7 km/h (2 Bft) W-SW 245 0 min 0,000 mm 0,8 UV-I 123 W/m 6,6 C 6,2 C 11,3 km/h (2 Bft) 100,00 %
04.05.2016 11:43 7,3 C 95 % 1024,4 hPa 0,2 l/m 13,2 km/h (3 Bft) W-SW 254 0 min 0,000 mm 0,8 UV-I 125 W/m 6,6 C 2,8 C 19,3 km/h (3 Bft) 100,00 %
04.05.2016 11:44 7,3 C 95 % 1024,4 hPa 0,0 l/m 10,2 km/h (2 Bft) W-SW 237 0 min 0,000 mm 0,8 UV-I 123 W/m 6,6 C 4,5 C 16,1 km/h (3 Bft) 100,00 %
04.05.2016 11:45 7,3 C 95 % 1024,4 hPa 0,0 l/m 16,0 km/h (3 Bft) W-SW 253 0 min 0,000 mm 0,8 UV-I 122 W/m 6,6 C 1,4 C 22,5 km/h (4 Bft) 100,00 %
04.05.2016 11:46 7,3 C 95 % 1024,4 hPa 0,0 l/m 14,7 km/h (3 Bft) W-SW 243 0 min 0,000 mm 0,7 UV-I 118 W/m 6,6 C 2,0 C 20,9 km/h (4 Bft) 100,00 %
04.05.2016 11:47 7,3 C 94 % 1024,5 hPa 0,0 l/m 13,5 km/h (3 Bft) W-NW 294 0 min 0,000 mm 0,7 UV-I 112 W/m 6,4 C 2,6 C 19,3 km/h (3 Bft) 100,00 %
04.05.2016 11:48 7,4 C 94 % 1024,4 hPa 0,0 l/m 11,7 km/h (2 Bft) W 268 0 min 0,000 mm 0,7 UV-I 109 W/m 6,5 C 3,7 C 14,5 km/h (3 Bft) 100,00 %
04.05.2016 11:49 7,4 C 94 % 1024,4 hPa 0,0 l/m 6,5 km/h (2 Bft) W-SW 258 0 min 0,000 mm 0,7 UV-I 107 W/m 6,5 C 7,3 C 9,7 km/h (2 Bft) 100,00 %
04.05.2016 11:50 7,4 C 94 % 1024,4 hPa 0,0 l/m 10,4 km/h (2 Bft) W-SW 244 0 min 0,000 mm 0,7 UV-I 105 W/m 6,5 C 4,5 C 16,1 km/h (3 Bft) 100,00 %
04.05.2016 11:51 7,4 C 94 % 1024,4 hPa 0,0 l/m 11,9 km/h (2 Bft) SW 236 0 min 0,000 mm 0,7 UV-I 105 W/m 6,5 C 3,6 C 20,9 km/h (4 Bft) 100,00 %
04.05.2016 11:52 7,4 C 94 % 1024,4 hPa 0,0 l/m 10,1 km/h (2 Bft) W-SW 249 0 min 0,000 mm 0,7 UV-I 105 W/m 6,5 C 4,7 C 16,1 km/h (3 Bft) 96,30 %
04.05.2016 11:53 7,4 C 94 % 1024,5 hPa 0,0 l/m 9,3 km/h (2 Bft) W-SW 258 0 min 0,000 mm 0,7 UV-I 105 W/m 6,5 C 5,2 C 16,1 km/h (3 Bft) 100,00 %
04.05.2016 11:54 7,4 C 94 % 1024,5 hPa 0,0 l/m 12,7 km/h (3 Bft) W-SW 252 0 min 0,000 mm 0,7 UV-I 104 W/m 6,5 C 3,1 C 19,3 km/h (3 Bft) 100,00 %
04.05.2016 11:55 7,4 C 94 % 1024,5 hPa 0,2 l/m 15,7 km/h (3 Bft) W-SW 252 0 min 0,000 mm 0,7 UV-I 104 W/m 6,5 C 1,7 C 19,3 km/h (3 Bft) 100,00 %
04.05.2016 11:56 7,4 C 94 % 1024,5 hPa 0,0 l/m 11,6 km/h (2 Bft) W-SW 252 0 min 0,000 mm 0,6 UV-I 104 W/m 6,5 C 3,7 C 17,7 km/h (3 Bft) 100,00 %
04.05.2016 11:57 7,4 C 94 % 1024,5 hPa 0,0 l/m 14,4 km/h (3 Bft) W-SW 252 0 min 0,000 mm 0,6 UV-I 101 W/m 6,5 C 2,3 C 17,7 km/h (3 Bft) 100,00 %
04.05.2016 11:58 7,5 C 94 % 1024,4 hPa 0,0 l/m 15,3 km/h (3 Bft) W-SW 253 0 min 0,000 mm 0,6 UV-I 100 W/m 6,6 C 2,0 C 20,9 km/h (4 Bft) 100,00 %
04.05.2016 11:59 7,5 C 94 % 1024,6 hPa 0,0 l/m 13,1 km/h (3 Bft) W 260 0 min 0,000 mm 0,6 UV-I 98 W/m 6,6 C 3,0 C 16,1 km/h (3 Bft) 100,00 %
04.05.2016 12:00 7,5 C 94 % 1024,5 hPa 0,0 l/m 10,3 km/h (2 Bft) W-SW 243 0 min 0,051 mm 0,6 UV-I 98 W/m 6,6 C 4,6 C 14,5 km/h (3 Bft) 100,00 %
04.05.2016 12:01 7,5 C 94 % 1024,5 hPa 0,0 l/m 10,5 km/h (2 Bft) W-SW 242 0 min 0,000 mm 0,6 UV-I 98 W/m 6,6 C 4,5 C 14,5 km/h (3 Bft) 100,00 %
04.05.2016 12:02 7,5 C 94 % 1024,5 hPa 0,0 l/m 13,9 km/h (3 Bft) W-SW 254 0 min 0,000 mm 0,6 UV-I 101 W/m 6,6 C 2,6 C 19,3 km/h (3 Bft) 100,00 %
04.05.2016 12:03 7,5 C 94 % 1024,6 hPa 0,0 l/m 14,5 km/h (3 Bft) W 265 0 min 0,000 mm 0,6 UV-I 103 W/m 6,6 C 2,3 C 20,9 km/h (4 Bft) 100,00 %
04.05.2016 12:04 7,5 C 94 % 1024,5 hPa 0,0 l/m 14,5 km/h (3 Bft) SW 227 0 min 0,000 mm 0,7 UV-I 105 W/m 6,6 C 2,3 C 17,7 km/h (3 Bft) 98,67 %
04.05.2016 12:05 7,6 C 94 % 1024,5 hPa 0,0 l/m 15,3 km/h (3 Bft) W-SW 252 0 min 0,000 mm 0,7 UV-I 106 W/m 6,7 C 2,1 C 19,3 km/h (3 Bft) 97,73 %
04.05.2016 12:06 7,6 C 94 % 1024,6 hPa 0,0 l/m 11,1 km/h (2 Bft) W-SW 254 0 min 0,000 mm 0,7 UV-I 109 W/m 6,7 C 4,3 C 16,1 km/h (3 Bft) 100,00 %
04.05.2016 12:07 7,6 C 94 % 1024,6 hPa 0,0 l/m 12,0 km/h (2 Bft) W-SW 249 0 min 0,000 mm 0,7 UV-I 111 W/m 6,7 C 3,8 C 16,1 km/h (3 Bft) 100,00 %
04.05.2016 12:08 7,6 C 94 % 1024,5 hPa 0,0 l/m 9,2 km/h (2 Bft) W 259 0 min 0,000 mm 0,7 UV-I 112 W/m 6,7 C 5,5 C 14,5 km/h (3 Bft) 100,00 %
04.05.2016 12:09 7,6 C 94 % 1024,5 hPa 0,0 l/m 9,8 km/h (2 Bft) W-SW 251 0 min 0,000 mm 0,7 UV-I 113 W/m 6,7 C 5,1 C 12,9 km/h (3 Bft) 100,00 %
04.05.2016 12:10 7,6 C 94 % 1024,5 hPa 0,0 l/m 13,3 km/h (3 Bft) W 262 0 min 0,000 mm 0,7 UV-I 113 W/m 6,7 C 3,1 C 17,7 km/h (3 Bft) 96,55 %
04.05.2016 12:11 7,6 C 94 % 1024,5 hPa 0,0 l/m 10,1 km/h (2 Bft) W-NW 288 0 min 0,000 mm 0,7 UV-I 113 W/m 6,7 C 4,9 C 12,9 km/h (3 Bft) 100,00 %
04.05.2016 12:12 7,6 C 94 % 1024,5 hPa 0,2 l/m 8,3 km/h (2 Bft) W 265 0 min 0,000 mm 0,7 UV-I 113 W/m 6,7 C 6,1 C 14,5 km/h (3 Bft) 100,00 %
04.05.2016 12:13 7,6 C 94 % 1024,4 hPa 0,0 l/m 8,7 km/h (2 Bft) W 272 0 min 0,000 mm 0,7 UV-I 114 W/m 6,7 C 5,8 C 12,9 km/h (3 Bft) 100,00 %
04.05.2016 12:14 7,6 C 94 % 1024,5 hPa 0,0 l/m 11,6 km/h (2 Bft) SW 234 0 min 0,000 mm 0,7 UV-I 113 W/m 6,7 C 4,0 C 16,1 km/h (3 Bft) 100,00 %
04.05.2016 12:15 7,6 C 94 % 1024,5 hPa 0,0 l/m 13,7 km/h (3 Bft) W-SW 246 0 min 0,000 mm 0,7 UV-I 113 W/m 6,7 C 2,9 C 17,7 km/h (3 Bft) 100,00 %
04.05.2016 12:16 7,6 C 94 % 1024,4 hPa 0,0 l/m 12,9 km/h (3 Bft) W 271 0 min 0,000 mm 0,7 UV-I 113 W/m 6,7 C 3,3 C 17,7 km/h (3 Bft) 95,65 %
04.05.2016 12:17 7,6 C 94 % 1024,4 hPa 0,0 l/m 8,7 km/h (2 Bft) W 276 0 min 0,000 mm 0,7 UV-I 110 W/m 6,7 C 5,8 C 12,9 km/h (3 Bft) 100,00 %
04.05.2016 12:18 7,6 C 94 % 1024,5 hPa 0,0 l/m 8,1 km/h (2 Bft) W-SW 240 0 min 0,000 mm 0,7 UV-I 107 W/m 6,7 C 6,3 C 16,1 km/h (3 Bft) 100,00 %
04.05.2016 12:19 7,6 C 94 % 1024,5 hPa 0,0 l/m 12,2 km/h (2 Bft) W-SW 258 0 min 0,000 mm 0,7 UV-I 109 W/m 6,7 C 3,6 C 16,1 km/h (3 Bft) 100,00 %
04.05.2016 12:20 7,6 C 94 % 1024,5 hPa 0,0 l/m 7,8 km/h (2 Bft) W 260 0 min 0,000 mm 0,7 UV-I 106 W/m 6,7 C 6,5 C 11,3 km/h (2 Bft) 100,00 %
04.05.2016 12:21 7,6 C 95 % 1024,6 hPa 0,0 l/m 8,5 km/h (2 Bft) W 268 0 min 0,000 mm 0,7 UV-I 105 W/m 6,9 C 6,0 C 12,9 km/h (3 Bft) 100,00 %
04.05.2016 12:22 7,7 C 95 % 1024,5 hPa 0,0 l/m 16,4 km/h (3 Bft) W 261 0 min 0,000 mm 0,7 UV-I 104 W/m 7,0 C 1,7 C 27,4 km/h (4 Bft) 97,30 %
04.05.2016 12:23 7,6 C 94 % 1024,6 hPa 0,2 l/m 12,3 km/h (3 Bft) W 265 0 min 0,000 mm 0,6 UV-I 101 W/m 6,7 C 3,6 C 19,3 km/h (3 Bft) 100,00 %
04.05.2016 12:24 7,6 C 94 % 1024,6 hPa 0,0 l/m 7,7 km/h (2 Bft) W-SW 251 0 min 0,000 mm 0,6 UV-I 98 W/m 6,7 C 6,6 C 12,9 km/h (3 Bft) 96,55 %
04.05.2016 12:25 7,6 C 94 % 1024,6 hPa 0,0 l/m 9,3 km/h (2 Bft) W-SW 251 0 min 0,000 mm 0,6 UV-I 98 W/m 6,7 C 5,4 C 14,5 km/h (3 Bft) 100,00 %
04.05.2016 12:26 7,6 C 94 % 1024,5 hPa 0,0 l/m 16,2 km/h (3 Bft) W 263 0 min 0,000 mm 0,6 UV-I 97 W/m 6,7 C 1,7 C 22,5 km/h (4 Bft) 100,00 %
04.05.2016 12:27 7,6 C 94 % 1024,5 hPa 0,0 l/m 12,7 km/h (3 Bft) SW 232 0 min 0,000 mm 0,6 UV-I 97 W/m 6,7 C 3,4 C 17,7 km/h (3 Bft) 100,00 %
04.05.2016 12:28 7,6 C 94 % 1024,6 hPa 0,0 l/m 8,4 km/h (2 Bft) W-SW 249 0 min 0,000 mm 0,6 UV-I 97 W/m 6,7 C 6,0 C 11,3 km/h (2 Bft) 100,00 %
04.05.2016 12:29 7,6 C 94 % 1024,6 hPa 0,0 l/m 8,8 km/h (2 Bft) W-SW 239 0 min 0,000 mm 0,6 UV-I 97 W/m 6,7 C 5,7 C 12,9 km/h (3 Bft) 100,00 %
04.05.2016 12:30 7,7 C 94 % 1024,6 hPa 0,0 l/m 7,1 km/h (2 Bft) SW 226 0 min 0,000 mm 0,6 UV-I 98 W/m 6,8 C 7,1 C 11,3 km/h (2 Bft) 100,00 %
04.05.2016 12:31 7,6 C 94 % 1024,6 hPa 0,0 l/m 10,6 km/h (2 Bft) SW 232 0 min 0,000 mm 0,6 UV-I 99 W/m 6,7 C 4,6 C 16,1 km/h (3 Bft) 100,00 %
04.05.2016 12:32 7,7 C 94 % 1024,6 hPa 0,0 l/m 12,9 km/h (3 Bft) W-SW 257 0 min 0,000 mm 0,7 UV-I 101 W/m 6,8 C 3,4 C 16,1 km/h (3 Bft) 100,00 %
04.05.2016 12:33 7,6 C 94 % 1024,6 hPa 0,0 l/m 9,2 km/h (2 Bft) W-SW 257 0 min 0,000 mm 0,7 UV-I 103 W/m 6,7 C 5,5 C 14,5 km/h (3 Bft) 91,67 %
04.05.2016 12:34 7,7 C 94 % 1024,6 hPa 0,2 l/m 6,8 km/h (2 Bft) W-SW 252 0 min 0,000 mm 0,7 UV-I 105 W/m 6,8 C 7,4 C 8,0 km/h (2 Bft) 100,00 %
04.05.2016 12:35 7,7 C 94 % 1024,6 hPa 0,0 l/m 7,2 km/h (2 Bft) W-SW 245 0 min 0,000 mm 0,7 UV-I 106 W/m 6,8 C 7,1 C 9,7 km/h (2 Bft) 100,00 %
04.05.2016 12:36 7,7 C 94 % 1024,6 hPa 0,0 l/m 9,3 km/h (2 Bft) W 270 0 min 0,000 mm 0,7 UV-I 109 W/m 6,8 C 5,5 C 12,9 km/h (3 Bft) 100,00 %
04.05.2016 12:37 7,7 C 94 % 1024,6 hPa 0,0 l/m 8,4 km/h (2 Bft) W-SW 258 0 min 0,000 mm 0,7 UV-I 109 W/m 6,8 C 6,1 C 11,3 km/h (2 Bft) 100,00 %
04.05.2016 12:38 7,7 C 94 % 1024,6 hPa 0,0 l/m 8,4 km/h (2 Bft) W-SW 242 0 min 0,000 mm 0,7 UV-I 108 W/m 6,8 C 6,1 C 12,9 km/h (3 Bft) 91,67 %
04.05.2016 12:39 7,7 C 94 % 1024,6 hPa 0,0 l/m 10,0 km/h (2 Bft) W 261 0 min 0,000 mm 0,7 UV-I 106 W/m 6,8 C 5,1 C 14,5 km/h (3 Bft) 100,00 %
04.05.2016 12:40 7,7 C 94 % 1024,6 hPa 0,0 l/m 13,5 km/h (3 Bft) W-SW 244 0 min 0,000 mm 0,7 UV-I 104 W/m 6,8 C 3,1 C 17,7 km/h (3 Bft) 100,00 %
04.05.2016 12:41 7,7 C 94 % 1024,6 hPa 0,0 l/m 9,8 km/h (2 Bft) W-SW 246 0 min 0,000 mm 0,7 UV-I 102 W/m 6,8 C 5,2 C 12,9 km/h (3 Bft) 95,65 %
04.05.2016 12:42 7,7 C 94 % 1024,6 hPa 0,0 l/m 8,6 km/h (2 Bft) W-SW 257 0 min 0,000 mm 0,6 UV-I 98 W/m 6,8 C 6,0 C 12,9 km/h (3 Bft) 100,00 %
04.05.2016 12:43 7,7 C 94 % 1024,6 hPa 0,0 l/m 9,5 km/h (2 Bft) W 265 0 min 0,000 mm 0,6 UV-I 96 W/m 6,8 C 5,4 C 14,5 km/h (3 Bft) 100,00 %
04.05.2016 12:44 7,7 C 94 % 1024,6 hPa 0,2 l/m 11,3 km/h (2 Bft) W 266 0 min 0,000 mm 0,6 UV-I 94 W/m 6,8 C 4,3 C 14,5 km/h (3 Bft) 96,55 %
04.05.2016 12:45 7,7 C 94 % 1024,6 hPa 0,0 l/m 8,4 km/h (2 Bft) W-SW 244 0 min 0,000 mm 0,6 UV-I 93 W/m 6,8 C 6,1 C 12,9 km/h (3 Bft) 100,00 %
04.05.2016 12:46 7,7 C 94 % 1024,6 hPa 0,0 l/m 8,9 km/h (2 Bft) W-SW 258 0 min 0,000 mm 0,6 UV-I 93 W/m 6,8 C 5,8 C 14,5 km/h (3 Bft) 100,00 %
04.05.2016 12:47 7,7 C 94 % 1024,6 hPa 0,0 l/m 10,2 km/h (2 Bft) W-SW 254 0 min 0,000 mm 0,6 UV-I 93 W/m 6,8 C 4,9 C 14,5 km/h (3 Bft) 100,00 %
04.05.2016 12:48 7,7 C 94 % 1024,6 hPa 0,0 l/m 12,0 km/h (2 Bft) W-SW 256 0 min 0,000 mm 0,6 UV-I 95 W/m 6,8 C 3,9 C 14,5 km/h (3 Bft) 100,00 %
04.05.2016 12:49 7,7 C 94 % 1024,6 hPa 0,0 l/m 8,5 km/h (2 Bft) W-SW 257 0 min 0,000 mm 0,6 UV-I 97 W/m 6,8 C 6,1 C 12,9 km/h (3 Bft) 100,00 %
04.05.2016 12:50 7,7 C 94 % 1024,6 hPa 0,0 l/m 9,1 km/h (2 Bft) W 269 0 min 0,000 mm 0,6 UV-I 97 W/m 6,8 C 5,6 C 16,1 km/h (3 Bft) 100,00 %
04.05.2016 12:51 7,7 C 94 % 1024,6 hPa 0,0 l/m 8,0 km/h (2 Bft) W-SW 248 0 min 0,000 mm 0,6 UV-I 97 W/m 6,8 C 6,4 C 11,3 km/h (2 Bft) 96,67 %
04.05.2016 12:52 7,7 C 94 % 1024,6 hPa 0,0 l/m 11,3 km/h (2 Bft) W-SW 250 0 min 0,000 mm 0,6 UV-I 97 W/m 6,8 C 4,3 C 16,1 km/h (3 Bft) 95,65 %
04.05.2016 12:53 7,7 C 94 % 1024,6 hPa 0,0 l/m 12,9 km/h (3 Bft) W 261 0 min 0,000 mm 0,6 UV-I 97 W/m 6,8 C 3,4 C 16,1 km/h (3 Bft) 100,00 %
04.05.2016 12:54 7,7 C 94 % 1024,7 hPa 0,0 l/m 9,7 km/h (2 Bft) W-SW 257 0 min 0,000 mm 0,6 UV-I 97 W/m 6,8 C 5,2 C 14,5 km/h (3 Bft) 95,65 %
04.05.2016 12:55 7,7 C 94 % 1024,6 hPa 0,0 l/m 9,4 km/h (2 Bft) W-SW 250 0 min 0,000 mm 0,6 UV-I 94 W/m 6,8 C 5,4 C 16,1 km/h (3 Bft) 95,83 %
04.05.2016 12:56 7,7 C 94 % 1024,6 hPa 0,0 l/m 7,8 km/h (2 Bft) W-SW 249 0 min 0,000 mm 0,6 UV-I 92 W/m 6,8 C 6,6 C 11,3 km/h (2 Bft) 100,00 %
04.05.2016 12:57 7,8 C 94 % 1024,7 hPa 0,0 l/m 12,2 km/h (2 Bft) W-SW 246 0 min 0,000 mm 0,6 UV-I 91 W/m 6,9 C 3,9 C 16,1 km/h (3 Bft) 95,83 %
04.05.2016 12:58 7,8 C 94 % 1024,7 hPa 0,0 l/m 7,5 km/h (2 Bft) W-SW 252 0 min 0,000 mm 0,6 UV-I 90 W/m 6,9 C 6,9 C 11,3 km/h (2 Bft) 100,00 %
04.05.2016 12:59 7,8 C 94 % 1024,7 hPa 0,0 l/m 6,6 km/h (2 Bft) S-SW 204 0 min 0,000 mm 0,6 UV-I 90 W/m 6,9 C 7,7 C 9,7 km/h (2 Bft) 91,67 %
04.05.2016 13:00 7,8 C 94 % 1024,7 hPa 0,0 l/m 9,7 km/h (2 Bft) SW 227 0 min 0,000 mm 0,6 UV-I 90 W/m 6,9 C 5,4 C 14,5 km/h (3 Bft) 96,15 %
04.05.2016 13:01 7,8 C 94 % 1024,7 hPa 0,2 l/m 7,3 km/h (2 Bft) W 277 0 min 0,051 mm 0,6 UV-I 88 W/m 6,9 C 7,1 C 9,7 km/h (2 Bft) 96,30 %
04.05.2016 13:02 7,8 C 94 % 1024,7 hPa 0,0 l/m 10,7 km/h (2 Bft) W-SW 250 0 min 0,000 mm 0,6 UV-I 88 W/m 6,9 C 4,7 C 14,5 km/h (3 Bft) 96,15 %
04.05.2016 13:03 7,8 C 94 % 1024,7 hPa 0,0 l/m 8,9 km/h (2 Bft) W-NW 290 0 min 0,000 mm 0,6 UV-I 88 W/m 6,9 C 5,9 C 12,9 km/h (3 Bft) 100,00 %
04.05.2016 13:04 7,8 C 94 % 1024,7 hPa 0,0 l/m 8,2 km/h (2 Bft) SW 234 0 min 0,000 mm 0,6 UV-I 88 W/m 6,9 C 6,4 C 12,9 km/h (3 Bft) 95,65 %
04.05.2016 13:05 7,8 C 94 % 1024,7 hPa 0,0 l/m 9,3 km/h (2 Bft) W-SW 255 0 min 0,000 mm 0,6 UV-I 88 W/m 6,9 C 5,6 C 11,3 km/h (2 Bft) 100,00 %
04.05.2016 13:06 7,8 C 94 % 1024,7 hPa 0,0 l/m 10,1 km/h (2 Bft) W-SW 248 0 min 0,000 mm 0,6 UV-I 88 W/m 6,9 C 5,1 C 16,1 km/h (3 Bft) 92,31 %
04.05.2016 13:07 7,8 C 94 % 1024,7 hPa 0,0 l/m 13,5 km/h (3 Bft) W 272 0 min 0,000 mm 0,6 UV-I 89 W/m 6,9 C 3,2 C 17,7 km/h (3 Bft) 100,00 %
04.05.2016 13:08 7,8 C 93 % 1024,7 hPa 0,0 l/m 10,9 km/h (2 Bft) W 275 0 min 0,000 mm 0,6 UV-I 90 W/m 6,7 C 4,6 C 16,1 km/h (3 Bft) 93,33 %
04.05.2016 13:09 7,8 C 93 % 1024,7 hPa 0,0 l/m 9,9 km/h (2 Bft) W 263 0 min 0,000 mm 0,6 UV-I 90 W/m 6,7 C 5,2 C 14,5 km/h (3 Bft) 100,00 %
04.05.2016 13:10 7,8 C 93 % 1024,7 hPa 0,0 l/m 8,0 km/h (2 Bft) W 261 0 min 0,000 mm 0,6 UV-I 91 W/m 6,7 C 6,5 C 11,3 km/h (2 Bft) 95,83 %
04.05.2016 13:11 7,8 C 93 % 1024,7 hPa 0,2 l/m 7,3 km/h (2 Bft) W-SW 249 0 min 0,000 mm 0,6 UV-I 92 W/m 6,7 C 7,1 C 11,3 km/h (2 Bft) 93,75 %
04.05.2016 13:12 7,8 C 94 % 1024,7 hPa 0,0 l/m 8,0 km/h (2 Bft) W 260 0 min 0,000 mm 0,6 UV-I 96 W/m 6,9 C 6,5 C 11,3 km/h (2 Bft) 100,00 %
04.05.2016 13:13 7,8 C 94 % 1024,7 hPa 0,0 l/m 9,4 km/h (2 Bft) W-SW 241 0 min 0,000 mm 0,6 UV-I 97 W/m 6,9 C 5,6 C 14,5 km/h (3 Bft) 96,15 %
04.05.2016 13:14 7,8 C 93 % 1024,7 hPa 0,0 l/m 7,2 km/h (2 Bft) W-SW 247 0 min 0,000 mm 0,6 UV-I 101 W/m 6,7 C 7,2 C 11,3 km/h (2 Bft) 100,00 %
04.05.2016 13:15 7,8 C 94 % 1024,7 hPa 0,0 l/m 7,0 km/h (2 Bft) W-SW 250 0 min 0,000 mm 0,7 UV-I 103 W/m 6,9 C 7,3 C 9,7 km/h (2 Bft) 95,65 %
04.05.2016 13:16 7,8 C 94 % 1024,8 hPa 0,0 l/m 6,4 km/h (2 Bft) W-SW 238 0 min 0,000 mm 0,7 UV-I 107 W/m 6,9 C 7,8 C 9,7 km/h (2 Bft) 96,30 %
04.05.2016 13:17 7,8 C 94 % 1024,8 hPa 0,0 l/m 10,2 km/h (2 Bft) W 275 0 min 0,000 mm 0,7 UV-I 111 W/m 6,9 C 5,0 C 14,5 km/h (3 Bft) 92,86 %
04.05.2016 13:18 7,9 C 94 % 1024,8 hPa 0,0 l/m 9,7 km/h (2 Bft) S-SW 192 0 min 0,000 mm 0,7 UV-I 113 W/m 7,0 C 5,5 C 16,1 km/h (3 Bft) 100,00 %
04.05.2016 13:19 7,9 C 94 % 1024,8 hPa 0,0 l/m 10,5 km/h (2 Bft) S-SW 196 0 min 0,000 mm 0,7 UV-I 115 W/m 7,0 C 5,0 C 14,5 km/h (3 Bft) 96,15 %
04.05.2016 13:20 7,9 C 93 % 1024,8 hPa 0,0 l/m 9,1 km/h (2 Bft) W 277 0 min 0,000 mm 0,7 UV-I 117 W/m 6,8 C 5,9 C 11,3 km/h (2 Bft) 96,30 %
04.05.2016 13:21 7,9 C 94 % 1024,7 hPa 0,0 l/m 9,8 km/h (2 Bft) SW 229 0 min 0,000 mm 0,8 UV-I 119 W/m 7,0 C 5,4 C 14,5 km/h (3 Bft) 100,00 %
04.05.2016 13:22 7,9 C 94 % 1024,7 hPa 0,2 l/m 10,0 km/h (2 Bft) W-SW 249 0 min 0,000 mm 0,8 UV-I 121 W/m 7,0 C 5,3 C 14,5 km/h (3 Bft) 96,55 %
04.05.2016 13:23 7,9 C 94 % 1024,7 hPa 0,0 l/m 9,7 km/h (2 Bft) W-SW 245 0 min 0,000 mm 0,8 UV-I 123 W/m 7,0 C 5,5 C 12,9 km/h (3 Bft) 100,00 %
04.05.2016 13:24 7,9 C 94 % 1024,7 hPa 0,0 l/m 9,1 km/h (2 Bft) W-SW 246 0 min 0,000 mm 0,8 UV-I 124 W/m 7,0 C 5,9 C 12,9 km/h (3 Bft) 95,83 %
04.05.2016 13:25 7,9 C 94 % 1024,7 hPa 0,0 l/m 6,1 km/h (2 Bft) W 259 0 min 0,000 mm 0,8 UV-I 125 W/m 7,0 C 7,9 C 9,7 km/h (2 Bft) 100,00 %
04.05.2016 13:26 7,9 C 94 % 1024,7 hPa 0,0 l/m 5,8 km/h (2 Bft) W-SW 240 0 min 0,000 mm 0,8 UV-I 125 W/m 7,0 C 7,9 C 8,0 km/h (2 Bft) 91,67 %
04.05.2016 13:27 8,0 C 94 % 1024,7 hPa 0,0 l/m 7,4 km/h (2 Bft) SW 226 0 min 0,000 mm 0,8 UV-I 125 W/m 7,1 C 7,2 C 11,3 km/h (2 Bft) 100,00 %
04.05.2016 13:28 8,0 C 94 % 1024,7 hPa 0,0 l/m 6,0 km/h (2 Bft) W-SW 244 0 min 0,000 mm 0,8 UV-I 125 W/m 7,1 C 8,0 C 8,0 km/h (2 Bft) 95,65 %
04.05.2016 13:29 7,9 C 94 % 1024,8 hPa 0,0 l/m 7,1 km/h (2 Bft) W 268 0 min 0,000 mm 0,8 UV-I 125 W/m 7,0 C 7,3 C 9,7 km/h (2 Bft) 100,00 %
04.05.2016 13:30 8,0 C 94 % 1024,8 hPa 0,2 l/m 5,9 km/h (2 Bft) W 259 0 min 0,000 mm 0,8 UV-I 124 W/m 7,1 C 8,0 C 8,0 km/h (2 Bft) 97,56 %
04.05.2016 13:31 8,0 C 94 % 1024,7 hPa 0,0 l/m 6,1 km/h (2 Bft) S-SW 211 0 min 0,000 mm 0,8 UV-I 123 W/m 7,1 C 8,0 C 9,7 km/h (2 Bft) 100,00 %
04.05.2016 13:32 8,0 C 94 % 1024,7 hPa 0,0 l/m 5,0 km/h (1 Bft) W 270 0 min 0,000 mm 0,8 UV-I 119 W/m 7,1 C 8,0 C 9,7 km/h (2 Bft) 100,00 %
04.05.2016 13:33 8,1 C 94 % 1024,7 hPa 0,0 l/m 6,9 km/h (2 Bft) W-SW 250 0 min 0,000 mm 0,7 UV-I 118 W/m 7,2 C 7,7 C 9,7 km/h (2 Bft) 100,00 %
04.05.2016 13:34 8,1 C 94 % 1024,7 hPa 0,0 l/m 7,7 km/h (2 Bft) W 260 0 min 0,000 mm 0,7 UV-I 118 W/m 7,2 C 7,1 C 11,3 km/h (2 Bft) 100,00 %
04.05.2016 13:35 8,1 C 94 % 1024,7 hPa 0,0 l/m 6,7 km/h (2 Bft) W 264 0 min 0,000 mm 0,7 UV-I 118 W/m 7,2 C 7,9 C 9,7 km/h (2 Bft) 100,00 %
04.05.2016 13:36 8,1 C 94 % 1024,7 hPa 0,0 l/m 8,9 km/h (2 Bft) W-SW 249 0 min 0,000 mm 0,7 UV-I 115 W/m 7,2 C 6,2 C 14,5 km/h (3 Bft) 95,65 %
04.05.2016 13:37 8,1 C 94 % 1024,7 hPa 0,0 l/m 9,3 km/h (2 Bft) W 270 0 min 0,000 mm 0,7 UV-I 112 W/m 7,2 C 5,9 C 12,9 km/h (3 Bft) 100,00 %
04.05.2016 13:38 8,1 C 94 % 1024,7 hPa 0,0 l/m 6,8 km/h (2 Bft) W-SW 253 0 min 0,000 mm 0,7 UV-I 110 W/m 7,2 C 7,8 C 11,3 km/h (2 Bft) 100,00 %
04.05.2016 13:39 8,1 C 94 % 1024,7 hPa 0,0 l/m 9,5 km/h (2 Bft) W-SW 238 0 min 0,000 mm 0,7 UV-I 106 W/m 7,2 C 5,8 C 14,5 km/h (3 Bft) 100,00 %
04.05.2016 13:40 8,1 C 94 % 1024,8 hPa 0,0 l/m 6,5 km/h (2 Bft) W-SW 254 0 min 0,000 mm 0,6 UV-I 104 W/m 7,2 C 8,0 C 9,7 km/h (2 Bft) 100,00 %
04.05.2016 13:41 8,1 C 94 % 1024,7 hPa 0,0 l/m 6,9 km/h (2 Bft) W-SW 252 0 min 0,000 mm 0,6 UV-I 104 W/m 7,2 C 7,7 C 11,3 km/h (2 Bft) 100,00 %
04.05.2016 13:42 8,1 C 94 % 1024,8 hPa 0,0 l/m 8,0 km/h (2 Bft) W-SW 254 0 min 0,000 mm 0,6 UV-I 104 W/m 7,2 C 6,9 C 11,3 km/h (2 Bft) 100,00 %
04.05.2016 13:43 8,1 C 94 % 1024,8 hPa 0,0 l/m 7,2 km/h (2 Bft) W-SW 243 0 min 0,000 mm 0,7 UV-I 106 W/m 7,2 C 7,5 C 12,9 km/h (3 Bft) 96,30 %
04.05.2016 13:44 8,1 C 94 % 1024,8 hPa 0,0 l/m 8,0 km/h (2 Bft) W-SW 253 0 min 0,000 mm 0,7 UV-I 110 W/m 7,2 C 6,9 C 11,3 km/h (2 Bft) 100,00 %
04.05.2016 13:45 8,1 C 94 % 1024,8 hPa 0,0 l/m 5,6 km/h (1 Bft) W-SW 254 0 min 0,000 mm 0,7 UV-I 117 W/m 7,2 C 8,1 C 8,0 km/h (2 Bft) 100,00 %
04.05.2016 13:46 8,2 C 94 % 1024,8 hPa 0,0 l/m 5,6 km/h (1 Bft) W-SW 242 0 min 0,000 mm 0,8 UV-I 121 W/m 7,3 C 8,2 C 9,7 km/h (2 Bft) 100,00 %
04.05.2016 13:47 8,2 C 94 % 1024,8 hPa 0,0 l/m 6,1 km/h (2 Bft) W-SW 237 0 min 0,000 mm 0,8 UV-I 121 W/m 7,3 C 8,2 C 8,0 km/h (2 Bft) 100,00 %
04.05.2016 13:48 8,2 C 94 % 1024,8 hPa 0,0 l/m 6,1 km/h (2 Bft) W-SW 252 0 min 0,000 mm 0,8 UV-I 121 W/m 7,3 C 8,2 C 8,0 km/h (2 Bft) 100,00 %
04.05.2016 13:49 8,2 C 94 % 1024,8 hPa 0,0 l/m 6,8 km/h (2 Bft) W-SW 254 0 min 0,000 mm 0,8 UV-I 121 W/m 7,3 C 7,9 C 12,9 km/h (3 Bft) 100,00 %
04.05.2016 13:50 8,2 C 94 % 1024,8 hPa 0,2 l/m 6,3 km/h (2 Bft) W-NW 284 0 min 0,000 mm 0,8 UV-I 121 W/m 7,3 C 8,2 C 9,7 km/h (2 Bft) 96,15 %
04.05.2016 13:51 8,2 C 94 % 1024,8 hPa 0,0 l/m 3,4 km/h (1 Bft) W 264 0 min 0,000 mm 0,7 UV-I 120 W/m 7,3 C 8,2 C 6,4 km/h (2 Bft) 100,00 %
04.05.2016 13:52 8,2 C 94 % 1024,9 hPa 0,0 l/m 4,7 km/h (1 Bft) W 263 0 min 0,000 mm 0,7 UV-I 118 W/m 7,3 C 8,2 C 6,4 km/h (2 Bft) 100,00 %
04.05.2016 13:53 8,2 C 94 % 1024,9 hPa 0,0 l/m 6,0 km/h (2 Bft) W-SW 254 0 min 0,000 mm 0,7 UV-I 120 W/m 7,3 C 8,2 C 9,7 km/h (2 Bft) 100,00 %
04.05.2016 13:54 8,2 C 93 % 1024,8 hPa 0,0 l/m 9,0 km/h (2 Bft) W-SW 254 0 min 0,000 mm 0,7 UV-I 120 W/m 7,1 C 6,3 C 11,3 km/h (2 Bft) 100,00 %
04.05.2016 13:55 8,2 C 94 % 1024,9 hPa 0,0 l/m 5,7 km/h (1 Bft) W 272 0 min 0,000 mm 0,8 UV-I 123 W/m 7,3 C 8,2 C 9,7 km/h (2 Bft) 100,00 %
04.05.2016 13:56 8,2 C 94 % 1024,9 hPa 0,0 l/m 5,7 km/h (1 Bft) W 267 0 min 0,000 mm 0,8 UV-I 127 W/m 7,3 C 8,2 C 9,7 km/h (2 Bft) 100,00 %
04.05.2016 13:57 8,1 C 94 % 1024,9 hPa 0,2 l/m 5,6 km/h (1 Bft) SW 234 0 min 0,000 mm 0,8 UV-I 133 W/m 7,2 C 8,1 C 9,7 km/h (2 Bft) 100,00 %
04.05.2016 13:58 8,1 C 93 % 1024,9 hPa 0,0 l/m 8,0 km/h (2 Bft) W-SW 255 0 min 0,000 mm 0,9 UV-I 142 W/m 7,0 C 6,9 C 12,9 km/h (3 Bft) 100,00 %
04.05.2016 13:59 8,1 C 93 % 1024,9 hPa 0,0 l/m 6,2 km/h (2 Bft) W-SW 254 0 min 0,000 mm 0,9 UV-I 153 W/m 7,0 C 8,1 C 11,3 km/h (2 Bft) 100,00 %
04.05.2016 14:00 8,1 C 93 % 1024,9 hPa 0,0 l/m 6,0 km/h (2 Bft) W 269 0 min 0,051 mm 1,0 UV-I 160 W/m 7,0 C 8,1 C 12,9 km/h (3 Bft) 100,00 %
04.05.2016 14:01 8,1 C 93 % 1024,9 hPa 0,0 l/m 10,2 km/h (2 Bft) W 264 0 min 0,000 mm 1,0 UV-I 168 W/m 7,0 C 5,4 C 14,5 km/h (3 Bft) 100,00 %
04.05.2016 14:02 8,1 C 93 % 1024,9 hPa 0,0 l/m 8,1 km/h (2 Bft) W 280 0 min 0,000 mm 1,1 UV-I 176 W/m 7,0 C 6,8 C 11,3 km/h (2 Bft) 100,00 %
04.05.2016 14:03 8,1 C 93 % 1024,9 hPa 0,0 l/m 11,6 km/h (2 Bft) W-NW 294 0 min 0,000 mm 1,1 UV-I 185 W/m 7,0 C 4,5 C 16,1 km/h (3 Bft) 100,00 %
04.05.2016 14:04 8,1 C 93 % 1024,9 hPa 0,2 l/m 6,9 km/h (2 Bft) W-NW 287 0 min 0,000 mm 1,2 UV-I 194 W/m 7,0 C 7,7 C 11,3 km/h (2 Bft) 96,30 %
04.05.2016 14:05 8,2 C 93 % 1024,8 hPa 0,0 l/m 6,4 km/h (2 Bft) W 273 0 min 0,000 mm 1,2 UV-I 200 W/m 7,1 C 8,2 C 11,3 km/h (2 Bft) 100,00 %
04.05.2016 14:06 8,2 C 93 % 1024,9 hPa 0,0 l/m 6,0 km/h (2 Bft) W-SW 257 0 min 0,000 mm 1,2 UV-I 205 W/m 7,1 C 8,2 C 9,7 km/h (2 Bft) 100,00 %
04.05.2016 14:07 8,2 C 94 % 1024,9 hPa 0,0 l/m 4,2 km/h (1 Bft) NW 315 0 min 0,000 mm 1,3 UV-I 210 W/m 7,3 C 8,2 C 6,4 km/h (2 Bft) 100,00 %
04.05.2016 14:08 8,2 C 93 % 1024,8 hPa 0,0 l/m 7,4 km/h (2 Bft) W 266 0 min 0,000 mm 1,3 UV-I 219 W/m 7,1 C 7,4 C 11,3 km/h (2 Bft) 95,83 %
04.05.2016 14:09 8,2 C 93 % 1024,9 hPa 0,2 l/m 4,8 km/h (1 Bft) W 259 0 min 0,000 mm 1,4 UV-I 232 W/m 7,1 C 8,2 C 6,4 km/h (2 Bft) 95,83 %
04.05.2016 14:10 8,2 C 93 % 1024,9 hPa 0,0 l/m 4,7 km/h (1 Bft) W 273 0 min 0,000 mm 1,5 UV-I 253 W/m 7,1 C 8,2 C 6,4 km/h (2 Bft) 100,00 %
04.05.2016 14:11 8,2 C 93 % 1024,8 hPa 0,0 l/m 4,1 km/h (1 Bft) W-NW 292 0 min 0,000 mm 1,5 UV-I 270 W/m 7,1 C 8,2 C 6,4 km/h (2 Bft) 100,00 %
04.05.2016 14:12 8,3 C 94 % 1024,9 hPa 0,0 l/m 8,1 km/h (2 Bft) W-SW 254 0 min 0,000 mm 1,6 UV-I 291 W/m 7,4 C 7,0 C 12,9 km/h (3 Bft) 100,00 %
04.05.2016 14:13 8,3 C 94 % 1024,8 hPa 0,0 l/m 3,6 km/h (1 Bft) W-SW 255 0 min 0,000 mm 1,7 UV-I 303 W/m 7,4 C 8,3 C 4,8 km/h (1 Bft) 95,83 %
04.05.2016 14:14 8,3 C 94 % 1024,9 hPa 0,0 l/m 8,6 km/h (2 Bft) W 278 0 min 0,000 mm 1,8 UV-I 307 W/m 7,4 C 6,6 C 12,9 km/h (3 Bft) 100,00 %
04.05.2016 14:15 8,4 C 94 % 1024,8 hPa 0,0 l/m 5,7 km/h (1 Bft) W-SW 244 0 min 0,000 mm 1,8 UV-I 308 W/m 7,5 C 8,4 C 12,9 km/h (3 Bft) 96,30 %
04.05.2016 14:16 8,4 C 94 % 1024,8 hPa 0,0 l/m 6,4 km/h (2 Bft) SW 234 0 min 0,000 mm 1,7 UV-I 304 W/m 7,5 C 8,4 C 8,0 km/h (2 Bft) 100,00 %
04.05.2016 14:17 8,4 C 94 % 1024,8 hPa 0,0 l/m 5,9 km/h (2 Bft) W-NW 300 0 min 0,000 mm 1,7 UV-I 302 W/m 7,5 C 8,4 C 9,7 km/h (2 Bft) 95,83 %
04.05.2016 14:18 8,5 C 94 % 1024,8 hPa 0,0 l/m 5,4 km/h (1 Bft) W-SW 258 0 min 0,000 mm 1,7 UV-I 301 W/m 7,6 C 8,5 C 11,3 km/h (2 Bft) 100,00 %
04.05.2016 14:19 8,6 C 94 % 1024,8 hPa 0,0 l/m 3,8 km/h (1 Bft) W 279 0 min 0,000 mm 1,7 UV-I 301 W/m 7,7 C 8,6 C 4,8 km/h (1 Bft) 100,00 %
04.05.2016 14:20 8,6 C 93 % 1024,8 hPa 0,0 l/m 3,7 km/h (1 Bft) W 259 0 min 0,000 mm 1,7 UV-I 301 W/m 7,5 C 8,6 C 4,8 km/h (1 Bft) 100,00 %
04.05.2016 14:21 8,6 C 93 % 1024,8 hPa 0,0 l/m 6,3 km/h (2 Bft) W 261 0 min 0,000 mm 1,7 UV-I 299 W/m 7,5 C 8,6 C 9,7 km/h (2 Bft) 100,00 %
04.05.2016 14:22 8,6 C 93 % 1024,8 hPa 0,0 l/m 4,3 km/h (1 Bft) W 267 0 min 0,000 mm 1,7 UV-I 296 W/m 7,5 C 8,6 C 6,4 km/h (2 Bft) 100,00 %
04.05.2016 14:23 8,7 C 93 % 1024,8 hPa 0,2 l/m 5,0 km/h (1 Bft) W-SW 254 0 min 0,000 mm 1,7 UV-I 292 W/m 7,6 C 8,7 C 9,7 km/h (2 Bft) 100,00 %
04.05.2016 14:24 8,7 C 93 % 1024,8 hPa 0,0 l/m 9,3 km/h (2 Bft) W-SW 252 0 min 0,000 mm 1,6 UV-I 284 W/m 7,6 C 6,6 C 12,9 km/h (3 Bft) 100,00 %
04.05.2016 14:25 8,7 C 93 % 1024,8 hPa 0,0 l/m 4,7 km/h (1 Bft) W-NW 288 0 min 0,000 mm 1,6 UV-I 276 W/m 7,6 C 8,7 C 9,7 km/h (2 Bft) 100,00 %
04.05.2016 14:26 8,7 C 92 % 1024,8 hPa 0,0 l/m 4,0 km/h (1 Bft) W 259 0 min 0,000 mm 1,5 UV-I 268 W/m 7,5 C 8,7 C 6,4 km/h (2 Bft) 100,00 %
04.05.2016 14:27 8,7 C 92 % 1024,8 hPa 0,0 l/m 8,9 km/h (2 Bft) W 263 0 min 0,000 mm 1,5 UV-I 262 W/m 7,5 C 6,9 C 11,3 km/h (2 Bft) 100,00 %
04.05.2016 14:28 8,7 C 92 % 1024,8 hPa 0,0 l/m 6,9 km/h (2 Bft) NW 311 0 min 0,000 mm 1,5 UV-I 258 W/m 7,5 C 8,3 C 12,9 km/h (3 Bft) 100,00 %
04.05.2016 14:29 8,7 C 92 % 1024,7 hPa 0,0 l/m 10,6 km/h (2 Bft) W 270 0 min 0,000 mm 1,5 UV-I 258 W/m 7,5 C 5,8 C 17,7 km/h (3 Bft) 100,00 %
04.05.2016 14:30 8,7 C 92 % 1024,7 hPa 0,0 l/m 12,3 km/h (3 Bft) W-NW 291 0 min 0,000 mm 1,5 UV-I 258 W/m 7,5 C 4,9 C 17,7 km/h (3 Bft) 100,00 %
04.05.2016 14:31 8,7 C 92 % 1024,8 hPa 0,0 l/m 7,2 km/h (2 Bft) W-NW 284 0 min 0,000 mm 1,5 UV-I 255 W/m 7,5 C 8,1 C 14,5 km/h (3 Bft) 100,00 %
04.05.2016 14:32 8,7 C 92 % 1024,8 hPa 0,0 l/m 3,5 km/h (1 Bft) W 266 0 min 0,000 mm 1,4 UV-I 251 W/m 7,5 C 8,7 C 4,8 km/h (1 Bft) 100,00 %
04.05.2016 14:33 8,6 C 93 % 1024,8 hPa 0,0 l/m 8,0 km/h (2 Bft) NW 309 0 min 0,000 mm 1,4 UV-I 243 W/m 7,5 C 7,4 C 14,5 km/h (3 Bft) 100,00 %
04.05.2016 14:34 8,7 C 92 % 1024,8 hPa 0,0 l/m 4,3 km/h (1 Bft) N-NW 333 0 min 0,000 mm 1,4 UV-I 238 W/m 7,5 C 8,7 C 6,4 km/h (2 Bft) 100,00 %
04.05.2016 14:35 8,7 C 93 % 1024,8 hPa 0,0 l/m 3,0 km/h (1 Bft) W 267 0 min 0,000 mm 1,4 UV-I 238 W/m 7,6 C 8,7 C 6,4 km/h (2 Bft) 100,00 %
04.05.2016 14:36 8,7 C 93 % 1024,8 hPa 0,0 l/m 1,3 km/h (1 Bft) NW 323 0 min 0,000 mm 1,4 UV-I 240 W/m 7,6 C 8,7 C 3,2 km/h (1 Bft) 100,00 %
04.05.2016 14:37 8,7 C 93 % 1024,8 hPa 0,0 l/m 6,2 km/h (2 Bft) NW 304 0 min 0,000 mm 1,4 UV-I 243 W/m 7,6 C 8,7 C 14,5 km/h (3 Bft) 100,00 %
04.05.2016 14:38 8,7 C 93 % 1024,9 hPa 0,0 l/m 7,6 km/h (2 Bft) W-NW 285 0 min 0,000 mm 1,4 UV-I 240 W/m 7,6 C 7,8 C 9,7 km/h (2 Bft) 100,00 %
04.05.2016 14:39 8,7 C 93 % 1024,9 hPa 0,0 l/m 4,8 km/h (1 Bft) W 259 0 min 0,000 mm 1,3 UV-I 236 W/m 7,6 C 8,7 C 6,4 km/h (2 Bft) 100,00 %
04.05.2016 14:40 8,7 C 93 % 1024,9 hPa 0,0 l/m 3,2 km/h (1 Bft) W-NW 286 0 min 0,000 mm 1,3 UV-I 231 W/m 7,6 C 8,7 C 4,8 km/h (1 Bft) 100,00 %
04.05.2016 14:41 8,7 C 93 % 1024,9 hPa 0,0 l/m 3,9 km/h (1 Bft) W 277 0 min 0,000 mm 1,3 UV-I 227 W/m 7,6 C 8,7 C 6,4 km/h (2 Bft) 96,15 %
04.05.2016 14:42 8,7 C 93 % 1024,9 hPa 0,0 l/m 3,9 km/h (1 Bft) NW 313 0 min 0,000 mm 1,3 UV-I 223 W/m 7,6 C 8,7 C 6,4 km/h (2 Bft) 100,00 %
04.05.2016 14:43 8,7 C 93 % 1024,9 hPa 0,0 l/m 3,7 km/h (1 Bft) W-NW 286 0 min 0,000 mm 1,3 UV-I 219 W/m 7,6 C 8,7 C 6,4 km/h (2 Bft) 98,68 %
04.05.2016 14:44 8,7 C 93 % 1024,9 hPa 0,0 l/m 2,8 km/h (1 Bft) NW 309 0 min 0,000 mm 1,3 UV-I 215 W/m 7,6 C 8,7 C 9,7 km/h (2 Bft) 97,73 %
04.05.2016 14:45 8,7 C 92 % 1024,9 hPa 0,0 l/m 2,1 km/h (1 Bft) W-NW 294 0 min 0,000 mm 1,2 UV-I 213 W/m 7,5 C 8,7 C 4,8 km/h (1 Bft) 100,00 %
04.05.2016 14:46 8,7 C 93 % 1024,9 hPa 0,0 l/m 5,4 km/h (1 Bft) W-SW 257 0 min 0,000 mm 1,2 UV-I 213 W/m 7,6 C 8,7 C 16,1 km/h (3 Bft) 100,00 %
04.05.2016 14:47 8,7 C 93 % 1024,8 hPa 0,2 l/m 9,1 km/h (2 Bft) W 261 0 min 0,000 mm 1,2 UV-I 215 W/m 7,6 C 6,7 C 16,1 km/h (3 Bft) 91,30 %
04.05.2016 14:48 8,7 C 92 % 1024,9 hPa 0,0 l/m 3,3 km/h (1 Bft) W 273 0 min 0,000 mm 1,2 UV-I 217 W/m 7,5 C 8,7 C 6,4 km/h (2 Bft) 100,00 %
04.05.2016 14:49 8,7 C 92 % 1024,8 hPa 0,0 l/m 3,5 km/h (1 Bft) W 276 0 min 0,000 mm 1,2 UV-I 219 W/m 7,5 C 8,7 C 6,4 km/h (2 Bft) 100,00 %
04.05.2016 14:50 8,7 C 92 % 1024,8 hPa 0,0 l/m 5,8 km/h (2 Bft) W 268 0 min 0,000 mm 1,2 UV-I 220 W/m 7,5 C 8,7 C 9,7 km/h (2 Bft) 100,00 %
04.05.2016 14:51 8,7 C 92 % 1024,8 hPa 0,0 l/m 3,6 km/h (1 Bft) W 269 0 min 0,000 mm 1,2 UV-I 216 W/m 7,5 C 8,7 C 6,4 km/h (2 Bft) 100,00 %
04.05.2016 14:52 8,7 C 92 % 1024,8 hPa 0,0 l/m 8,2 km/h (2 Bft) W-SW 258 0 min 0,000 mm 1,2 UV-I 211 W/m 7,5 C 7,3 C 12,9 km/h (3 Bft) 100,00 %
04.05.2016 14:53 8,7 C 91 % 1024,8 hPa 0,0 l/m 6,0 km/h (2 Bft) W-SW 258 0 min 0,000 mm 1,2 UV-I 205 W/m 7,3 C 8,7 C 9,7 km/h (2 Bft) 100,00 %
04.05.2016 14:54 8,7 C 92 % 1024,8 hPa 0,0 l/m 4,0 km/h (1 Bft) W 277 0 min 0,000 mm 1,1 UV-I 201 W/m 7,5 C 8,7 C 11,3 km/h (2 Bft) 100,00 %
04.05.2016 14:55 8,6 C 91 % 1024,8 hPa 0,0 l/m 7,0 km/h (2 Bft) SW 220 0 min 0,000 mm 1,1 UV-I 202 W/m 7,2 C 8,1 C 11,3 km/h (2 Bft) 100,00 %
04.05.2016 14:56 8,6 C 91 % 1024,8 hPa 0,0 l/m 8,0 km/h (2 Bft) W 278 0 min 0,000 mm 1,1 UV-I 206 W/m 7,2 C 7,4 C 11,3 km/h (2 Bft) 100,00 %
04.05.2016 14:57 8,6 C 92 % 1024,8 hPa 0,0 l/m 6,7 km/h (2 Bft) W 277 0 min 0,000 mm 1,2 UV-I 213 W/m 7,4 C 8,4 C 12,9 km/h (3 Bft) 95,83 %
04.05.2016 14:58 8,6 C 92 % 1024,8 hPa 0,0 l/m 7,8 km/h (2 Bft) W-NW 302 0 min 0,000 mm 1,2 UV-I 217 W/m 7,4 C 7,5 C 14,5 km/h (3 Bft) 100,00 %
04.05.2016 14:59 8,7 C 92 % 1024,8 hPa 0,0 l/m 2,7 km/h (1 Bft) W-NW 292 0 min 0,000 mm 1,2 UV-I 220 W/m 7,5 C 8,7 C 4,8 km/h (1 Bft) 91,67 %
04.05.2016 15:00 8,7 C 93 % 1024,8 hPa 0,0 l/m 4,1 km/h (1 Bft) SW 235 0 min 0,101 mm 1,2 UV-I 222 W/m 7,6 C 8,7 C 11,3 km/h (2 Bft) 100,00 %
04.05.2016 15:01 8,8 C 93 % 1024,8 hPa 0,0 l/m 6,7 km/h (2 Bft) W 281 0 min 0,000 mm 1,2 UV-I 224 W/m 7,7 C 8,6 C 11,3 km/h (2 Bft) 96,67 %
04.05.2016 15:02 8,8 C 92 % 1024,8 hPa 0,0 l/m 4,9 km/h (1 Bft) W-SW 250 0 min 0,000 mm 1,2 UV-I 225 W/m 7,6 C 8,8 C 6,4 km/h (2 Bft) 98,68 %
04.05.2016 15:03 8,8 C 92 % 1024,8 hPa 0,0 l/m 5,9 km/h (2 Bft) W-NW 298 0 min 0,000 mm 1,2 UV-I 225 W/m 7,6 C 8,8 C 11,3 km/h (2 Bft) 97,87 %
04.05.2016 15:04 8,8 C 92 % 1024,9 hPa 0,0 l/m 2,5 km/h (1 Bft) W-NW 301 0 min 0,000 mm 1,2 UV-I 225 W/m 7,6 C 8,8 C 4,8 km/h (1 Bft) 96,15 %
04.05.2016 15:05 8,8 C 92 % 1024,9 hPa 0,0 l/m 9,9 km/h (2 Bft) W-NW 292 0 min 0,000 mm 1,2 UV-I 224 W/m 7,6 C 6,3 C 14,5 km/h (3 Bft) 100,00 %
04.05.2016 15:06 8,8 C 92 % 1024,8 hPa 0,0 l/m 9,7 km/h (2 Bft) W-NW 288 0 min 0,000 mm 1,2 UV-I 222 W/m 7,6 C 6,5 C 14,5 km/h (3 Bft) 96,15 %
04.05.2016 15:07 8,7 C 91 % 1024,8 hPa 0,0 l/m 8,9 km/h (2 Bft) W 273 0 min 0,000 mm 1,2 UV-I 221 W/m 7,3 C 6,9 C 14,5 km/h (3 Bft) 100,00 %
04.05.2016 15:08 8,7 C 90 % 1024,8 hPa 0,0 l/m 7,8 km/h (2 Bft) NW 309 0 min 0,000 mm 1,2 UV-I 223 W/m 7,2 C 7,6 C 14,5 km/h (3 Bft) 95,83 %
04.05.2016 15:09 8,7 C 90 % 1024,8 hPa 0,0 l/m 4,7 km/h (1 Bft) W-SW 258 0 min 0,000 mm 1,2 UV-I 221 W/m 7,2 C 8,7 C 9,7 km/h (2 Bft) 100,00 %
04.05.2016 15:10 8,7 C 91 % 1024,8 hPa 0,0 l/m 4,0 km/h (1 Bft) NW 324 0 min 0,000 mm 1,2 UV-I 219 W/m 7,3 C 8,7 C 4,8 km/h (1 Bft) 96,67 %
04.05.2016 15:11 8,7 C 91 % 1024,8 hPa 0,0 l/m 9,3 km/h (2 Bft) W-NW 293 0 min 0,000 mm 1,2 UV-I 215 W/m 7,3 C 6,6 C 14,5 km/h (3 Bft) 96,55 %
04.05.2016 15:12 8,7 C 91 % 1024,8 hPa 0,0 l/m 4,8 km/h (1 Bft) NW 320 0 min 0,000 mm 1,1 UV-I 209 W/m 7,3 C 8,7 C 9,7 km/h (2 Bft) 100,00 %
04.05.2016 15:13 8,7 C 90 % 1024,8 hPa 0,0 l/m 7,6 km/h (2 Bft) W-NW 290 0 min 0,000 mm 1,1 UV-I 203 W/m 7,2 C 7,8 C 14,5 km/h (3 Bft) 96,15 %
04.05.2016 15:14 8,7 C 90 % 1024,8 hPa 0,0 l/m 2,8 km/h (1 Bft) N-NW 344 0 min 0,000 mm 1,0 UV-I 196 W/m 7,2 C 8,7 C 4,8 km/h (1 Bft) 100,00 %
04.05.2016 15:15 8,7 C 91 % 1024,8 hPa 0,0 l/m 2,1 km/h (1 Bft) W-NW 297 0 min 0,000 mm 1,0 UV-I 192 W/m 7,3 C 8,7 C 4,8 km/h (1 Bft) 95,65 %
04.05.2016 15:16 8,7 C 91 % 1024,8 hPa 0,0 l/m 3,2 km/h (1 Bft) N-NW 346 0 min 0,000 mm 1,0 UV-I 188 W/m 7,3 C 8,7 C 4,8 km/h (1 Bft) 100,00 %
04.05.2016 15:17 8,7 C 91 % 1024,8 hPa 0,0 l/m 2,3 km/h (1 Bft) W-NW 295 0 min 0,000 mm 1,0 UV-I 182 W/m 7,3 C 8,7 C 4,8 km/h (1 Bft) 95,65 %
04.05.2016 15:18 8,7 C 92 % 1024,8 hPa 0,0 l/m 4,2 km/h (1 Bft) W-NW 294 0 min 0,000 mm 0,9 UV-I 177 W/m 7,5 C 8,7 C 6,4 km/h (2 Bft) 100,00 %
04.05.2016 15:19 8,7 C 92 % 1024,8 hPa 0,0 l/m 3,9 km/h (1 Bft) W-NW 300 0 min 0,000 mm 0,9 UV-I 176 W/m 7,5 C 8,7 C 6,4 km/h (2 Bft) 95,65 %
04.05.2016 15:20 8,8 C 92 % 1024,8 hPa 0,0 l/m 6,1 km/h (2 Bft) NW 312 0 min 0,000 mm 0,9 UV-I 179 W/m 7,6 C 8,8 C 12,9 km/h (3 Bft) 100,00 %
04.05.2016 15:21 8,7 C 90 % 1024,8 hPa 0,0 l/m 3,2 km/h (1 Bft) NW 312 0 min 0,000 mm 0,9 UV-I 184 W/m 7,2 C 8,7 C 6,4 km/h (2 Bft) 96,15 %
04.05.2016 15:22 8,7 C 90 % 1024,8 hPa 0,0 l/m 4,0 km/h (1 Bft) NW 319 0 min 0,000 mm 1,0 UV-I 186 W/m 7,2 C 8,7 C 8,0 km/h (2 Bft) 92,59 %
04.05.2016 15:23 8,7 C 90 % 1024,7 hPa 0,0 l/m 4,5 km/h (1 Bft) SW 232 0 min 0,000 mm 1,0 UV-I 188 W/m 7,2 C 8,7 C 6,4 km/h (2 Bft) 94,12 %
04.05.2016 15:24 8,7 C 89 % 1024,7 hPa 0,0 l/m 3,6 km/h (1 Bft) N-NW 333 0 min 0,000 mm 1,0 UV-I 192 W/m 7,0 C 8,7 C 4,8 km/h (1 Bft) 96,30 %
04.05.2016 15:25 8,7 C 90 % 1024,8 hPa 0,0 l/m 5,7 km/h (1 Bft) NW 306 0 min 0,000 mm 1,0 UV-I 192 W/m 7,2 C 8,7 C 11,3 km/h (2 Bft) 100,00 %
04.05.2016 15:26 8,7 C 89 % 1024,7 hPa 0,0 l/m 6,2 km/h (2 Bft) W 261 0 min 0,000 mm 1,0 UV-I 192 W/m 7,0 C 8,7 C 11,3 km/h (2 Bft) 89,66 %
04.05.2016 15:27 8,7 C 90 % 1024,7 hPa 0,0 l/m 4,6 km/h (1 Bft) W 271 0 min 0,000 mm 1,0 UV-I 191 W/m 7,2 C 8,7 C 6,4 km/h (2 Bft) 100,00 %
04.05.2016 15:28 8,7 C 90 % 1024,7 hPa 0,0 l/m 4,6 km/h (1 Bft) W-NW 285 0 min 0,000 mm 1,0 UV-I 187 W/m 7,2 C 8,7 C 11,3 km/h (2 Bft) 96,15 %
04.05.2016 15:29 8,7 C 90 % 1024,7 hPa 0,0 l/m 5,7 km/h (1 Bft) NW 304 0 min 0,000 mm 0,9 UV-I 183 W/m 7,2 C 8,7 C 11,3 km/h (2 Bft) 100,00 %
04.05.2016 15:30 8,6 C 89 % 1024,8 hPa 0,0 l/m 5,3 km/h (1 Bft) W-SW 257 0 min 0,000 mm 0,9 UV-I 180 W/m 6,9 C 8,6 C 14,5 km/h (3 Bft) 96,15 %
04.05.2016 15:31 8,7 C 90 % 1024,8 hPa 0,0 l/m 4,3 km/h (1 Bft) W-SW 250 0 min 0,000 mm 0,9 UV-I 176 W/m 7,2 C 8,7 C 6,4 km/h (2 Bft) 95,83 %
04.05.2016 15:32 8,7 C 90 % 1024,7 hPa 0,0 l/m 1,8 km/h (1 Bft) W-NW 292 0 min 0,000 mm 0,9 UV-I 176 W/m 7,2 C 8,7 C 3,2 km/h (1 Bft) 100,00 %
04.05.2016 15:33 8,7 C 90 % 1024,7 hPa 0,0 l/m 3,7 km/h (1 Bft) W-NW 298 0 min 0,000 mm 0,9 UV-I 174 W/m 7,2 C 8,7 C 4,8 km/h (1 Bft) 91,67 %
04.05.2016 15:34 8,7 C 90 % 1024,8 hPa 0,0 l/m 3,7 km/h (1 Bft) W-SW 245 0 min 0,000 mm 0,9 UV-I 172 W/m 7,2 C 8,7 C 6,4 km/h (2 Bft) 100,00 %
04.05.2016 15:35 8,7 C 91 % 1024,8 hPa 0,0 l/m 5,1 km/h (1 Bft) NW 319 0 min 0,000 mm 0,9 UV-I 170 W/m 7,3 C 8,7 C 6,4 km/h (2 Bft) 100,00 %
04.05.2016 15:36 8,8 C 90 % 1024,8 hPa 0,0 l/m 5,4 km/h (1 Bft) SW 227 0 min 0,000 mm 0,8 UV-I 164 W/m 7,3 C 8,8 C 6,4 km/h (2 Bft) 100,00 %
04.05.2016 15:37 8,8 C 90 % 1024,7 hPa 0,0 l/m 2,7 km/h (1 Bft) N 10 0 min 0,000 mm 0,8 UV-I 158 W/m 7,3 C 8,8 C 6,4 km/h (2 Bft) 100,00 %
04.05.2016 15:38 8,8 C 90 % 1024,7 hPa 0,0 l/m 2,6 km/h (1 Bft) NW 308 0 min 0,000 mm 0,8 UV-I 151 W/m 7,3 C 8,8 C 4,8 km/h (1 Bft) 95,65 %
04.05.2016 15:39 8,8 C 90 % 1024,7 hPa 0,0 l/m 2,6 km/h (1 Bft) W-NW 286 0 min 0,000 mm 0,7 UV-I 145 W/m 7,3 C 8,8 C 4,8 km/h (1 Bft) 100,00 %
04.05.2016 15:40 8,8 C 89 % 1024,7 hPa 0,0 l/m 3,4 km/h (1 Bft) W-NW 297 0 min 0,000 mm 0,7 UV-I 141 W/m 7,1 C 8,8 C 6,4 km/h (2 Bft) 100,00 %
04.05.2016 15:41 8,7 C 89 % 1024,7 hPa 0,0 l/m 10,3 km/h (2 Bft) N-NO 14 0 min 0,000 mm 0,7 UV-I 136 W/m 7,0 C 6,0 C 16,1 km/h (3 Bft) 100,00 %
04.05.2016 15:42 8,7 C 87 % 1024,7 hPa 0,0 l/m 2,7 km/h (1 Bft) W 269 0 min 0,000 mm 0,7 UV-I 133 W/m 6,7 C 8,7 C 4,8 km/h (1 Bft) 98,62 %
04.05.2016 15:43 8,7 C 88 % 1024,7 hPa 0,0 l/m 3,1 km/h (1 Bft) W 269 0 min 0,000 mm 0,7 UV-I 130 W/m 6,8 C 8,7 C 6,4 km/h (2 Bft) 97,56 %
04.05.2016 15:44 8,7 C 89 % 1024,7 hPa 0,0 l/m 3,9 km/h (1 Bft) W 263 0 min 0,000 mm 0,6 UV-I 128 W/m 7,0 C 8,7 C 6,4 km/h (2 Bft) 96,15 %
04.05.2016 15:45 8,7 C 88 % 1024,7 hPa 0,0 l/m 2,0 km/h (1 Bft) W 263 0 min 0,000 mm 0,6 UV-I 127 W/m 6,8 C 8,7 C 3,2 km/h (1 Bft) 95,83 %
04.05.2016 15:46 8,8 C 89 % 1024,7 hPa 0,0 l/m 2,8 km/h (1 Bft) N-NO 27 0 min 0,000 mm 0,6 UV-I 127 W/m 7,1 C 8,8 C 4,8 km/h (1 Bft) 100,00 %
04.05.2016 15:47 8,7 C 89 % 1024,7 hPa 0,0 l/m 2,7 km/h (1 Bft) N 9 0 min 0,000 mm 0,6 UV-I 126 W/m 7,0 C 8,7 C 6,4 km/h (2 Bft) 100,00 %
04.05.2016 15:48 8,7 C 89 % 1024,7 hPa 0,0 l/m 5,1 km/h (1 Bft) N-NW 328 0 min 0,000 mm 0,6 UV-I 123 W/m 7,0 C 8,7 C 11,3 km/h (2 Bft) 100,00 %
04.05.2016 15:49 8,7 C 88 % 1024,7 hPa 0,0 l/m 1,4 km/h (1 Bft) NW 322 0 min 0,000 mm 0,6 UV-I 120 W/m 6,8 C 8,7 C 3,2 km/h (1 Bft) 100,00 %
04.05.2016 15:50 8,7 C 87 % 1024,7 hPa 0,0 l/m 3,0 km/h (1 Bft) N-NW 333 0 min 0,000 mm 0,6 UV-I 118 W/m 6,7 C 8,7 C 4,8 km/h (1 Bft) 100,00 %
04.05.2016 15:51 8,7 C 88 % 1024,7 hPa 0,0 l/m 3,1 km/h (1 Bft) W-NW 289 0 min 0,000 mm 0,6 UV-I 115 W/m 6,8 C 8,7 C 6,4 km/h (2 Bft) 96,15 %
04.05.2016 15:52 8,7 C 88 % 1024,7 hPa 0,0 l/m 1,9 km/h (1 Bft) N-NW 328 0 min 0,000 mm 0,6 UV-I 114 W/m 6,8 C 8,7 C 3,2 km/h (1 Bft) 100,00 %
04.05.2016 15:53 8,7 C 89 % 1024,7 hPa 0,0 l/m 4,0 km/h (1 Bft) W-NW 296 0 min 0,000 mm 0,6 UV-I 113 W/m 7,0 C 8,7 C 6,4 km/h (2 Bft) 100,00 %
04.05.2016 15:54 8,7 C 88 % 1024,7 hPa 0,0 l/m 3,6 km/h (1 Bft) NW 317 0 min 0,000 mm 0,6 UV-I 111 W/m 6,8 C 8,7 C 6,4 km/h (2 Bft) 100,00 %
04.05.2016 15:55 8,6 C 88 % 1024,7 hPa 0,0 l/m 2,8 km/h (1 Bft) SW 234 0 min 0,000 mm 0,5 UV-I 111 W/m 6,7 C 8,6 C 6,4 km/h (2 Bft) 100,00 %
04.05.2016 15:56 8,6 C 88 % 1024,8 hPa 0,0 l/m 3,2 km/h (1 Bft) SW 231 0 min 0,000 mm 0,5 UV-I 109 W/m 6,7 C 8,6 C 6,4 km/h (2 Bft) 100,00 %
04.05.2016 15:57 8,7 C 89 % 1024,8 hPa 0,0 l/m 3,4 km/h (1 Bft) W 277 0 min 0,000 mm 0,5 UV-I 110 W/m 7,0 C 8,7 C 6,4 km/h (2 Bft) 100,00 %
04.05.2016 15:58 8,7 C 90 % 1024,8 hPa 0,0 l/m 4,2 km/h (1 Bft) W-SW 254 0 min 0,000 mm 0,5 UV-I 111 W/m 7,2 C 8,7 C 9,7 km/h (2 Bft) 95,83 %
04.05.2016 15:59 8,7 C 89 % 1024,7 hPa 0,0 l/m 5,1 km/h (1 Bft) W-NW 282 0 min 0,000 mm 0,6 UV-I 112 W/m 7,0 C 8,7 C 9,7 km/h (2 Bft) 100,00 %
04.05.2016 16:00 8,6 C 88 % 1024,8 hPa 0,0 l/m 4,2 km/h (1 Bft) W-NW 290 0 min 0,000 mm 0,6 UV-I 113 W/m 6,7 C 8,6 C 8,0 km/h (2 Bft) 100,00 %
04.05.2016 16:01 8,6 C 88 % 1024,8 hPa 0,0 l/m 6,1 km/h (2 Bft) W 259 0 min 0,077 mm 0,5 UV-I 111 W/m 6,7 C 8,6 C 11,3 km/h (2 Bft) 100,00 %
04.05.2016 16:02 8,6 C 88 % 1024,8 hPa 0,0 l/m 4,8 km/h (1 Bft) W-NW 299 0 min 0,000 mm 0,5 UV-I 107 W/m 6,7 C 8,6 C 9,7 km/h (2 Bft) 100,00 %
04.05.2016 16:03 8,7 C 88 % 1024,7 hPa 0,0 l/m 2,7 km/h (1 Bft) W-SW 239 0 min 0,000 mm 0,5 UV-I 102 W/m 6,8 C 8,7 C 6,4 km/h (2 Bft) 96,30 %
04.05.2016 16:04 8,7 C 88 % 1024,7 hPa 0,0 l/m 3,7 km/h (1 Bft) W-SW 252 0 min 0,000 mm 0,5 UV-I 97 W/m 6,8 C 8,7 C 4,8 km/h (1 Bft) 100,00 %
04.05.2016 16:05 8,6 C 87 % 1024,7 hPa 0,0 l/m 3,3 km/h (1 Bft) W-SW 255 0 min 0,000 mm 0,2 UV-I 91 W/m 6,6 C 8,6 C 4,8 km/h (1 Bft) 100,00 %
04.05.2016 16:06 8,6 C 88 % 1024,8 hPa 0,0 l/m 4,2 km/h (1 Bft) W-NW 299 0 min 0,000 mm 0,0 UV-I 84 W/m 6,7 C 8,6 C 6,4 km/h (2 Bft) 95,83 %
04.05.2016 16:07 8,6 C 88 % 1024,8 hPa 0,0 l/m 2,1 km/h (1 Bft) NW 305 0 min 0,000 mm 0,0 UV-I 76 W/m 6,7 C 8,6 C 3,2 km/h (1 Bft) 100,00 %
04.05.2016 16:08 8,6 C 89 % 1024,8 hPa 0,0 l/m 4,4 km/h (1 Bft) W-SW 255 0 min 0,000 mm 0,0 UV-I 71 W/m 6,9 C 8,6 C 6,4 km/h (2 Bft) 100,00 %
04.05.2016 16:09 8,6 C 88 % 1024,8 hPa 0,0 l/m 5,1 km/h (1 Bft) W-SW 240 0 min 0,000 mm 0,0 UV-I 70 W/m 6,7 C 8,6 C 6,4 km/h (2 Bft) 100,00 %
04.05.2016 16:10 8,6 C 88 % 1024,8 hPa 0,0 l/m 4,6 km/h (1 Bft) W-SW 251 0 min 0,000 mm 0,0 UV-I 69 W/m 6,7 C 8,6 C 6,4 km/h (2 Bft) 100,00 %
04.05.2016 16:11 8,6 C 89 % 1024,9 hPa 0,0 l/m 6,0 km/h (2 Bft) W-SW 254 0 min 0,000 mm 0,0 UV-I 69 W/m 6,9 C 8,6 C 9,7 km/h (2 Bft) 100,00 %
04.05.2016 16:12 8,6 C 89 % 1024,8 hPa 0,0 l/m 5,8 km/h (2 Bft) W-NW 284 0 min 0,000 mm 0,0 UV-I 70 W/m 6,9 C 8,6 C 11,3 km/h (2 Bft) 96,15 %
04.05.2016 16:13 8,6 C 89 % 1024,8 hPa 0,0 l/m 4,1 km/h (1 Bft) W 267 0 min 0,000 mm 0,0 UV-I 70 W/m 6,9 C 8,6 C 6,4 km/h (2 Bft) 98,63 %
04.05.2016 16:14 8,5 C 88 % 1024,8 hPa 0,0 l/m 4,2 km/h (1 Bft) W 271 0 min 0,000 mm 0,0 UV-I 70 W/m 6,6 C 8,5 C 6,4 km/h (2 Bft) 100,00 %
04.05.2016 16:15 8,5 C 88 % 1024,8 hPa 0,0 l/m 3,3 km/h (1 Bft) W 275 0 min 0,000 mm 0,0 UV-I 70 W/m 6,6 C 8,5 C 4,8 km/h (1 Bft) 100,00 %
04.05.2016 16:16 8,4 C 88 % 1024,8 hPa 0,0 l/m 5,1 km/h (1 Bft) W-SW 244 0 min 0,000 mm 0,0 UV-I 70 W/m 6,5 C 8,4 C 8,0 km/h (2 Bft) 100,00 %
04.05.2016 16:17 8,4 C 88 % 1024,8 hPa 0,0 l/m 4,1 km/h (1 Bft) W-SW 253 0 min 0,000 mm 0,0 UV-I 70 W/m 6,5 C 8,4 C 6,4 km/h (2 Bft) 93,33 %
04.05.2016 16:18 8,4 C 87 % 1024,8 hPa 0,0 l/m 5,5 km/h (1 Bft) W 271 0 min 0,000 mm 0,0 UV-I 69 W/m 6,4 C 8,4 C 9,7 km/h (2 Bft) 100,00 %
04.05.2016 16:19 8,5 C 87 % 1024,8 hPa 0,0 l/m 4,0 km/h (1 Bft) W-SW 255 0 min 0,000 mm 0,0 UV-I 69 W/m 6,5 C 8,5 C 6,4 km/h (2 Bft) 100,00 %
04.05.2016 16:20 8,4 C 88 % 1024,7 hPa 0,0 l/m 6,6 km/h (2 Bft) W-NW 290 0 min 0,000 mm 0,0 UV-I 69 W/m 6,5 C 8,3 C 9,7 km/h (2 Bft) 100,00 %
04.05.2016 16:21 8,4 C 88 % 1024,8 hPa 0,0 l/m 5,3 km/h (1 Bft) W-SW 254 0 min 0,000 mm 0,0 UV-I 69 W/m 6,5 C 8,4 C 6,4 km/h (2 Bft) 100,00 %
04.05.2016 16:22 8,4 C 88 % 1024,8 hPa 0,0 l/m 3,8 km/h (1 Bft) W-SW 252 0 min 0,000 mm 0,0 UV-I 69 W/m 6,5 C 8,4 C 4,8 km/h (1 Bft) 100,00 %
04.05.2016 16:23 8,4 C 88 % 1024,9 hPa 0,0 l/m 3,7 km/h (1 Bft) SW 227 0 min 0,000 mm 0,0 UV-I 68 W/m 6,5 C 8,4 C 6,4 km/h (2 Bft) 100,00 %
04.05.2016 16:24 8,4 C 88 % 1024,9 hPa 0,0 l/m 5,6 km/h (1 Bft) W 277 0 min 0,000 mm 0,0 UV-I 67 W/m 6,5 C 8,4 C 9,7 km/h (2 Bft) 100,00 %
04.05.2016 16:25 8,4 C 88 % 1024,8 hPa 0,0 l/m 3,8 km/h (1 Bft) W 264 0 min 0,000 mm 0,0 UV-I 65 W/m 6,5 C 8,4 C 4,8 km/h (1 Bft) 100,00 %
04.05.2016 16:26 8,4 C 88 % 1024,8 hPa 0,0 l/m 3,0 km/h (1 Bft) W 264 0 min 0,000 mm 0,0 UV-I 65 W/m 6,5 C 8,4 C 4,8 km/h (1 Bft) 100,00 %
04.05.2016 16:27 8,4 C 89 % 1024,9 hPa 0,0 l/m 3,4 km/h (1 Bft) W 264 0 min 0,000 mm 0,0 UV-I 64 W/m 6,7 C 8,4 C 4,8 km/h (1 Bft) 100,00 %
04.05.2016 16:28 8,4 C 89 % 1024,8 hPa 0,0 l/m 2,7 km/h (1 Bft) W 280 0 min 0,000 mm 0,0 UV-I 63 W/m 6,7 C 8,4 C 4,8 km/h (1 Bft) 100,00 %
04.05.2016 16:29 8,4 C 89 % 1024,8 hPa 0,0 l/m 1,9 km/h (1 Bft) W 280 0 min 0,000 mm 0,0 UV-I 63 W/m 6,7 C 8,4 C 3,2 km/h (1 Bft) 95,65 %
04.05.2016 16:30 8,4 C 89 % 1024,8 hPa 0,0 l/m 1,8 km/h (1 Bft) W 280 0 min 0,000 mm 0,0 UV-I 65 W/m 6,7 C 8,4 C 4,8 km/h (1 Bft) 100,00 %
04.05.2016 16:31 8,4 C 89 % 1024,8 hPa 0,0 l/m 3,7 km/h (1 Bft) W-SW 258 0 min 0,000 mm 0,0 UV-I 65 W/m 6,7 C 8,4 C 4,8 km/h (1 Bft) 100,00 %
04.05.2016 16:32 8,4 C 89 % 1024,8 hPa 0,0 l/m 2,1 km/h (1 Bft) W-SW 258 0 min 0,000 mm 0,0 UV-I 67 W/m 6,7 C 8,4 C 3,2 km/h (1 Bft) 100,00 %
04.05.2016 16:33 8,4 C 89 % 1024,8 hPa 0,0 l/m 2,2 km/h (1 Bft) W 260 0 min 0,000 mm 0,0 UV-I 68 W/m 6,7 C 8,4 C 3,2 km/h (1 Bft) 100,00 %
04.05.2016 16:34 8,4 C 89 % 1024,8 hPa 0,0 l/m 2,2 km/h (1 Bft) W 265 0 min 0,000 mm 0,0 UV-I 69 W/m 6,7 C 8,4 C 4,8 km/h (1 Bft) 100,00 %
04.05.2016 16:35 8,4 C 89 % 1024,8 hPa 0,0 l/m 3,9 km/h (1 Bft) W 265 0 min 0,000 mm 0,0 UV-I 69 W/m 6,7 C 8,4 C 4,8 km/h (1 Bft) 95,65 %
04.05.2016 16:36 8,4 C 89 % 1024,8 hPa 0,0 l/m 3,1 km/h (1 Bft) W 262 0 min 0,000 mm 0,0 UV-I 70 W/m 6,7 C 8,4 C 4,8 km/h (1 Bft) 100,00 %
04.05.2016 16:37 8,4 C 89 % 1024,8 hPa 0,0 l/m 3,3 km/h (1 Bft) W 268 0 min 0,000 mm 0,0 UV-I 70 W/m 6,7 C 8,4 C 4,8 km/h (1 Bft) 100,00 %
04.05.2016 16:38 8,4 C 89 % 1024,8 hPa 0,0 l/m 3,2 km/h (1 Bft) W 263 0 min 0,000 mm 0,0 UV-I 71 W/m 6,7 C 8,4 C 4,8 km/h (1 Bft) 100,00 %
04.05.2016 16:39 8,4 C 89 % 1024,8 hPa 0,0 l/m 3,5 km/h (1 Bft) W 263 0 min 0,000 mm 0,0 UV-I 72 W/m 6,7 C 8,4 C 4,8 km/h (1 Bft) 100,00 %
04.05.2016 16:40 8,4 C 89 % 1024,8 hPa 0,0 l/m 4,2 km/h (1 Bft) W 262 0 min 0,000 mm 0,0 UV-I 73 W/m 6,7 C 8,4 C 4,8 km/h (1 Bft) 100,00 %
04.05.2016 16:41 8,4 C 89 % 1024,8 hPa 0,0 l/m 3,6 km/h (1 Bft) W 262 0 min 0,000 mm 0,0 UV-I 76 W/m 6,7 C 8,4 C 6,4 km/h (2 Bft) 100,00 %
04.05.2016 16:42 8,4 C 89 % 1024,8 hPa 0,0 l/m 3,4 km/h (1 Bft) W 261 0 min 0,000 mm 0,0 UV-I 77 W/m 6,7 C 8,4 C 4,8 km/h (1 Bft) 100,00 %
04.05.2016 16:43 8,5 C 89 % 1024,8 hPa 0,0 l/m 3,7 km/h (1 Bft) W 261 0 min 0,000 mm 0,0 UV-I 80 W/m 6,8 C 8,5 C 4,8 km/h (1 Bft) 100,00 %
04.05.2016 16:44 8,5 C 90 % 1024,8 hPa 0,0 l/m 3,6 km/h (1 Bft) W 263 0 min 0,000 mm 0,0 UV-I 82 W/m 7,0 C 8,5 C 4,8 km/h (1 Bft) 100,00 %
04.05.2016 16:45 8,5 C 90 % 1024,8 hPa 0,0 l/m 5,2 km/h (1 Bft) W 279 0 min 0,000 mm 0,0 UV-I 84 W/m 7,0 C 8,5 C 9,7 km/h (2 Bft) 100,00 %
04.05.2016 16:46 8,5 C 90 % 1024,8 hPa 0,0 l/m 3,2 km/h (1 Bft) W-SW 237 0 min 0,000 mm 0,0 UV-I 84 W/m 7,0 C 8,5 C 6,4 km/h (2 Bft) 100,00 %
04.05.2016 16:47 8,5 C 89 % 1024,8 hPa 0,0 l/m 4,3 km/h (1 Bft) W 259 0 min 0,000 mm 0,0 UV-I 86 W/m 6,8 C 8,5 C 6,4 km/h (2 Bft) 100,00 %
04.05.2016 16:48 8,5 C 89 % 1024,8 hPa 0,0 l/m 5,4 km/h (1 Bft) W 273 0 min 0,000 mm 0,0 UV-I 86 W/m 6,8 C 8,5 C 6,4 km/h (2 Bft) 100,00 %
04.05.2016 16:49 8,5 C 89 % 1024,8 hPa 0,0 l/m 4,4 km/h (1 Bft) SW 234 0 min 0,000 mm 0,0 UV-I 88 W/m 6,8 C 8,5 C 6,4 km/h (2 Bft) 100,00 %
04.05.2016 16:50 8,6 C 90 % 1024,8 hPa 0,0 l/m 4,2 km/h (1 Bft) W-SW 246 0 min 0,000 mm 0,0 UV-I 89 W/m 7,1 C 8,6 C 6,4 km/h (2 Bft) 96,15 %
04.05.2016 16:51 8,6 C 90 % 1024,8 hPa 0,0 l/m 4,0 km/h (1 Bft) W-SW 242 0 min 0,000 mm 0,0 UV-I 91 W/m 7,1 C 8,6 C 6,4 km/h (2 Bft) 100,00 %
04.05.2016 16:52 8,6 C 90 % 1024,8 hPa 0,0 l/m 3,8 km/h (1 Bft) SW 236 0 min 0,000 mm 0,0 UV-I 91 W/m 7,1 C 8,6 C 4,8 km/h (1 Bft) 95,65 %
04.05.2016 16:53 8,6 C 90 % 1024,8 hPa 0,0 l/m 3,9 km/h (1 Bft) SW 236 0 min 0,000 mm 0,0 UV-I 96 W/m 7,1 C 8,6 C 4,8 km/h (1 Bft) 100,00 %
04.05.2016 16:54 8,6 C 90 % 1024,8 hPa 0,0 l/m 4,3 km/h (1 Bft) W-SW 243 0 min 0,000 mm 0,0 UV-I 98 W/m 7,1 C 8,6 C 6,4 km/h (2 Bft) 100,00 %
04.05.2016 16:55 8,6 C 90 % 1024,8 hPa 0,0 l/m 5,0 km/h (1 Bft) SW 233 0 min 0,000 mm 0,0 UV-I 101 W/m 7,1 C 8,6 C 6,4 km/h (2 Bft) 100,00 %
04.05.2016 16:56 8,6 C 89 % 1024,8 hPa 0,0 l/m 5,3 km/h (1 Bft) SW 224 0 min 0,000 mm 0,0 UV-I 103 W/m 6,9 C 8,6 C 8,0 km/h (2 Bft) 100,00 %
04.05.2016 16:57 8,6 C 90 % 1024,8 hPa 0,0 l/m 6,2 km/h (2 Bft) SW 222 0 min 0,000 mm 0,0 UV-I 104 W/m 7,1 C 8,6 C 8,0 km/h (2 Bft) 96,43 %
04.05.2016 16:58 8,6 C 89 % 1024,8 hPa 0,0 l/m 6,9 km/h (2 Bft) SW 220 0 min 0,000 mm 0,0 UV-I 104 W/m 6,9 C 8,2 C 8,0 km/h (2 Bft) 100,00 %
04.05.2016 16:59 8,6 C 90 % 1024,8 hPa 0,0 l/m 5,8 km/h (2 Bft) W-SW 240 0 min 0,000 mm 0,0 UV-I 104 W/m 7,1 C 8,6 C 8,0 km/h (2 Bft) 100,00 %
04.05.2016 17:00 8,6 C 90 % 1024,8 hPa 0,0 l/m 6,8 km/h (2 Bft) W-SW 255 0 min 0,000 mm 0,0 UV-I 104 W/m 7,1 C 8,3 C 11,3 km/h (2 Bft) 96,55 %
04.05.2016 17:01 8,6 C 90 % 1024,8 hPa 0,0 l/m 9,2 km/h (2 Bft) W-SW 250 0 min 0,050 mm 0,0 UV-I 104 W/m 7,1 C 6,6 C 11,3 km/h (2 Bft) 96,30 %
04.05.2016 17:02 8,7 C 89 % 1024,8 hPa 0,0 l/m 5,5 km/h (1 Bft) W 259 0 min 0,000 mm 0,0 UV-I 102 W/m 7,0 C 8,7 C 9,7 km/h (2 Bft) 93,33 %
04.05.2016 17:03 8,7 C 89 % 1024,8 hPa 0,0 l/m 4,6 km/h (1 Bft) W 259 0 min 0,000 mm 0,0 UV-I 102 W/m 7,0 C 8,7 C 6,4 km/h (2 Bft) 96,15 %
04.05.2016 17:04 8,7 C 89 % 1024,8 hPa 0,0 l/m 5,4 km/h (1 Bft) W 273 0 min 0,000 mm 0,0 UV-I 100 W/m 7,0 C 8,7 C 9,7 km/h (2 Bft) 100,00 %
04.05.2016 17:05 8,7 C 89 % 1024,9 hPa 0,0 l/m 4,1 km/h (1 Bft) W-SW 257 0 min 0,000 mm 0,0 UV-I 97 W/m 7,0 C 8,7 C 4,8 km/h (1 Bft) 95,65 %
04.05.2016 17:06 8,7 C 89 % 1024,9 hPa 0,0 l/m 5,4 km/h (1 Bft) W 281 0 min 0,000 mm 0,0 UV-I 95 W/m 7,0 C 8,7 C 9,7 km/h (2 Bft) 100,00 %
04.05.2016 17:07 8,7 C 90 % 1024,9 hPa 0,0 l/m 5,6 km/h (1 Bft) W-SW 239 0 min 0,000 mm 0,0 UV-I 95 W/m 7,2 C 8,7 C 6,4 km/h (2 Bft) 97,56 %
04.05.2016 17:08 8,7 C 90 % 1024,8 hPa 0,0 l/m 3,8 km/h (1 Bft) W-SW 239 0 min 0,000 mm 0,0 UV-I 100 W/m 7,2 C 8,7 C 4,8 km/h (1 Bft) 91,67 %
04.05.2016 17:09 8,7 C 90 % 1024,9 hPa 0,0 l/m 4,5 km/h (1 Bft) W-SW 251 0 min 0,000 mm 0,0 UV-I 109 W/m 7,2 C 8,7 C 6,4 km/h (2 Bft) 100,00 %
04.05.2016 17:10 8,7 C 89 % 1024,9 hPa 0,0 l/m 6,6 km/h (2 Bft) W-SW 246 0 min 0,000 mm 0,0 UV-I 116 W/m 7,0 C 8,6 C 11,3 km/h (2 Bft) 95,83 %
04.05.2016 17:11 8,7 C 89 % 1024,9 hPa 0,0 l/m 3,7 km/h (1 Bft) W-SW 246 0 min 0,000 mm 0,0 UV-I 124 W/m 7,0 C 8,7 C 4,8 km/h (1 Bft) 96,15 %
04.05.2016 17:12 8,7 C 90 % 1024,9 hPa 0,0 l/m 2,8 km/h (1 Bft) W-SW 246 0 min 0,000 mm 0,0 UV-I 136 W/m 7,2 C 8,7 C 3,2 km/h (1 Bft) 93,33 %
04.05.2016 17:13 8,7 C 89 % 1024,9 hPa 0,0 l/m 4,4 km/h (1 Bft) W-SW 245 0 min 0,000 mm 0,1 UV-I 144 W/m 7,0 C 8,7 C 6,4 km/h (2 Bft) 100,00 %
04.05.2016 17:14 8,7 C 89 % 1024,9 hPa 0,0 l/m 6,4 km/h (2 Bft) SW 225 0 min 0,000 mm 0,5 UV-I 152 W/m 7,0 C 8,7 C 9,7 km/h (2 Bft) 96,30 %
04.05.2016 17:15 8,7 C 89 % 1024,9 hPa 0,0 l/m 7,0 km/h (2 Bft) SW 224 0 min 0,000 mm 0,5 UV-I 159 W/m 7,0 C 8,2 C 9,7 km/h (2 Bft) 93,10 %
04.05.2016 17:16 8,7 C 88 % 1024,9 hPa 0,0 l/m 5,9 km/h (2 Bft) W-SW 243 0 min 0,000 mm 0,5 UV-I 162 W/m 6,8 C 8,7 C 9,7 km/h (2 Bft) 100,00 %
04.05.2016 17:17 8,7 C 88 % 1024,9 hPa 0,0 l/m 6,0 km/h (2 Bft) W-SW 248 0 min 0,000 mm 0,5 UV-I 165 W/m 6,8 C 8,7 C 9,7 km/h (2 Bft) 95,65 %
04.05.2016 17:18 8,8 C 88 % 1024,9 hPa 0,0 l/m 8,7 km/h (2 Bft) SW 227 0 min 0,000 mm 0,5 UV-I 170 W/m 6,9 C 7,1 C 12,9 km/h (3 Bft) 100,00 %
04.05.2016 17:19 8,8 C 88 % 1025,0 hPa 0,0 l/m 8,0 km/h (2 Bft) W 269 0 min 0,000 mm 0,5 UV-I 174 W/m 6,9 C 7,6 C 12,9 km/h (3 Bft) 91,30 %
04.05.2016 17:20 8,8 C 87 % 1025,0 hPa 0,0 l/m 6,4 km/h (2 Bft) SW 230 0 min 0,000 mm 0,5 UV-I 177 W/m 6,8 C 8,8 C 11,3 km/h (2 Bft) 100,00 %
04.05.2016 17:21 8,8 C 87 % 1025,0 hPa 0,0 l/m 7,0 km/h (2 Bft) SW 229 0 min 0,000 mm 0,5 UV-I 180 W/m 6,8 C 8,3 C 11,3 km/h (2 Bft) 97,56 %
04.05.2016 17:22 8,8 C 87 % 1025,0 hPa 0,0 l/m 7,6 km/h (2 Bft) SW 235 0 min 0,000 mm 0,5 UV-I 184 W/m 6,8 C 7,9 C 11,3 km/h (2 Bft) 95,83 %
04.05.2016 17:23 8,8 C 88 % 1025,0 hPa 0,0 l/m 6,7 km/h (2 Bft) W 272 0 min 0,000 mm 0,5 UV-I 188 W/m 6,9 C 8,6 C 9,7 km/h (2 Bft) 100,00 %
04.05.2016 17:24 8,8 C 87 % 1025,0 hPa 0,0 l/m 7,7 km/h (2 Bft) W-SW 242 0 min 0,000 mm 0,5 UV-I 193 W/m 6,8 C 7,8 C 12,9 km/h (3 Bft) 95,83 %
04.05.2016 17:25 8,9 C 88 % 1025,0 hPa 0,0 l/m 7,0 km/h (2 Bft) SW 235 0 min 0,000 mm 0,5 UV-I 196 W/m 7,0 C 8,4 C 11,3 km/h (2 Bft) 100,00 %
04.05.2016 17:26 8,9 C 89 % 1025,0 hPa 0,0 l/m 7,6 km/h (2 Bft) W-SW 250 0 min 0,000 mm 0,5 UV-I 199 W/m 7,2 C 8,0 C 11,3 km/h (2 Bft) 92,31 %
04.05.2016 17:27 8,9 C 89 % 1025,0 hPa 0,0 l/m 8,3 km/h (2 Bft) SW 227 0 min 0,000 mm 0,5 UV-I 202 W/m 7,2 C 7,5 C 12,9 km/h (3 Bft) 100,00 %
04.05.2016 17:28 9,0 C 89 % 1025,0 hPa 0,0 l/m 8,9 km/h (2 Bft) W-SW 238 0 min 0,000 mm 0,5 UV-I 204 W/m 7,3 C 7,2 C 14,5 km/h (3 Bft) 96,15 %
04.05.2016 17:29 9,0 C 88 % 1025,0 hPa 0,0 l/m 7,8 km/h (2 Bft) SW 228 0 min 0,000 mm 0,5 UV-I 206 W/m 7,1 C 7,9 C 11,3 km/h (2 Bft) 100,00 %
04.05.2016 17:30 9,0 C 88 % 1025,0 hPa 0,0 l/m 8,2 km/h (2 Bft) SW 231 0 min 0,000 mm 0,5 UV-I 206 W/m 7,1 C 7,7 C 11,3 km/h (2 Bft) 95,65 %
04.05.2016 17:31 8,9 C 88 % 1025,0 hPa 0,0 l/m 12,4 km/h (3 Bft) SW 227 0 min 0,000 mm 0,5 UV-I 207 W/m 7,0 C 5,0 C 19,3 km/h (3 Bft) 100,00 %
04.05.2016 17:32 8,9 C 88 % 1025,0 hPa 0,0 l/m 10,1 km/h (2 Bft) S-SW 212 0 min 0,000 mm 0,5 UV-I 207 W/m 7,0 C 6,3 C 12,9 km/h (3 Bft) 92,86 %
04.05.2016 17:33 8,9 C 88 % 1025,0 hPa 0,0 l/m 6,8 km/h (2 Bft) SW 229 0 min 0,000 mm 0,5 UV-I 205 W/m 7,0 C 8,6 C 12,9 km/h (3 Bft) 97,44 %
04.05.2016 17:34 8,9 C 88 % 1025,0 hPa 0,0 l/m 12,3 km/h (3 Bft) SW 236 0 min 0,000 mm 0,5 UV-I 202 W/m 7,0 C 5,1 C 16,1 km/h (3 Bft) 100,00 %
04.05.2016 17:35 8,9 C 88 % 1025,0 hPa 0,0 l/m 12,5 km/h (3 Bft) SW 225 0 min 0,000 mm 0,5 UV-I 198 W/m 7,0 C 5,0 C 16,1 km/h (3 Bft) 100,00 %
04.05.2016 17:36 8,9 C 88 % 1025,0 hPa 0,0 l/m 14,6 km/h (3 Bft) W-SW 246 0 min 0,000 mm 0,5 UV-I 194 W/m 7,0 C 4,0 C 17,7 km/h (3 Bft) 100,00 %
04.05.2016 17:37 8,9 C 88 % 1025,0 hPa 0,0 l/m 11,6 km/h (2 Bft) S-SW 195 0 min 0,000 mm 0,4 UV-I 190 W/m 7,0 C 5,5 C 14,5 km/h (3 Bft) 100,00 %
04.05.2016 17:38 8,9 C 88 % 1025,0 hPa 0,0 l/m 10,9 km/h (2 Bft) S 180 0 min 0,000 mm 0,0 UV-I 186 W/m 7,0 C 5,9 C 16,1 km/h (3 Bft) 95,65 %
04.05.2016 17:39 8,8 C 87 % 1024,9 hPa 0,0 l/m 7,6 km/h (2 Bft) W-SW 240 0 min 0,000 mm 0,0 UV-I 181 W/m 6,8 C 7,9 C 12,9 km/h (3 Bft) 100,00 %
04.05.2016 17:40 8,8 C 86 % 1025,0 hPa 0,0 l/m 7,4 km/h (2 Bft) SW 223 0 min 0,000 mm 0,0 UV-I 176 W/m 6,6 C 8,0 C 11,3 km/h (2 Bft) 100,00 %
04.05.2016 17:41 8,8 C 87 % 1025,0 hPa 0,0 l/m 7,8 km/h (2 Bft) S-SW 199 0 min 0,000 mm 0,0 UV-I 171 W/m 6,8 C 7,7 C 12,9 km/h (3 Bft) 100,00 %
04.05.2016 17:42 8,7 C 87 % 1025,0 hPa 0,0 l/m 10,7 km/h (2 Bft) S-SW 196 0 min 0,000 mm 0,0 UV-I 168 W/m 6,7 C 5,7 C 14,5 km/h (3 Bft) 100,00 %
04.05.2016 17:43 8,7 C 87 % 1024,9 hPa 0,0 l/m 10,7 km/h (2 Bft) S-SO 167 0 min 0,000 mm 0,0 UV-I 165 W/m 6,7 C 5,7 C 12,9 km/h (3 Bft) 100,00 %
04.05.2016 17:44 8,7 C 87 % 1025,0 hPa 0,0 l/m 8,6 km/h (2 Bft) SW 235 0 min 0,000 mm 0,0 UV-I 162 W/m 6,7 C 7,1 C 11,3 km/h (2 Bft) 96,15 %
04.05.2016 17:45 8,7 C 87 % 1024,9 hPa 0,0 l/m 9,7 km/h (2 Bft) SW 215 0 min 0,000 mm 0,0 UV-I 159 W/m 6,7 C 6,3 C 14,5 km/h (3 Bft) 100,00 %
04.05.2016 17:46 8,7 C 87 % 1025,0 hPa 0,0 l/m 8,2 km/h (2 Bft) S-SW 210 0 min 0,000 mm 0,0 UV-I 155 W/m 6,7 C 7,3 C 9,7 km/h (2 Bft) 100,00 %
04.05.2016 17:47 8,7 C 88 % 1024,9 hPa 0,0 l/m 10,5 km/h (2 Bft) W-SW 248 0 min 0,000 mm 0,0 UV-I 153 W/m 6,8 C 5,9 C 12,9 km/h (3 Bft) 98,61 %
04.05.2016 17:48 8,7 C 88 % 1024,9 hPa 0,0 l/m 8,9 km/h (2 Bft) SW 217 0 min 0,000 mm 0,0 UV-I 148 W/m 6,8 C 6,9 C 12,9 km/h (3 Bft) 97,62 %
04.05.2016 17:49 8,7 C 88 % 1024,9 hPa 0,0 l/m 5,1 km/h (1 Bft) W-SW 240 0 min 0,000 mm 0,0 UV-I 145 W/m 6,8 C 8,7 C 6,4 km/h (2 Bft) 100,00 %
04.05.2016 17:50 8,7 C 88 % 1025,0 hPa 0,0 l/m 6,6 km/h (2 Bft) SW 223 0 min 0,000 mm 0,0 UV-I 143 W/m 6,8 C 8,6 C 12,9 km/h (3 Bft) 100,00 %
04.05.2016 17:51 8,7 C 89 % 1024,9 hPa 0,0 l/m 10,7 km/h (2 Bft) W-SW 238 0 min 0,000 mm 0,0 UV-I 141 W/m 7,0 C 5,7 C 14,5 km/h (3 Bft) 95,65 %
04.05.2016 17:52 8,8 C 88 % 1025,0 hPa 0,0 l/m 6,0 km/h (2 Bft) SW 227 0 min 0,000 mm 0,0 UV-I 139 W/m 6,9 C 8,8 C 11,3 km/h (2 Bft) 100,00 %
04.05.2016 17:53 8,8 C 88 % 1025,0 hPa 0,0 l/m 5,9 km/h (2 Bft) W-SW 252 0 min 0,000 mm 0,0 UV-I 139 W/m 6,9 C 8,8 C 9,7 km/h (2 Bft) 100,00 %
04.05.2016 17:54 8,8 C 88 % 1025,0 hPa 0,0 l/m 8,0 km/h (2 Bft) SW 236 0 min 0,000 mm 0,0 UV-I 136 W/m 6,9 C 7,6 C 11,3 km/h (2 Bft) 100,00 %
04.05.2016 17:55 8,8 C 89 % 1025,0 hPa 0,0 l/m 7,2 km/h (2 Bft) SW 227 0 min 0,000 mm 0,0 UV-I 134 W/m 7,1 C 8,2 C 14,5 km/h (3 Bft) 100,00 %
04.05.2016 17:56 8,8 C 89 % 1025,0 hPa 0,0 l/m 10,6 km/h (2 Bft) SW 226 0 min 0,000 mm 0,0 UV-I 134 W/m 7,1 C 5,9 C 12,9 km/h (3 Bft) 100,00 %
04.05.2016 17:57 8,8 C 89 % 1025,0 hPa 0,0 l/m 9,0 km/h (2 Bft) SW 226 0 min 0,000 mm 0,0 UV-I 132 W/m 7,1 C 6,9 C 11,3 km/h (2 Bft) 100,00 %
04.05.2016 17:58 8,8 C 89 % 1025,0 hPa 0,0 l/m 7,7 km/h (2 Bft) S 188 0 min 0,000 mm 0,0 UV-I 130 W/m 7,1 C 7,8 C 9,7 km/h (2 Bft) 100,00 %
04.05.2016 17:59 8,8 C 89 % 1025,0 hPa 0,0 l/m 11,7 km/h (2 Bft) W-SW 238 0 min 0,000 mm 0,0 UV-I 128 W/m 7,1 C 5,3 C 16,1 km/h (3 Bft) 100,00 %
04.05.2016 18:00 8,8 C 88 % 1025,0 hPa 0,0 l/m 9,6 km/h (2 Bft) S-SW 213 0 min 0,000 mm 0,0 UV-I 126 W/m 6,9 C 6,5 C 11,3 km/h (2 Bft) 100,00 %
04.05.2016 18:01 8,8 C 89 % 1025,0 hPa 0,0 l/m 5,5 km/h (1 Bft) W-SW 244 0 min 0,077 mm 0,0 UV-I 124 W/m 7,1 C 8,8 C 9,7 km/h (2 Bft) 100,00 %
04.05.2016 18:02 8,8 C 89 % 1024,9 hPa 0,0 l/m 4,6 km/h (1 Bft) SW 236 0 min 0,000 mm 0,0 UV-I 122 W/m 7,1 C 8,8 C 6,4 km/h (2 Bft) 100,00 %
04.05.2016 18:03 8,8 C 89 % 1024,9 hPa 0,0 l/m 2,8 km/h (1 Bft) SW 226 0 min 0,000 mm 0,0 UV-I 120 W/m 7,1 C 8,8 C 4,8 km/h (1 Bft) 100,00 %
04.05.2016 18:04 8,8 C 88 % 1024,9 hPa 0,0 l/m 4,2 km/h (1 Bft) W 263 0 min 0,000 mm 0,0 UV-I 118 W/m 6,9 C 8,8 C 4,8 km/h (1 Bft) 95,12 %
04.05.2016 18:05 8,8 C 88 % 1024,9 hPa 0,0 l/m 6,8 km/h (2 Bft) W-SW 237 0 min 0,000 mm 0,0 UV-I 113 W/m 6,9 C 8,5 C 9,7 km/h (2 Bft) 100,00 %
04.05.2016 18:06 8,8 C 88 % 1024,9 hPa 0,0 l/m 6,3 km/h (2 Bft) SW 224 0 min 0,000 mm 0,0 UV-I 110 W/m 6,9 C 8,8 C 9,7 km/h (2 Bft) 100,00 %
04.05.2016 18:07 8,7 C 88 % 1024,9 hPa 0,0 l/m 4,6 km/h (1 Bft) SW 221 0 min 0,000 mm 0,0 UV-I 107 W/m 6,8 C 8,7 C 6,4 km/h (2 Bft) 100,00 %
04.05.2016 18:08 8,7 C 88 % 1024,9 hPa 0,0 l/m 6,2 km/h (2 Bft) W-SW 238 0 min 0,000 mm 0,0 UV-I 103 W/m 6,8 C 8,7 C 8,0 km/h (2 Bft) 97,37 %
04.05.2016 18:09 8,7 C 89 % 1024,9 hPa 0,0 l/m 5,3 km/h (1 Bft) W-SW 240 0 min 0,000 mm 0,0 UV-I 99 W/m 7,0 C 8,7 C 9,7 km/h (2 Bft) 100,00 %
04.05.2016 18:10 8,7 C 89 % 1024,9 hPa 0,0 l/m 6,9 km/h (2 Bft) SW 225 0 min 0,000 mm 0,0 UV-I 96 W/m 7,0 C 8,3 C 8,0 km/h (2 Bft) 100,00 %
04.05.2016 18:11 8,8 C 89 % 1025,0 hPa 0,0 l/m 6,8 km/h (2 Bft) W-SW 238 0 min 0,000 mm 0,0 UV-I 92 W/m 7,1 C 8,5 C 9,7 km/h (2 Bft) 100,00 %
04.05.2016 18:12 8,8 C 89 % 1024,9 hPa 0,0 l/m 5,4 km/h (1 Bft) W-SW 257 0 min 0,000 mm 0,0 UV-I 90 W/m 7,1 C 8,8 C 6,4 km/h (2 Bft) 100,00 %
04.05.2016 18:13 8,8 C 90 % 1025,0 hPa 0,0 l/m 5,9 km/h (2 Bft) W-SW 258 0 min 0,000 mm 0,0 UV-I 86 W/m 7,3 C 8,8 C 8,0 km/h (2 Bft) 100,00 %
04.05.2016 18:14 8,8 C 91 % 1025,0 hPa 0,0 l/m 6,0 km/h (2 Bft) W 263 0 min 0,000 mm 0,0 UV-I 83 W/m 7,4 C 8,8 C 11,3 km/h (2 Bft) 100,00 %
04.05.2016 18:15 8,8 C 90 % 1025,0 hPa 0,0 l/m 8,1 km/h (2 Bft) W-SW 254 0 min 0,000 mm 0,0 UV-I 80 W/m 7,3 C 7,5 C 11,3 km/h (2 Bft) 100,00 %
04.05.2016 18:16 8,8 C 90 % 1025,0 hPa 0,0 l/m 8,5 km/h (2 Bft) SW 233 0 min 0,000 mm 0,0 UV-I 77 W/m 7,3 C 7,2 C 12,9 km/h (3 Bft) 95,65 %
04.05.2016 18:17 8,8 C 90 % 1025,0 hPa 0,0 l/m 7,1 km/h (2 Bft) SW 227 0 min 0,000 mm 0,0 UV-I 75 W/m 7,3 C 8,3 C 9,7 km/h (2 Bft) 100,00 %
04.05.2016 18:18 8,8 C 89 % 1025,0 hPa 0,0 l/m 4,4 km/h (1 Bft) S-SW 207 0 min 0,000 mm 0,0 UV-I 73 W/m 7,1 C 8,8 C 6,4 km/h (2 Bft) 100,00 %
04.05.2016 18:19 8,8 C 90 % 1025,0 hPa 0,0 l/m 7,0 km/h (2 Bft) S-SW 213 0 min 0,000 mm 0,0 UV-I 71 W/m 7,3 C 8,3 C 11,3 km/h (2 Bft) 100,00 %
04.05.2016 18:20 8,8 C 89 % 1025,0 hPa 0,0 l/m 8,9 km/h (2 Bft) SW 227 0 min 0,000 mm 0,0 UV-I 70 W/m 7,1 C 7,0 C 14,5 km/h (3 Bft) 100,00 %
04.05.2016 18:21 8,8 C 90 % 1025,1 hPa 0,0 l/m 12,1 km/h (2 Bft) W-SW 240 0 min 0,000 mm 0,0 UV-I 69 W/m 7,3 C 5,1 C 17,7 km/h (3 Bft) 98,64 %
04.05.2016 18:22 8,8 C 89 % 1025,0 hPa 0,0 l/m 7,2 km/h (2 Bft) S 178 0 min 0,000 mm 0,0 UV-I 67 W/m 7,1 C 8,2 C 9,7 km/h (2 Bft) 97,73 %
04.05.2016 18:23 8,8 C 89 % 1025,1 hPa 0,0 l/m 7,7 km/h (2 Bft) SW 222 0 min 0,000 mm 0,0 UV-I 64 W/m 7,1 C 7,8 C 11,3 km/h (2 Bft) 96,30 %
04.05.2016 18:24 8,7 C 88 % 1025,0 hPa 0,0 l/m 9,3 km/h (2 Bft) SW 232 0 min 0,000 mm 0,0 UV-I 63 W/m 6,8 C 6,6 C 12,9 km/h (3 Bft) 100,00 %
04.05.2016 18:25 8,7 C 89 % 1025,0 hPa 0,0 l/m 10,2 km/h (2 Bft) SW 229 0 min 0,000 mm 0,0 UV-I 62 W/m 7,0 C 6,0 C 14,5 km/h (3 Bft) 100,00 %
04.05.2016 18:26 8,7 C 89 % 1025,0 hPa 0,0 l/m 9,4 km/h (2 Bft) W-SW 246 0 min 0,000 mm 0,0 UV-I 62 W/m 7,0 C 6,5 C 12,9 km/h (3 Bft) 100,00 %
04.05.2016 18:27 8,7 C 89 % 1025,1 hPa 0,0 l/m 8,1 km/h (2 Bft) SW 219 0 min 0,000 mm 0,0 UV-I 60 W/m 7,0 C 7,4 C 12,9 km/h (3 Bft) 96,15 %
04.05.2016 18:28 8,7 C 89 % 1025,1 hPa 0,0 l/m 6,3 km/h (2 Bft) W 259 0 min 0,000 mm 0,0 UV-I 60 W/m 7,0 C 8,7 C 8,0 km/h (2 Bft) 100,00 %
04.05.2016 18:29 8,7 C 89 % 1025,1 hPa 0,0 l/m 5,9 km/h (2 Bft) SW 224 0 min 0,000 mm 0,0 UV-I 58 W/m 7,0 C 8,7 C 12,9 km/h (3 Bft) 92,86 %
04.05.2016 18:30 8,7 C 89 % 1025,1 hPa 0,0 l/m 8,2 km/h (2 Bft) SW 224 0 min 0,000 mm 0,0 UV-I 58 W/m 7,0 C 7,3 C 12,9 km/h (3 Bft) 100,00 %
04.05.2016 18:31 8,7 C 89 % 1025,1 hPa 0,0 l/m 10,1 km/h (2 Bft) W-SW 238 0 min 0,000 mm 0,0 UV-I 57 W/m 7,0 C 6,1 C 16,1 km/h (3 Bft) 100,00 %
04.05.2016 18:32 8,6 C 89 % 1025,1 hPa 0,0 l/m 9,7 km/h (2 Bft) SW 216 0 min 0,000 mm 0,0 UV-I 56 W/m 6,9 C 6,2 C 14,5 km/h (3 Bft) 100,00 %
04.05.2016 18:33 8,6 C 89 % 1025,1 hPa 0,0 l/m 8,8 km/h (2 Bft) S 178 0 min 0,000 mm 0,0 UV-I 54 W/m 6,9 C 6,8 C 14,5 km/h (3 Bft) 100,00 %
04.05.2016 18:34 8,6 C 89 % 1025,1 hPa 0,0 l/m 6,9 km/h (2 Bft) W-SW 244 0 min 0,000 mm 0,0 UV-I 54 W/m 6,9 C 8,2 C 12,9 km/h (3 Bft) 100,00 %
04.05.2016 18:35 8,6 C 90 % 1025,1 hPa 0,0 l/m 7,4 km/h (2 Bft) SW 222 0 min 0,000 mm 0,0 UV-I 53 W/m 7,1 C 7,8 C 9,7 km/h (2 Bft) 96,15 %
04.05.2016 18:36 8,6 C 90 % 1025,1 hPa 0,0 l/m 5,6 km/h (1 Bft) SW 218 0 min 0,000 mm 0,0 UV-I 52 W/m 7,1 C 8,6 C 6,4 km/h (2 Bft) 100,00 %
04.05.2016 18:37 8,6 C 90 % 1025,2 hPa 0,0 l/m 6,6 km/h (2 Bft) W-SW 252 0 min 0,000 mm 0,0 UV-I 51 W/m 7,1 C 8,5 C 9,7 km/h (2 Bft) 100,00 %
04.05.2016 18:38 8,6 C 90 % 1025,1 hPa 0,0 l/m 7,2 km/h (2 Bft) S-SW 208 0 min 0,000 mm 0,0 UV-I 50 W/m 7,1 C 8,0 C 11,3 km/h (2 Bft) 100,00 %
04.05.2016 18:39 8,5 C 89 % 1025,1 hPa 0,0 l/m 7,2 km/h (2 Bft) SW 214 0 min 0,000 mm 0,0 UV-I 49 W/m 6,8 C 7,9 C 9,7 km/h (2 Bft) 100,00 %
04.05.2016 18:40 8,5 C 89 % 1025,2 hPa 0,0 l/m 6,0 km/h (2 Bft) W-SW 243 0 min 0,000 mm 0,0 UV-I 48 W/m 6,8 C 8,5 C 8,0 km/h (2 Bft) 96,30 %
04.05.2016 18:41 8,5 C 89 % 1025,1 hPa 0,0 l/m 8,0 km/h (2 Bft) S 175 0 min 0,000 mm 0,0 UV-I 47 W/m 6,8 C 7,3 C 11,3 km/h (2 Bft) 100,00 %
04.05.2016 18:42 8,5 C 90 % 1025,2 hPa 0,0 l/m 8,8 km/h (2 Bft) SW 225 0 min 0,000 mm 0,0 UV-I 46 W/m 7,0 C 6,7 C 14,5 km/h (3 Bft) 100,00 %
04.05.2016 18:43 8,5 C 90 % 1025,2 hPa 0,0 l/m 5,5 km/h (1 Bft) SW 234 0 min 0,000 mm 0,0 UV-I 45 W/m 7,0 C 8,5 C 9,7 km/h (2 Bft) 100,00 %
04.05.2016 18:44 8,4 C 90 % 1025,2 hPa 0,0 l/m 10,0 km/h (2 Bft) S-SW 208 0 min 0,000 mm 0,0 UV-I 42 W/m 6,9 C 5,8 C 16,1 km/h (3 Bft) 100,00 %
04.05.2016 18:45 8,4 C 90 % 1025,3 hPa 0,0 l/m 7,2 km/h (2 Bft) SW 223 0 min 0,000 mm 0,0 UV-I 40 W/m 6,9 C 7,8 C 9,7 km/h (2 Bft) 100,00 %
04.05.2016 18:46 8,4 C 90 % 1025,3 hPa 0,0 l/m 6,0 km/h (2 Bft) SW 220 0 min 0,000 mm 0,0 UV-I 40 W/m 6,9 C 8,4 C 11,3 km/h (2 Bft) 100,00 %
04.05.2016 18:47 8,4 C 90 % 1025,3 hPa 0,0 l/m 7,0 km/h (2 Bft) S-SW 211 0 min 0,000 mm 0,0 UV-I 40 W/m 6,9 C 7,9 C 11,3 km/h (2 Bft) 100,00 %
04.05.2016 18:48 8,4 C 90 % 1025,3 hPa 0,0 l/m 8,6 km/h (2 Bft) SW 224 0 min 0,000 mm 0,0 UV-I 40 W/m 6,9 C 6,7 C 11,3 km/h (2 Bft) 98,65 %
04.05.2016 18:49 8,4 C 90 % 1025,3 hPa 0,0 l/m 8,1 km/h (2 Bft) S 184 0 min 0,000 mm 0,0 UV-I 40 W/m 6,9 C 7,1 C 12,9 km/h (3 Bft) 100,00 %
04.05.2016 18:50 8,4 C 90 % 1025,2 hPa 0,0 l/m 8,0 km/h (2 Bft) W-SW 238 0 min 0,000 mm 0,0 UV-I 40 W/m 6,9 C 7,2 C 11,3 km/h (2 Bft) 100,00 %
04.05.2016 18:51 8,4 C 90 % 1025,3 hPa 0,0 l/m 7,8 km/h (2 Bft) S 178 0 min 0,000 mm 0,0 UV-I 42 W/m 6,9 C 7,3 C 9,7 km/h (2 Bft) 100,00 %
04.05.2016 18:52 8,4 C 90 % 1025,3 hPa 0,0 l/m 6,4 km/h (2 Bft) S-SW 209 0 min 0,000 mm 0,0 UV-I 42 W/m 6,9 C 8,4 C 9,7 km/h (2 Bft) 100,00 %
04.05.2016 18:53 8,4 C 90 % 1025,2 hPa 0,2 l/m 6,2 km/h (2 Bft) W-SW 252 0 min 0,000 mm 0,0 UV-I 41 W/m 6,9 C 8,4 C 8,0 km/h (2 Bft) 100,00 %
04.05.2016 18:54 8,4 C 90 % 1025,2 hPa 0,0 l/m 5,1 km/h (1 Bft) SW 228 0 min 0,000 mm 0,0 UV-I 40 W/m 6,9 C 8,4 C 8,0 km/h (2 Bft) 100,00 %
04.05.2016 18:55 8,4 C 91 % 1025,2 hPa 0,0 l/m 7,2 km/h (2 Bft) SW 230 0 min 0,000 mm 0,0 UV-I 40 W/m 7,0 C 7,8 C 9,7 km/h (2 Bft) 100,00 %
04.05.2016 18:56 8,4 C 91 % 1025,3 hPa 0,0 l/m 6,5 km/h (2 Bft) SW 223 0 min 0,000 mm 0,0 UV-I 40 W/m 7,0 C 8,3 C 8,0 km/h (2 Bft) 100,00 %
04.05.2016 18:57 8,4 C 91 % 1025,3 hPa 0,0 l/m 7,6 km/h (2 Bft) SW 231 0 min 0,000 mm 0,0 UV-I 40 W/m 7,0 C 7,5 C 9,7 km/h (2 Bft) 100,00 %
04.05.2016 18:58 8,4 C 91 % 1025,3 hPa 0,0 l/m 9,1 km/h (2 Bft) SW 230 0 min 0,000 mm 0,0 UV-I 39 W/m 7,0 C 6,4 C 11,3 km/h (2 Bft) 100,00 %
04.05.2016 18:59 8,4 C 91 % 1025,3 hPa 0,0 l/m 8,0 km/h (2 Bft) W-SW 244 0 min 0,000 mm 0,0 UV-I 39 W/m 7,0 C 7,2 C 11,3 km/h (2 Bft) 100,00 %
04.05.2016 19:00 8,4 C 91 % 1025,2 hPa 0,0 l/m 5,8 km/h (2 Bft) W-SW 239 0 min 0,000 mm 0,0 UV-I 40 W/m 7,0 C 8,4 C 6,4 km/h (2 Bft) 100,00 %
04.05.2016 19:01 8,4 C 91 % 1025,3 hPa 0,0 l/m 7,9 km/h (2 Bft) SW 222 0 min 0,025 mm 0,0 UV-I 40 W/m 7,0 C 7,2 C 11,3 km/h (2 Bft) 97,37 %
04.05.2016 19:02 8,4 C 91 % 1025,3 hPa 0,0 l/m 7,0 km/h (2 Bft) S-SW 202 0 min 0,000 mm 0,0 UV-I 42 W/m 7,0 C 7,9 C 9,7 km/h (2 Bft) 100,00 %
04.05.2016 19:03 8,4 C 91 % 1025,3 hPa 0,0 l/m 6,2 km/h (2 Bft) W-SW 246 0 min 0,000 mm 0,0 UV-I 42 W/m 7,0 C 8,4 C 8,0 km/h (2 Bft) 91,67 %
04.05.2016 19:04 8,4 C 92 % 1025,3 hPa 0,0 l/m 5,6 km/h (1 Bft) W-SW 244 0 min 0,000 mm 0,0 UV-I 44 W/m 7,2 C 8,4 C 8,0 km/h (2 Bft) 100,00 %
04.05.2016 19:05 8,4 C 92 % 1025,3 hPa 0,0 l/m 4,2 km/h (1 Bft) W-SW 240 0 min 0,000 mm 0,0 UV-I 45 W/m 7,2 C 8,4 C 6,4 km/h (2 Bft) 95,65 %
04.05.2016 19:06 8,4 C 92 % 1025,3 hPa 0,0 l/m 5,6 km/h (1 Bft) S-SW 205 0 min 0,000 mm 0,0 UV-I 46 W/m 7,2 C 8,4 C 8,0 km/h (2 Bft) 95,83 %
04.05.2016 19:07 8,4 C 92 % 1025,4 hPa 0,0 l/m 5,1 km/h (1 Bft) S-SW 194 0 min 0,000 mm 0,0 UV-I 46 W/m 7,2 C 8,4 C 6,4 km/h (2 Bft) 92,86 %
04.05.2016 19:08 8,3 C 92 % 1025,3 hPa 0,0 l/m 4,4 km/h (1 Bft) S-SW 208 0 min 0,000 mm 0,0 UV-I 47 W/m 7,1 C 8,3 C 6,4 km/h (2 Bft) 92,59 %
04.05.2016 19:09 8,3 C 92 % 1025,4 hPa 0,0 l/m 4,9 km/h (1 Bft) SW 215 0 min 0,000 mm 0,0 UV-I 46 W/m 7,1 C 8,3 C 8,0 km/h (2 Bft) 100,00 %
04.05.2016 19:10 8,3 C 92 % 1025,4 hPa 0,0 l/m 7,7 km/h (2 Bft) W-SW 237 0 min 0,000 mm 0,0 UV-I 46 W/m 7,1 C 7,3 C 9,7 km/h (2 Bft) 96,67 %
04.05.2016 19:11 8,3 C 92 % 1025,4 hPa 0,0 l/m 5,5 km/h (1 Bft) W-SW 248 0 min 0,000 mm 0,0 UV-I 46 W/m 7,1 C 8,3 C 8,0 km/h (2 Bft) 100,00 %
04.05.2016 19:12 8,3 C 92 % 1025,4 hPa 0,0 l/m 5,8 km/h (2 Bft) W-SW 238 0 min 0,000 mm 0,0 UV-I 46 W/m 7,1 C 8,3 C 8,0 km/h (2 Bft) 91,67 %
04.05.2016 19:13 8,3 C 92 % 1025,4 hPa 0,0 l/m 5,0 km/h (1 Bft) SW 235 0 min 0,000 mm 0,0 UV-I 46 W/m 7,1 C 8,3 C 6,4 km/h (2 Bft) 96,15 %
04.05.2016 19:14 8,3 C 92 % 1025,4 hPa 0,0 l/m 4,7 km/h (1 Bft) SW 220 0 min 0,000 mm 0,0 UV-I 44 W/m 7,1 C 8,3 C 8,0 km/h (2 Bft) 91,67 %
04.05.2016 19:15 8,3 C 92 % 1025,4 hPa 0,0 l/m 4,9 km/h (1 Bft) W-SW 244 0 min 0,000 mm 0,0 UV-I 42 W/m 7,1 C 8,3 C 6,4 km/h (2 Bft) 97,56 %
04.05.2016 19:16 8,3 C 92 % 1025,4 hPa 0,0 l/m 6,4 km/h (2 Bft) W-SW 238 0 min 0,000 mm 0,0 UV-I 42 W/m 7,1 C 8,3 C 8,0 km/h (2 Bft) 100,00 %
04.05.2016 19:17 8,3 C 92 % 1025,5 hPa 0,0 l/m 5,0 km/h (1 Bft) W-SW 253 0 min 0,000 mm 0,0 UV-I 42 W/m 7,1 C 8,3 C 6,4 km/h (2 Bft) 95,65 %
04.05.2016 19:18 8,3 C 92 % 1025,4 hPa 0,0 l/m 4,8 km/h (1 Bft) SW 215 0 min 0,000 mm 0,0 UV-I 41 W/m 7,1 C 8,3 C 6,4 km/h (2 Bft) 100,00 %
04.05.2016 19:19 8,3 C 92 % 1025,5 hPa 0,0 l/m 5,7 km/h (1 Bft) W-SW 242 0 min 0,000 mm 0,0 UV-I 40 W/m 7,1 C 8,3 C 6,4 km/h (2 Bft) 91,30 %
04.05.2016 19:20 8,3 C 92 % 1025,4 hPa 0,0 l/m 3,6 km/h (1 Bft) SW 224 0 min 0,000 mm 0,0 UV-I 40 W/m 7,1 C 8,3 C 4,8 km/h (1 Bft) 100,00 %
04.05.2016 19:21 8,3 C 92 % 1025,5 hPa 0,0 l/m 5,6 km/h (1 Bft) SW 230 0 min 0,000 mm 0,0 UV-I 39 W/m 7,1 C 8,3 C 8,0 km/h (2 Bft) 83,33 %
04.05.2016 19:22 8,3 C 92 % 1025,5 hPa 0,0 l/m 5,5 km/h (1 Bft) W-SW 251 0 min 0,000 mm 0,0 UV-I 38 W/m 7,1 C 8,3 C 9,7 km/h (2 Bft) 100,00 %
04.05.2016 19:23 8,3 C 92 % 1025,5 hPa 0,2 l/m 5,1 km/h (1 Bft) SW 224 0 min 0,000 mm 0,0 UV-I 36 W/m 7,1 C 8,3 C 6,4 km/h (2 Bft) 96,15 %
04.05.2016 19:24 8,2 C 92 % 1025,5 hPa 0,0 l/m 5,5 km/h (1 Bft) SW 221 0 min 0,000 mm 0,0 UV-I 34 W/m 7,0 C 8,2 C 8,0 km/h (2 Bft) 96,30 %
04.05.2016 19:25 8,2 C 92 % 1025,6 hPa 0,0 l/m 4,5 km/h (1 Bft) SW 235 0 min 0,000 mm 0,0 UV-I 33 W/m 7,0 C 8,2 C 8,0 km/h (2 Bft) 94,44 %
04.05.2016 19:26 8,2 C 92 % 1025,6 hPa 0,0 l/m 4,5 km/h (1 Bft) W-SW 241 0 min 0,000 mm 0,0 UV-I 33 W/m 7,0 C 8,2 C 6,4 km/h (2 Bft) 95,65 %
04.05.2016 19:27 8,2 C 92 % 1025,6 hPa 0,0 l/m 6,0 km/h (2 Bft) SW 215 0 min 0,000 mm 0,0 UV-I 33 W/m 7,0 C 8,2 C 8,0 km/h (2 Bft) 100,00 %
04.05.2016 19:28 8,2 C 92 % 1025,6 hPa 0,0 l/m 5,2 km/h (1 Bft) W-SW 252 0 min 0,000 mm 0,0 UV-I 33 W/m 7,0 C 8,2 C 6,4 km/h (2 Bft) 92,86 %
04.05.2016 19:29 8,2 C 92 % 1025,6 hPa 0,0 l/m 5,1 km/h (1 Bft) W-SW 246 0 min 0,000 mm 0,0 UV-I 32 W/m 7,0 C 8,2 C 9,7 km/h (2 Bft) 100,00 %
04.05.2016 19:30 8,2 C 92 % 1025,6 hPa 0,0 l/m 4,4 km/h (1 Bft) W-SW 239 0 min 0,000 mm 0,0 UV-I 31 W/m 7,0 C 8,2 C 6,4 km/h (2 Bft) 95,65 %
04.05.2016 19:31 8,2 C 92 % 1025,6 hPa 0,0 l/m 5,2 km/h (1 Bft) W-SW 257 0 min 0,000 mm 0,0 UV-I 30 W/m 7,0 C 8,2 C 8,0 km/h (2 Bft) 100,00 %
04.05.2016 19:32 8,2 C 92 % 1025,6 hPa 0,0 l/m 5,5 km/h (1 Bft) W-SW 252 0 min 0,000 mm 0,0 UV-I 30 W/m 7,0 C 8,2 C 8,0 km/h (2 Bft) 95,65 %
04.05.2016 19:33 8,2 C 93 % 1025,7 hPa 0,0 l/m 4,2 km/h (1 Bft) W 261 0 min 0,000 mm 0,0 UV-I 28 W/m 7,1 C 8,2 C 4,8 km/h (1 Bft) 95,83 %
04.05.2016 19:34 8,2 C 93 % 1025,6 hPa 0,0 l/m 5,4 km/h (1 Bft) W-SW 258 0 min 0,000 mm 0,0 UV-I 28 W/m 7,1 C 8,2 C 6,4 km/h (2 Bft) 100,00 %
04.05.2016 19:35 8,2 C 93 % 1025,7 hPa 0,0 l/m 5,7 km/h (1 Bft) W-SW 252 0 min 0,000 mm 0,0 UV-I 28 W/m 7,1 C 8,2 C 6,4 km/h (2 Bft) 95,83 %
04.05.2016 19:36 8,2 C 93 % 1025,6 hPa 0,0 l/m 7,1 km/h (2 Bft) SW 234 0 min 0,000 mm 0,0 UV-I 27 W/m 7,1 C 7,7 C 11,3 km/h (2 Bft) 100,00 %
04.05.2016 19:37 8,2 C 93 % 1025,7 hPa 0,0 l/m 5,1 km/h (1 Bft) W-SW 243 0 min 0,000 mm 0,0 UV-I 26 W/m 7,1 C 8,2 C 6,4 km/h (2 Bft) 100,00 %
04.05.2016 19:38 8,2 C 93 % 1025,7 hPa 0,0 l/m 4,7 km/h (1 Bft) W-SW 242 0 min 0,000 mm 0,0 UV-I 25 W/m 7,1 C 8,2 C 6,4 km/h (2 Bft) 100,00 %
04.05.2016 19:39 8,2 C 93 % 1025,7 hPa 0,0 l/m 4,4 km/h (1 Bft) SW 236 0 min 0,000 mm 0,0 UV-I 25 W/m 7,1 C 8,2 C 6,4 km/h (2 Bft) 100,00 %
04.05.2016 19:40 8,2 C 93 % 1025,7 hPa 0,0 l/m 3,9 km/h (1 Bft) W-SW 248 0 min 0,000 mm 0,0 UV-I 25 W/m 7,1 C 8,2 C 8,0 km/h (2 Bft) 100,00 %
04.05.2016 19:41 8,2 C 93 % 1025,7 hPa 0,0 l/m 5,6 km/h (1 Bft) W-SW 246 0 min 0,000 mm 0,0 UV-I 24 W/m 7,1 C 8,2 C 8,0 km/h (2 Bft) 100,00 %
04.05.2016 19:42 8,2 C 93 % 1025,7 hPa 0,0 l/m 5,7 km/h (1 Bft) W 261 0 min 0,000 mm 0,0 UV-I 23 W/m 7,1 C 8,2 C 9,7 km/h (2 Bft) 100,00 %
04.05.2016 19:43 8,2 C 93 % 1025,6 hPa 0,0 l/m 5,2 km/h (1 Bft) W 277 0 min 0,000 mm 0,0 UV-I 21 W/m 7,1 C 8,2 C 8,0 km/h (2 Bft) 100,00 %
04.05.2016 19:44 8,2 C 93 % 1025,7 hPa 0,0 l/m 4,0 km/h (1 Bft) W-SW 253 0 min 0,000 mm 0,0 UV-I 20 W/m 7,1 C 8,2 C 6,4 km/h (2 Bft) 96,30 %
04.05.2016 19:45 8,2 C 93 % 1025,7 hPa 0,0 l/m 5,5 km/h (1 Bft) W-SW 252 0 min 0,000 mm 0,0 UV-I 19 W/m 7,1 C 8,2 C 8,0 km/h (2 Bft) 100,00 %
04.05.2016 19:46 8,2 C 93 % 1025,7 hPa 0,0 l/m 6,1 km/h (2 Bft) W-SW 250 0 min 0,000 mm 0,0 UV-I 18 W/m 7,1 C 8,2 C 6,4 km/h (2 Bft) 100,00 %
04.05.2016 19:47 8,2 C 93 % 1025,7 hPa 0,0 l/m 3,2 km/h (1 Bft) W 275 0 min 0,000 mm 0,0 UV-I 17 W/m 7,1 C 8,2 C 4,8 km/h (1 Bft) 100,00 %
04.05.2016 19:48 8,2 C 93 % 1025,7 hPa 0,0 l/m 6,0 km/h (2 Bft) W-SW 252 0 min 0,000 mm 0,0 UV-I 16 W/m 7,1 C 8,2 C 6,4 km/h (2 Bft) 100,00 %
04.05.2016 19:49 8,2 C 93 % 1025,7 hPa 0,0 l/m 5,3 km/h (1 Bft) W-SW 255 0 min 0,000 mm 0,0 UV-I 14 W/m 7,1 C 8,2 C 6,4 km/h (2 Bft) 100,00 %
04.05.2016 19:50 8,2 C 93 % 1025,7 hPa 0,0 l/m 4,6 km/h (1 Bft) W-SW 241 0 min 0,000 mm 0,0 UV-I 14 W/m 7,1 C 8,2 C 6,4 km/h (2 Bft) 100,00 %
04.05.2016 19:51 8,2 C 93 % 1025,7 hPa 0,0 l/m 5,3 km/h (1 Bft) W-SW 237 0 min 0,000 mm 0,0 UV-I 14 W/m 7,1 C 8,2 C 8,0 km/h (2 Bft) 100,00 %
04.05.2016 19:52 8,1 C 93 % 1025,7 hPa 0,0 l/m 3,6 km/h (1 Bft) W-SW 250 0 min 0,000 mm 0,0 UV-I 14 W/m 7,0 C 8,1 C 4,8 km/h (1 Bft) 100,00 %
04.05.2016 19:53 8,2 C 93 % 1025,7 hPa 0,0 l/m 3,3 km/h (1 Bft) W-SW 252 0 min 0,000 mm 0,0 UV-I 14 W/m 7,1 C 8,2 C 4,8 km/h (1 Bft) 100,00 %
04.05.2016 19:54 8,2 C 93 % 1025,7 hPa 0,0 l/m 2,5 km/h (1 Bft) W-SW 252 0 min 0,000 mm 0,0 UV-I 12 W/m 7,1 C 8,2 C 3,2 km/h (1 Bft) 100,00 %
04.05.2016 19:55 8,1 C 93 % 1025,7 hPa 0,0 l/m 2,9 km/h (1 Bft) W-SW 253 0 min 0,000 mm 0,0 UV-I 12 W/m 7,0 C 8,1 C 3,2 km/h (1 Bft) 100,00 %
04.05.2016 19:56 8,1 C 93 % 1025,7 hPa 0,0 l/m 4,2 km/h (1 Bft) W-SW 253 0 min 0,000 mm 0,0 UV-I 12 W/m 7,0 C 8,1 C 4,8 km/h (1 Bft) 100,00 %
04.05.2016 19:57 8,1 C 93 % 1025,7 hPa 0,0 l/m 4,0 km/h (1 Bft) W-SW 254 0 min 0,000 mm 0,0 UV-I 12 W/m 7,0 C 8,1 C 4,8 km/h (1 Bft) 100,00 %
04.05.2016 19:58 8,1 C 94 % 1025,8 hPa 0,0 l/m 5,6 km/h (1 Bft) W 266 0 min 0,000 mm 0,0 UV-I 11 W/m 7,2 C 8,1 C 8,0 km/h (2 Bft) 96,15 %
04.05.2016 19:59 8,1 C 93 % 1025,7 hPa 0,0 l/m 6,7 km/h (2 Bft) SW 233 0 min 0,000 mm 0,0 UV-I 11 W/m 7,0 C 7,9 C 9,7 km/h (2 Bft) 100,00 %
04.05.2016 20:00 8,1 C 93 % 1025,7 hPa 0,0 l/m 5,2 km/h (1 Bft) W 267 0 min 0,000 mm 0,0 UV-I 9 W/m 7,0 C 8,1 C 6,4 km/h (2 Bft) 100,00 %
04.05.2016 20:01 8,1 C 93 % 1025,8 hPa 0,0 l/m 4,2 km/h (1 Bft) W 263 0 min 0,025 mm 0,0 UV-I 9 W/m 7,0 C 8,1 C 4,8 km/h (1 Bft) 100,00 %
04.05.2016 20:02 8,1 C 93 % 1025,8 hPa 0,0 l/m 3,5 km/h (1 Bft) W 263 0 min 0,000 mm 0,0 UV-I 9 W/m 7,0 C 8,1 C 4,8 km/h (1 Bft) 100,00 %
04.05.2016 20:03 8,1 C 93 % 1025,7 hPa 0,0 l/m 4,8 km/h (1 Bft) W-SW 258 0 min 0,000 mm 0,0 UV-I 7 W/m 7,0 C 8,1 C 6,4 km/h (2 Bft) 92,31 %
04.05.2016 20:04 8,1 C 93 % 1025,7 hPa 0,0 l/m 5,0 km/h (1 Bft) W-SW 258 0 min 0,000 mm 0,0 UV-I 7 W/m 7,0 C 8,1 C 6,4 km/h (2 Bft) 100,00 %
04.05.2016 20:05 8,1 C 93 % 1025,7 hPa 0,0 l/m 4,0 km/h (1 Bft) W 265 0 min 0,000 mm 0,0 UV-I 7 W/m 7,0 C 8,1 C 6,4 km/h (2 Bft) 100,00 %
04.05.2016 20:06 8,1 C 93 % 1025,7 hPa 0,0 l/m 4,5 km/h (1 Bft) W-SW 249 0 min 0,000 mm 0,0 UV-I 7 W/m 7,0 C 8,1 C 6,4 km/h (2 Bft) 100,00 %
04.05.2016 20:07 8,1 C 93 % 1025,7 hPa 0,0 l/m 7,3 km/h (2 Bft) W-SW 244 0 min 0,000 mm 0,0 UV-I 5 W/m 7,0 C 7,4 C 9,7 km/h (2 Bft) 100,00 %
04.05.2016 20:08 8,0 C 93 % 1025,7 hPa 0,0 l/m 5,8 km/h (2 Bft) W-SW 242 0 min 0,000 mm 0,0 UV-I 5 W/m 6,9 C 8,0 C 9,7 km/h (2 Bft) 100,00 %
04.05.2016 20:09 8,1 C 93 % 1025,7 hPa 0,0 l/m 3,2 km/h (1 Bft) W-NW 294 0 min 0,000 mm 0,0 UV-I 5 W/m 7,0 C 8,1 C 4,8 km/h (1 Bft) 100,00 %
04.05.2016 20:10 8,0 C 93 % 1025,8 hPa 0,0 l/m 1,8 km/h (1 Bft) W-NW 294 0 min 0,000 mm 0,0 UV-I 3 W/m 6,9 C 8,0 C 3,2 km/h (1 Bft) 90,91 %
04.05.2016 20:11 8,0 C 93 % 1025,8 hPa 0,0 l/m 3,4 km/h (1 Bft) W-NW 292 0 min 0,000 mm 0,0 UV-I 0 W/m 6,9 C 8,0 C 4,8 km/h (1 Bft) 100,00 %
04.05.2016 20:12 8,0 C 94 % 1025,8 hPa 0,0 l/m 3,8 km/h (1 Bft) W-SW 252 0 min 0,000 mm 0,0 UV-I 0 W/m 7,1 C 8,0 C 4,8 km/h (1 Bft) 100,00 %
04.05.2016 20:13 8,0 C 94 % 1025,8 hPa 0,0 l/m 3,6 km/h (1 Bft) W-SW 252 0 min 0,000 mm 0,0 UV-I 0 W/m 7,1 C 8,0 C 4,8 km/h (1 Bft) 100,00 %
04.05.2016 20:14 8,0 C 94 % 1025,8 hPa 0,0 l/m 3,9 km/h (1 Bft) W 263 0 min 0,000 mm 0,0 UV-I 0 W/m 7,1 C 8,0 C 4,8 km/h (1 Bft) 100,00 %
04.05.2016 20:15 8,0 C 94 % 1025,8 hPa 0,0 l/m 4,0 km/h (1 Bft) W 263 0 min 0,000 mm 0,0 UV-I 0 W/m 7,1 C 8,0 C 6,4 km/h (2 Bft) 100,00 %
04.05.2016 20:16 7,9 C 94 % 1025,8 hPa 0,0 l/m 3,2 km/h (1 Bft) W 263 0 min 0,000 mm 0,0 UV-I 0 W/m 7,0 C 7,9 C 4,8 km/h (1 Bft) 95,65 %
04.05.2016 20:17 7,9 C 94 % 1025,9 hPa 0,0 l/m 2,9 km/h (1 Bft) W 263 0 min 0,000 mm 0,0 UV-I 0 W/m 7,0 C 7,9 C 4,8 km/h (1 Bft) 100,00 %
04.05.2016 20:18 7,9 C 94 % 1025,8 hPa 0,0 l/m 2,8 km/h (1 Bft) W 263 0 min 0,000 mm 0,0 UV-I 0 W/m 7,0 C 7,9 C 3,2 km/h (1 Bft) 100,00 %
04.05.2016 20:19 7,9 C 94 % 1025,9 hPa 0,0 l/m 3,1 km/h (1 Bft) W 263 0 min 0,000 mm 0,0 UV-I 0 W/m 7,0 C 7,9 C 4,8 km/h (1 Bft) 100,00 %
04.05.2016 20:20 7,9 C 94 % 1025,9 hPa 0,0 l/m 3,3 km/h (1 Bft) W 263 0 min 0,000 mm 0,0 UV-I 0 W/m 7,0 C 7,9 C 6,4 km/h (2 Bft) 100,00 %
04.05.2016 20:21 7,9 C 94 % 1025,9 hPa 0,0 l/m 4,7 km/h (1 Bft) W-SW 243 0 min 0,000 mm 0,0 UV-I 0 W/m 7,0 C 7,9 C 9,7 km/h (2 Bft) 100,00 %
04.05.2016 20:22 7,9 C 94 % 1025,9 hPa 0,0 l/m 4,6 km/h (1 Bft) W-SW 244 0 min 0,000 mm 0,0 UV-I 0 W/m 7,0 C 7,9 C 6,4 km/h (2 Bft) 100,00 %
04.05.2016 20:23 7,9 C 94 % 1025,9 hPa 0,0 l/m 4,8 km/h (1 Bft) W 261 0 min 0,000 mm 0,0 UV-I 0 W/m 7,0 C 7,9 C 9,7 km/h (2 Bft) 96,15 %
04.05.2016 20:24 7,9 C 93 % 1025,9 hPa 0,0 l/m 4,0 km/h (1 Bft) W 273 0 min 0,000 mm 0,0 UV-I 0 W/m 6,8 C 7,9 C 6,4 km/h (2 Bft) 100,00 %
04.05.2016 20:25 7,9 C 93 % 1025,9 hPa 0,0 l/m 3,6 km/h (1 Bft) W 272 0 min 0,000 mm 0,0 UV-I 0 W/m 6,8 C 7,9 C 6,4 km/h (2 Bft) 93,33 %
04.05.2016 20:26 7,9 C 93 % 1025,9 hPa 0,0 l/m 2,9 km/h (1 Bft) W 272 0 min 0,000 mm 0,0 UV-I 0 W/m 6,8 C 7,9 C 4,8 km/h (1 Bft) 95,83 %
04.05.2016 20:27 7,9 C 93 % 1025,9 hPa 0,0 l/m 3,6 km/h (1 Bft) W-NW 303 0 min 0,000 mm 0,0 UV-I 0 W/m 6,8 C 7,9 C 4,8 km/h (1 Bft) 100,00 %
04.05.2016 20:28 7,9 C 93 % 1025,9 hPa 0,0 l/m 2,5 km/h (1 Bft) W-NW 302 0 min 0,000 mm 0,0 UV-I 0 W/m 6,8 C 7,9 C 3,2 km/h (1 Bft) 96,67 %
04.05.2016 20:29 7,9 C 93 % 1025,9 hPa 0,0 l/m 2,1 km/h (1 Bft) W-NW 302 0 min 0,000 mm 0,0 UV-I 0 W/m 6,8 C 7,9 C 3,2 km/h (1 Bft) 100,00 %
04.05.2016 20:30 7,9 C 93 % 1025,9 hPa 0,0 l/m 2,8 km/h (1 Bft) W-NW 298 0 min 0,000 mm 0,0 UV-I 0 W/m 6,8 C 7,9 C 4,8 km/h (1 Bft) 95,83 %
04.05.2016 20:31 7,9 C 93 % 1025,9 hPa 0,0 l/m 1,5 km/h (1 Bft) NW 306 0 min 0,000 mm 0,0 UV-I 0 W/m 6,8 C 7,9 C 3,2 km/h (1 Bft) 100,00 %
04.05.2016 20:32 7,8 C 93 % 1025,9 hPa 0,0 l/m 1,9 km/h (1 Bft) NW 306 0 min 0,000 mm 0,0 UV-I 0 W/m 6,7 C 7,8 C 4,8 km/h (1 Bft) 95,83 %
04.05.2016 20:33 7,8 C 93 % 1025,9 hPa 0,0 l/m 1,3 km/h (1 Bft) NW 306 0 min 0,000 mm 0,0 UV-I 0 W/m 6,7 C 7,8 C 3,2 km/h (1 Bft) 100,00 %
04.05.2016 20:34 7,8 C 93 % 1025,9 hPa 0,0 l/m 1,1 km/h (1 Bft) NW 306 0 min 0,000 mm 0,0 UV-I 0 W/m 6,7 C 7,8 C 3,2 km/h (1 Bft) 100,00 %
04.05.2016 20:35 7,8 C 93 % 1026,0 hPa 0,0 l/m 1,7 km/h (1 Bft) NW 306 0 min 0,000 mm 0,0 UV-I 0 W/m 6,7 C 7,8 C 3,2 km/h (1 Bft) 95,65 %
04.05.2016 20:36 7,8 C 93 % 1026,0 hPa 0,0 l/m 0,4 km/h (0 Bft) NW 306 0 min 0,000 mm 0,0 UV-I 0 W/m 6,7 C 7,8 C 1,6 km/h (1 Bft) 100,00 %
04.05.2016 20:37 7,8 C 93 % 1025,9 hPa 0,0 l/m 2,7 km/h (1 Bft) NW 304 0 min 0,000 mm 0,0 UV-I 0 W/m 6,7 C 7,8 C 4,8 km/h (1 Bft) 100,00 %
04.05.2016 20:38 7,8 C 93 % 1026,0 hPa 0,0 l/m 1,4 km/h (1 Bft) NW 304 0 min 0,000 mm 0,0 UV-I 0 W/m 6,7 C 7,8 C 1,6 km/h (1 Bft) 100,00 %
04.05.2016 20:39 7,8 C 93 % 1026,0 hPa 0,0 l/m 0,9 km/h (0 Bft) NW 304 0 min 0,000 mm 0,0 UV-I 0 W/m 6,7 C 7,8 C 1,6 km/h (1 Bft) 100,00 %
04.05.2016 20:40 7,8 C 93 % 1026,0 hPa 0,0 l/m 2,3 km/h (1 Bft) NW 304 0 min 0,000 mm 0,0 UV-I 0 W/m 6,7 C 7,8 C 3,2 km/h (1 Bft) 100,00 %
04.05.2016 20:41 7,8 C 93 % 1026,0 hPa 0,2 l/m 1,5 km/h (1 Bft) NW 304 0 min 0,000 mm 0,0 UV-I 0 W/m 6,7 C 7,8 C 3,2 km/h (1 Bft) 100,00 %
04.05.2016 20:42 7,7 C 94 % 1026,0 hPa 0,0 l/m 1,9 km/h (1 Bft) W-NW 296 0 min 0,000 mm 0,0 UV-I 0 W/m 6,8 C 7,7 C 4,8 km/h (1 Bft) 100,00 %
04.05.2016 20:43 7,7 C 93 % 1026,0 hPa 0,0 l/m 1,1 km/h (1 Bft) W-NW 297 0 min 0,000 mm 0,0 UV-I 0 W/m 6,6 C 7,7 C 3,2 km/h (1 Bft) 100,00 %
04.05.2016 20:44 7,7 C 93 % 1026,0 hPa 0,0 l/m 0,6 km/h (0 Bft) W-NW 296 0 min 0,000 mm 0,0 UV-I 0 W/m 6,6 C 7,7 C 1,6 km/h (1 Bft) 92,31 %
04.05.2016 20:45 7,7 C 93 % 1026,0 hPa 0,0 l/m 2,3 km/h (1 Bft) W-NW 294 0 min 0,000 mm 0,0 UV-I 0 W/m 6,6 C 7,7 C 4,8 km/h (1 Bft) 100,00 %
04.05.2016 20:46 7,7 C 93 % 1026,1 hPa 0,0 l/m 1,5 km/h (1 Bft) W-NW 294 0 min 0,000 mm 0,0 UV-I 0 W/m 6,6 C 7,7 C 3,2 km/h (1 Bft) 100,00 %
04.05.2016 20:47 7,7 C 93 % 1026,1 hPa 0,0 l/m 2,4 km/h (1 Bft) W-NW 294 0 min 0,000 mm 0,0 UV-I 0 W/m 6,6 C 7,7 C 4,8 km/h (1 Bft) 100,00 %
04.05.2016 20:48 7,7 C 93 % 1026,1 hPa 0,0 l/m 2,6 km/h (1 Bft) W-NW 294 0 min 0,000 mm 0,0 UV-I 0 W/m 6,6 C 7,7 C 4,8 km/h (1 Bft) 95,65 %
04.05.2016 20:49 7,7 C 94 % 1026,1 hPa 0,0 l/m 2,1 km/h (1 Bft) W-NW 294 0 min 0,000 mm 0,0 UV-I 0 W/m 6,8 C 7,7 C 3,2 km/h (1 Bft) 100,00 %
04.05.2016 20:50 7,7 C 94 % 1026,1 hPa 0,0 l/m 1,7 km/h (1 Bft) W-NW 294 0 min 0,000 mm 0,0 UV-I 0 W/m 6,8 C 7,7 C 3,2 km/h (1 Bft) 100,00 %
04.05.2016 20:51 7,6 C 94 % 1026,1 hPa 0,0 l/m 1,9 km/h (1 Bft) W-NW 294 0 min 0,000 mm 0,0 UV-I 0 W/m 6,7 C 7,6 C 3,2 km/h (1 Bft) 100,00 %
04.05.2016 20:52 7,7 C 94 % 1026,2 hPa 0,0 l/m 1,9 km/h (1 Bft) W-NW 294 0 min 0,000 mm 0,0 UV-I 0 W/m 6,8 C 7,7 C 3,2 km/h (1 Bft) 100,00 %
04.05.2016 20:53 7,6 C 94 % 1026,2 hPa 0,0 l/m 2,3 km/h (1 Bft) NW 308 0 min 0,000 mm 0,0 UV-I 0 W/m 6,7 C 7,6 C 4,8 km/h (1 Bft) 100,00 %
04.05.2016 20:54 7,6 C 94 % 1026,2 hPa 0,0 l/m 3,1 km/h (1 Bft) W-NW 284 0 min 0,000 mm 0,0 UV-I 0 W/m 6,7 C 7,6 C 4,8 km/h (1 Bft) 100,00 %
04.05.2016 20:55 7,6 C 94 % 1026,2 hPa 0,0 l/m 4,8 km/h (1 Bft) W-NW 283 0 min 0,000 mm 0,0 UV-I 0 W/m 6,7 C 7,6 C 9,7 km/h (2 Bft) 100,00 %
04.05.2016 20:56 7,6 C 94 % 1026,3 hPa 0,0 l/m 4,0 km/h (1 Bft) W-NW 285 0 min 0,000 mm 0,0 UV-I 0 W/m 6,7 C 7,6 C 6,4 km/h (2 Bft) 100,00 %
04.05.2016 20:57 7,6 C 93 % 1026,3 hPa 0,0 l/m 4,1 km/h (1 Bft) W-SW 253 0 min 0,000 mm 0,0 UV-I 0 W/m 6,5 C 7,6 C 4,8 km/h (1 Bft) 100,00 %
04.05.2016 20:58 7,6 C 94 % 1026,3 hPa 0,0 l/m 2,7 km/h (1 Bft) W-SW 253 0 min 0,000 mm 0,0 UV-I 0 W/m 6,7 C 7,6 C 4,8 km/h (1 Bft) 100,00 %
04.05.2016 20:59 7,6 C 94 % 1026,3 hPa 0,0 l/m 3,0 km/h (1 Bft) W-SW 257 0 min 0,000 mm 0,0 UV-I 0 W/m 6,7 C 7,6 C 4,8 km/h (1 Bft) 95,12 %
04.05.2016 21:00 7,6 C 94 % 1026,3 hPa 0,0 l/m 2,5 km/h (1 Bft) W-SW 257 0 min 0,000 mm 0,0 UV-I 0 W/m 6,7 C 7,6 C 4,8 km/h (1 Bft) 100,00 %
04.05.2016 21:01 7,6 C 94 % 1026,4 hPa 0,0 l/m 2,1 km/h (1 Bft) W-SW 257 0 min 0,000 mm 0,0 UV-I 0 W/m 6,7 C 7,6 C 4,8 km/h (1 Bft) 95,65 %
04.05.2016 21:02 7,6 C 93 % 1026,3 hPa 0,2 l/m 4,6 km/h (1 Bft) W 259 0 min 0,000 mm 0,0 UV-I 0 W/m 6,5 C 7,6 C 6,4 km/h (2 Bft) 100,00 %
04.05.2016 21:03 7,6 C 93 % 1026,3 hPa 0,0 l/m 3,3 km/h (1 Bft) W 259 0 min 0,000 mm 0,0 UV-I 0 W/m 6,5 C 7,6 C 4,8 km/h (1 Bft) 95,65 %
04.05.2016 21:04 7,6 C 93 % 1026,4 hPa 0,0 l/m 2,8 km/h (1 Bft) W 259 0 min 0,000 mm 0,0 UV-I 0 W/m 6,5 C 7,6 C 4,8 km/h (1 Bft) 100,00 %
04.05.2016 21:05 7,6 C 94 % 1026,4 hPa 0,0 l/m 3,8 km/h (1 Bft) W 259 0 min 0,000 mm 0,0 UV-I 0 W/m 6,7 C 7,6 C 4,8 km/h (1 Bft) 95,65 %
04.05.2016 21:06 7,6 C 94 % 1026,4 hPa 0,0 l/m 4,6 km/h (1 Bft) W-SW 255 0 min 0,000 mm 0,0 UV-I 0 W/m 6,7 C 7,6 C 6,4 km/h (2 Bft) 100,00 %
04.05.2016 21:07 7,6 C 94 % 1026,4 hPa 0,0 l/m 2,7 km/h (1 Bft) W-SW 255 0 min 0,000 mm 0,0 UV-I 0 W/m 6,7 C 7,6 C 4,8 km/h (1 Bft) 95,65 %
04.05.2016 21:08 7,6 C 94 % 1026,4 hPa 0,0 l/m 2,6 km/h (1 Bft) W-SW 255 0 min 0,000 mm 0,0 UV-I 0 W/m 6,7 C 7,6 C 3,2 km/h (1 Bft) 100,00 %
04.05.2016 21:09 7,6 C 94 % 1026,5 hPa 0,0 l/m 4,7 km/h (1 Bft) W-SW 255 0 min 0,000 mm 0,0 UV-I 0 W/m 6,7 C 7,6 C 6,4 km/h (2 Bft) 96,88 %
04.05.2016 21:10 7,6 C 93 % 1026,5 hPa 0,0 l/m 3,3 km/h (1 Bft) W 260 0 min 0,000 mm 0,0 UV-I 0 W/m 6,5 C 7,6 C 4,8 km/h (1 Bft) 100,00 %
04.05.2016 21:11 7,6 C 93 % 1026,4 hPa 0,0 l/m 2,7 km/h (1 Bft) W 260 0 min 0,000 mm 0,0 UV-I 0 W/m 6,5 C 7,6 C 4,8 km/h (1 Bft) 96,15 %
04.05.2016 21:12 7,6 C 94 % 1026,4 hPa 0,0 l/m 3,7 km/h (1 Bft) W 265 0 min 0,000 mm 0,0 UV-I 0 W/m 6,7 C 7,6 C 4,8 km/h (1 Bft) 96,30 %
04.05.2016 21:13 7,6 C 94 % 1026,4 hPa 0,0 l/m 3,6 km/h (1 Bft) W-NW 285 0 min 0,000 mm 0,0 UV-I 0 W/m 6,7 C 7,6 C 4,8 km/h (1 Bft) 100,00 %
04.05.2016 21:14 7,6 C 94 % 1026,4 hPa 0,2 l/m 3,7 km/h (1 Bft) W 259 0 min 0,000 mm 0,0 UV-I 0 W/m 6,7 C 7,6 C 6,4 km/h (2 Bft) 91,67 %
04.05.2016 21:15 7,6 C 94 % 1026,4 hPa 0,0 l/m 2,9 km/h (1 Bft) W 263 0 min 0,000 mm 0,0 UV-I 0 W/m 6,7 C 7,6 C 4,8 km/h (1 Bft) 92,31 %
04.05.2016 21:16 7,5 C 94 % 1026,4 hPa 0,0 l/m 2,4 km/h (1 Bft) W-SW 256 0 min 0,000 mm 0,0 UV-I 0 W/m 6,6 C 7,5 C 3,2 km/h (1 Bft) 100,00 %
04.05.2016 21:17 7,5 C 94 % 1026,5 hPa 0,0 l/m 2,9 km/h (1 Bft) W-SW 256 0 min 0,000 mm 0,0 UV-I 0 W/m 6,6 C 7,5 C 3,2 km/h (1 Bft) 95,65 %
04.05.2016 21:18 7,5 C 94 % 1026,4 hPa 0,0 l/m 2,3 km/h (1 Bft) W-SW 256 0 min 0,000 mm 0,0 UV-I 0 W/m 6,6 C 7,5 C 3,2 km/h (1 Bft) 100,00 %
04.05.2016 21:19 7,5 C 94 % 1026,5 hPa 0,0 l/m 2,5 km/h (1 Bft) W-SW 256 0 min 0,000 mm 0,0 UV-I 0 W/m 6,6 C 7,5 C 3,2 km/h (1 Bft) 95,65 %
04.05.2016 21:20 7,4 C 94 % 1026,4 hPa 0,0 l/m 2,4 km/h (1 Bft) W-SW 256 0 min 0,000 mm 0,0 UV-I 0 W/m 6,5 C 7,4 C 3,2 km/h (1 Bft) 100,00 %
04.05.2016 21:21 7,4 C 94 % 1026,5 hPa 0,2 l/m 3,0 km/h (1 Bft) W-SW 256 0 min 0,000 mm 0,0 UV-I 0 W/m 6,5 C 7,4 C 4,8 km/h (1 Bft) 96,15 %
04.05.2016 21:22 7,4 C 94 % 1026,5 hPa 0,0 l/m 2,8 km/h (1 Bft) W-SW 256 0 min 0,000 mm 0,0 UV-I 0 W/m 6,5 C 7,4 C 4,8 km/h (1 Bft) 100,00 %
04.05.2016 21:23 7,4 C 94 % 1026,5 hPa 0,0 l/m 2,4 km/h (1 Bft) W-SW 256 0 min 0,000 mm 0,0 UV-I 0 W/m 6,5 C 7,4 C 3,2 km/h (1 Bft) 93,33 %
04.05.2016 21:24 7,5 C 94 % 1026,5 hPa 0,0 l/m 2,7 km/h (1 Bft) W 263 0 min 0,000 mm 0,0 UV-I 0 W/m 6,6 C 7,5 C 4,8 km/h (1 Bft) 100,00 %
04.05.2016 21:25 7,4 C 94 % 1026,6 hPa 0,0 l/m 3,5 km/h (1 Bft) W 263 0 min 0,000 mm 0,0 UV-I 0 W/m 6,5 C 7,4 C 4,8 km/h (1 Bft) 96,30 %
04.05.2016 21:26 7,4 C 94 % 1026,5 hPa 0,0 l/m 2,7 km/h (1 Bft) W 263 0 min 0,000 mm 0,0 UV-I 0 W/m 6,5 C 7,4 C 4,8 km/h (1 Bft) 100,00 %
04.05.2016 21:27 7,4 C 95 % 1026,5 hPa 0,0 l/m 1,8 km/h (1 Bft) W 263 0 min 0,000 mm 0,0 UV-I 0 W/m 6,7 C 7,4 C 3,2 km/h (1 Bft) 96,67 %
04.05.2016 21:28 7,4 C 95 % 1026,5 hPa 0,0 l/m 2,4 km/h (1 Bft) W 263 0 min 0,000 mm 0,0 UV-I 0 W/m 6,7 C 7,4 C 4,8 km/h (1 Bft) 95,65 %
04.05.2016 21:29 7,4 C 95 % 1026,5 hPa 0,0 l/m 1,5 km/h (1 Bft) W 263 0 min 0,000 mm 0,0 UV-I 0 W/m 6,7 C 7,4 C 1,6 km/h (1 Bft) 100,00 %
04.05.2016 21:30 7,4 C 95 % 1026,5 hPa 0,0 l/m 1,9 km/h (1 Bft) W 263 0 min 0,000 mm 0,0 UV-I 0 W/m 6,7 C 7,4 C 3,2 km/h (1 Bft) 95,65 %
04.05.2016 21:31 7,4 C 95 % 1026,5 hPa 0,0 l/m 1,7 km/h (1 Bft) W 263 0 min 0,000 mm 0,0 UV-I 0 W/m 6,7 C 7,4 C 3,2 km/h (1 Bft) 100,00 %
04.05.2016 21:32 7,4 C 95 % 1026,6 hPa 0,0 l/m 1,3 km/h (1 Bft) W 264 0 min 0,000 mm 0,0 UV-I 0 W/m 6,7 C 7,4 C 3,2 km/h (1 Bft) 95,65 %
04.05.2016 21:33 7,3 C 95 % 1026,5 hPa 0,0 l/m 1,0 km/h (0 Bft) W 264 0 min 0,000 mm 0,0 UV-I 0 W/m 6,6 C 7,3 C 1,6 km/h (1 Bft) 100,00 %
04.05.2016 21:34 7,3 C 95 % 1026,6 hPa 0,0 l/m 0,6 km/h (0 Bft) W 264 0 min 0,000 mm 0,0 UV-I 0 W/m 6,6 C 7,3 C 1,6 km/h (1 Bft) 92,31 %
04.05.2016 21:35 7,3 C 95 % 1026,6 hPa 0,0 l/m 1,6 km/h (1 Bft) W 264 0 min 0,000 mm 0,0 UV-I 0 W/m 6,6 C 7,3 C 3,2 km/h (1 Bft) 96,30 %
04.05.2016 21:36 7,3 C 95 % 1026,6 hPa 0,0 l/m 2,3 km/h (1 Bft) W 264 0 min 0,000 mm 0,0 UV-I 0 W/m 6,6 C 7,3 C 3,2 km/h (1 Bft) 95,65 %
04.05.2016 21:37 7,3 C 95 % 1026,6 hPa 0,0 l/m 1,0 km/h (0 Bft) W 264 0 min 0,000 mm 0,0 UV-I 0 W/m 6,6 C 7,3 C 1,6 km/h (1 Bft) 100,00 %
04.05.2016 21:38 7,3 C 95 % 1026,6 hPa 0,0 l/m 1,6 km/h (1 Bft) W 264 0 min 0,000 mm 0,0 UV-I 0 W/m 6,6 C 7,3 C 3,2 km/h (1 Bft) 100,00 %
04.05.2016 21:39 7,3 C 95 % 1026,6 hPa 0,0 l/m 1,3 km/h (1 Bft) W 264 0 min 0,000 mm 0,0 UV-I 0 W/m 6,6 C 7,3 C 3,2 km/h (1 Bft) 100,00 %
04.05.2016 21:40 7,3 C 95 % 1026,6 hPa 0,0 l/m 2,4 km/h (1 Bft) W 264 0 min 0,000 mm 0,0 UV-I 0 W/m 6,6 C 7,3 C 3,2 km/h (1 Bft) 100,00 %
04.05.2016 21:41 7,3 C 95 % 1026,6 hPa 0,0 l/m 2,6 km/h (1 Bft) W 264 0 min 0,000 mm 0,0 UV-I 0 W/m 6,6 C 7,3 C 3,2 km/h (1 Bft) 96,15 %
04.05.2016 21:42 7,3 C 95 % 1026,6 hPa 0,0 l/m 2,2 km/h (1 Bft) W 264 0 min 0,000 mm 0,0 UV-I 0 W/m 6,6 C 7,3 C 3,2 km/h (1 Bft) 100,00 %
04.05.2016 21:43 7,3 C 95 % 1026,6 hPa 0,2 l/m 3,1 km/h (1 Bft) W 264 0 min 0,000 mm 0,0 UV-I 0 W/m 6,6 C 7,3 C 3,2 km/h (1 Bft) 100,00 %
04.05.2016 21:44 7,3 C 95 % 1026,6 hPa 0,0 l/m 2,3 km/h (1 Bft) W 264 0 min 0,000 mm 0,0 UV-I 0 W/m 6,6 C 7,3 C 3,2 km/h (1 Bft) 100,00 %
04.05.2016 21:45 7,3 C 95 % 1026,5 hPa 0,0 l/m 2,6 km/h (1 Bft) W 263 0 min 0,000 mm 0,0 UV-I 0 W/m 6,6 C 7,3 C 3,2 km/h (1 Bft) 100,00 %
04.05.2016 21:46 7,3 C 95 % 1026,6 hPa 0,0 l/m 2,5 km/h (1 Bft) W 263 0 min 0,000 mm 0,0 UV-I 0 W/m 6,6 C 7,3 C 3,2 km/h (1 Bft) 100,00 %
04.05.2016 21:47 7,3 C 95 % 1026,6 hPa 0,0 l/m 2,6 km/h (1 Bft) W 263 0 min 0,000 mm 0,0 UV-I 0 W/m 6,6 C 7,3 C 3,2 km/h (1 Bft) 100,00 %
04.05.2016 21:48 7,3 C 96 % 1026,6 hPa 0,0 l/m 3,1 km/h (1 Bft) W 264 0 min 0,000 mm 0,0 UV-I 0 W/m 6,7 C 7,3 C 4,8 km/h (1 Bft) 95,83 %
04.05.2016 21:49 7,3 C 96 % 1026,6 hPa 0,0 l/m 4,4 km/h (1 Bft) W 265 0 min 0,000 mm 0,0 UV-I 0 W/m 6,7 C 7,3 C 4,8 km/h (1 Bft) 100,00 %
04.05.2016 21:50 7,3 C 96 % 1026,6 hPa 0,0 l/m 3,3 km/h (1 Bft) W 266 0 min 0,000 mm 0,0 UV-I 0 W/m 6,7 C 7,3 C 4,8 km/h (1 Bft) 100,00 %
04.05.2016 21:51 7,3 C 96 % 1026,6 hPa 0,0 l/m 1,6 km/h (1 Bft) W 266 0 min 0,000 mm 0,0 UV-I 0 W/m 6,7 C 7,3 C 3,2 km/h (1 Bft) 100,00 %
04.05.2016 21:52 7,3 C 96 % 1026,6 hPa 0,0 l/m 1,9 km/h (1 Bft) W 266 0 min 0,000 mm 0,0 UV-I 0 W/m 6,7 C 7,3 C 3,2 km/h (1 Bft) 98,60 %
04.05.2016 21:53 7,3 C 96 % 1026,6 hPa 0,0 l/m 3,3 km/h (1 Bft) W 264 0 min 0,000 mm 0,0 UV-I 0 W/m 6,7 C 7,3 C 4,8 km/h (1 Bft) 97,56 %
04.05.2016 21:54 7,3 C 96 % 1026,7 hPa 0,0 l/m 2,5 km/h (1 Bft) W 264 0 min 0,000 mm 0,0 UV-I 0 W/m 6,7 C 7,3 C 4,8 km/h (1 Bft) 100,00 %
04.05.2016 21:55 7,2 C 95 % 1026,7 hPa 0,0 l/m 1,9 km/h (1 Bft) W 266 0 min 0,000 mm 0,0 UV-I 0 W/m 6,5 C 7,2 C 3,2 km/h (1 Bft) 100,00 %
04.05.2016 21:56 7,2 C 95 % 1026,7 hPa 0,0 l/m 0,5 km/h (0 Bft) W 266 0 min 0,000 mm 0,0 UV-I 0 W/m 6,5 C 7,2 C 1,6 km/h (1 Bft) 100,00 %
04.05.2016 21:57 7,2 C 95 % 1026,7 hPa 0,0 l/m 3,6 km/h (1 Bft) NW 325 0 min 0,000 mm 0,0 UV-I 0 W/m 6,5 C 7,2 C 6,4 km/h (2 Bft) 100,00 %
04.05.2016 21:58 7,2 C 96 % 1026,7 hPa 0,0 l/m 1,8 km/h (1 Bft) NW 315 0 min 0,000 mm 0,0 UV-I 0 W/m 6,6 C 7,2 C 3,2 km/h (1 Bft) 100,00 %
04.05.2016 21:59 7,2 C 95 % 1026,7 hPa 0,0 l/m 4,3 km/h (1 Bft) W 259 0 min 0,000 mm 0,0 UV-I 0 W/m 6,5 C 7,2 C 6,4 km/h (2 Bft) 96,15 %
04.05.2016 22:00 7,2 C 95 % 1026,7 hPa 0,0 l/m 3,1 km/h (1 Bft) W-SW 247 0 min 0,000 mm 0,0 UV-I 0 W/m 6,5 C 7,2 C 4,8 km/h (1 Bft) 96,30 %
04.05.2016 22:01 7,2 C 95 % 1026,7 hPa 0,0 l/m 3,8 km/h (1 Bft) W 260 0 min 0,000 mm 0,0 UV-I 0 W/m 6,5 C 7,2 C 4,8 km/h (1 Bft) 91,67 %
04.05.2016 22:02 7,2 C 95 % 1026,7 hPa 0,0 l/m 1,9 km/h (1 Bft) W 275 0 min 0,000 mm 0,0 UV-I 0 W/m 6,5 C 7,2 C 6,4 km/h (2 Bft) 96,55 %
04.05.2016 22:03 7,1 C 95 % 1026,7 hPa 0,0 l/m 1,9 km/h (1 Bft) W 275 0 min 0,000 mm 0,0 UV-I 0 W/m 6,4 C 7,1 C 3,2 km/h (1 Bft) 100,00 %
04.05.2016 22:04 7,1 C 95 % 1026,6 hPa 0,0 l/m 3,6 km/h (1 Bft) W 262 0 min 0,000 mm 0,0 UV-I 0 W/m 6,4 C 7,1 C 4,8 km/h (1 Bft) 100,00 %
04.05.2016 22:05 7,1 C 95 % 1026,6 hPa 0,0 l/m 4,2 km/h (1 Bft) W 265 0 min 0,000 mm 0,0 UV-I 0 W/m 6,4 C 7,1 C 4,8 km/h (1 Bft) 100,00 %
04.05.2016 22:06 7,1 C 95 % 1026,7 hPa 0,2 l/m 2,3 km/h (1 Bft) W 265 0 min 0,000 mm 0,0 UV-I 0 W/m 6,4 C 7,1 C 4,8 km/h (1 Bft) 100,00 %
04.05.2016 22:07 7,0 C 95 % 1026,7 hPa 0,0 l/m 2,4 km/h (1 Bft) W 264 0 min 0,000 mm 0,0 UV-I 0 W/m 6,3 C 7,0 C 4,8 km/h (1 Bft) 100,00 %
04.05.2016 22:08 7,0 C 95 % 1026,7 hPa 0,0 l/m 1,4 km/h (1 Bft) W 264 0 min 0,000 mm 0,0 UV-I 0 W/m 6,3 C 7,0 C 1,6 km/h (1 Bft) 96,15 %
04.05.2016 22:09 7,0 C 95 % 1026,7 hPa 0,0 l/m 2,7 km/h (1 Bft) W 264 0 min 0,000 mm 0,0 UV-I 0 W/m 6,3 C 7,0 C 4,8 km/h (1 Bft) 100,00 %
04.05.2016 22:10 7,0 C 95 % 1026,7 hPa 0,0 l/m 1,9 km/h (1 Bft) W 264 0 min 0,000 mm 0,0 UV-I 0 W/m 6,3 C 7,0 C 3,2 km/h (1 Bft) 100,00 %
04.05.2016 22:11 7,0 C 95 % 1026,7 hPa 0,0 l/m 1,9 km/h (1 Bft) W 264 0 min 0,000 mm 0,0 UV-I 0 W/m 6,3 C 7,0 C 3,2 km/h (1 Bft) 100,00 %
04.05.2016 22:12 7,0 C 95 % 1026,7 hPa 0,0 l/m 1,9 km/h (1 Bft) W 264 0 min 0,000 mm 0,0 UV-I 0 W/m 6,3 C 7,0 C 3,2 km/h (1 Bft) 95,65 %
04.05.2016 22:13 7,0 C 95 % 1026,7 hPa 0,0 l/m 0,8 km/h (0 Bft) W 264 0 min 0,000 mm 0,0 UV-I 0 W/m 6,3 C 7,0 C 1,6 km/h (1 Bft) 100,00 %
04.05.2016 22:14 7,0 C 95 % 1026,7 hPa 0,0 l/m 1,7 km/h (1 Bft) W 264 0 min 0,000 mm 0,0 UV-I 0 W/m 6,3 C 7,0 C 3,2 km/h (1 Bft) 100,00 %
04.05.2016 22:15 7,0 C 95 % 1026,7 hPa 0,0 l/m 3,0 km/h (1 Bft) W 261 0 min 0,000 mm 0,0 UV-I 0 W/m 6,3 C 7,0 C 4,8 km/h (1 Bft) 100,00 %
04.05.2016 22:16 6,9 C 95 % 1026,8 hPa 0,0 l/m 2,5 km/h (1 Bft) W 261 0 min 0,000 mm 0,0 UV-I 0 W/m 6,2 C 6,9 C 3,2 km/h (1 Bft) 100,00 %
04.05.2016 22:17 6,9 C 95 % 1026,7 hPa 0,0 l/m 1,4 km/h (1 Bft) W 261 0 min 0,000 mm 0,0 UV-I 0 W/m 6,2 C 6,9 C 3,2 km/h (1 Bft) 95,83 %
04.05.2016 22:18 6,9 C 95 % 1026,7 hPa 0,0 l/m 2,1 km/h (1 Bft) W 261 0 min 0,000 mm 0,0 UV-I 0 W/m 6,2 C 6,9 C 3,2 km/h (1 Bft) 100,00 %
04.05.2016 22:19 6,9 C 95 % 1026,8 hPa 0,0 l/m 2,5 km/h (1 Bft) W 261 0 min 0,000 mm 0,0 UV-I 0 W/m 6,2 C 6,9 C 3,2 km/h (1 Bft) 100,00 %
04.05.2016 22:20 6,9 C 95 % 1026,7 hPa 0,0 l/m 2,2 km/h (1 Bft) W 261 0 min 0,000 mm 0,0 UV-I 0 W/m 6,2 C 6,9 C 3,2 km/h (1 Bft) 100,00 %
04.05.2016 22:21 6,9 C 95 % 1026,7 hPa 0,0 l/m 0,8 km/h (0 Bft) W 261 0 min 0,000 mm 0,0 UV-I 0 W/m 6,2 C 6,9 C 1,6 km/h (1 Bft) 100,00 %
04.05.2016 22:22 6,9 C 95 % 1026,8 hPa 0,0 l/m 0,9 km/h (0 Bft) W 261 0 min 0,000 mm 0,0 UV-I 0 W/m 6,2 C 6,9 C 3,2 km/h (1 Bft) 100,00 %
04.05.2016 22:23 6,9 C 95 % 1026,8 hPa 0,0 l/m 2,1 km/h (1 Bft) W 261 0 min 0,000 mm 0,0 UV-I 0 W/m 6,2 C 6,9 C 3,2 km/h (1 Bft) 100,00 %
04.05.2016 22:24 6,9 C 95 % 1026,7 hPa 0,0 l/m 1,3 km/h (1 Bft) W 261 0 min 0,000 mm 0,0 UV-I 0 W/m 6,2 C 6,9 C 3,2 km/h (1 Bft) 100,00 %
04.05.2016 22:25 6,9 C 95 % 1026,8 hPa 0,0 l/m 1,1 km/h (1 Bft) W 261 0 min 0,000 mm 0,0 UV-I 0 W/m 6,2 C 6,9 C 3,2 km/h (1 Bft) 100,00 %
04.05.2016 22:26 6,9 C 95 % 1026,8 hPa 0,0 l/m 2,8 km/h (1 Bft) W 261 0 min 0,000 mm 0,0 UV-I 0 W/m 6,2 C 6,9 C 3,2 km/h (1 Bft) 100,00 %
04.05.2016 22:27 6,9 C 95 % 1026,8 hPa 0,0 l/m 1,3 km/h (1 Bft) W 261 0 min 0,000 mm 0,0 UV-I 0 W/m 6,2 C 6,9 C 3,2 km/h (1 Bft) 100,00 %
04.05.2016 22:28 6,9 C 95 % 1026,8 hPa 0,0 l/m 2,5 km/h (1 Bft) W 261 0 min 0,000 mm 0,0 UV-I 0 W/m 6,2 C 6,9 C 3,2 km/h (1 Bft) 100,00 %
04.05.2016 22:29 6,9 C 95 % 1026,8 hPa 0,0 l/m 2,4 km/h (1 Bft) W 261 0 min 0,000 mm 0,0 UV-I 0 W/m 6,2 C 6,9 C 4,8 km/h (1 Bft) 100,00 %
04.05.2016 22:30 6,9 C 95 % 1026,8 hPa 0,0 l/m 1,6 km/h (1 Bft) W 261 0 min 0,000 mm 0,0 UV-I 0 W/m 6,2 C 6,9 C 3,2 km/h (1 Bft) 100,00 %
04.05.2016 22:31 6,9 C 95 % 1026,8 hPa 0,0 l/m 1,5 km/h (1 Bft) W 261 0 min 0,000 mm 0,0 UV-I 0 W/m 6,2 C 6,9 C 1,6 km/h (1 Bft) 100,00 %
04.05.2016 22:32 6,9 C 95 % 1026,8 hPa 0,0 l/m 0,6 km/h (0 Bft) W 261 0 min 0,000 mm 0,0 UV-I 0 W/m 6,2 C 6,9 C 1,6 km/h (1 Bft) 95,83 %
04.05.2016 22:33 6,9 C 95 % 1026,8 hPa 0,0 l/m 0,0 km/h (0 Bft) W 261 0 min 0,000 mm 0,0 UV-I 0 W/m 6,2 C 6,9 C 0,0 km/h (0 Bft) 100,00 %
04.05.2016 22:34 6,9 C 95 % 1026,8 hPa 0,0 l/m 0,2 km/h (0 Bft) W 261 0 min 0,000 mm 0,0 UV-I 0 W/m 6,2 C 6,9 C 1,6 km/h (1 Bft) 100,00 %
04.05.2016 22:35 6,9 C 95 % 1026,8 hPa 0,0 l/m 0,5 km/h (0 Bft) W 261 0 min 0,000 mm 0,0 UV-I 0 W/m 6,2 C 6,9 C 1,6 km/h (1 Bft) 100,00 %
04.05.2016 22:36 6,9 C 95 % 1026,9 hPa 0,0 l/m 2,0 km/h (1 Bft) W 261 0 min 0,000 mm 0,0 UV-I 0 W/m 6,2 C 6,9 C 3,2 km/h (1 Bft) 100,00 %
04.05.2016 22:37 6,9 C 95 % 1026,9 hPa 0,0 l/m 0,2 km/h (0 Bft) W 261 0 min 0,000 mm 0,0 UV-I 0 W/m 6,2 C 6,9 C 1,6 km/h (1 Bft) 100,00 %
04.05.2016 22:38 6,9 C 95 % 1026,9 hPa 0,0 l/m 1,7 km/h (1 Bft) W 261 0 min 0,000 mm 0,0 UV-I 0 W/m 6,2 C 6,9 C 3,2 km/h (1 Bft) 100,00 %
04.05.2016 22:39 6,9 C 95 % 1026,9 hPa 0,0 l/m 0,6 km/h (0 Bft) W 261 0 min 0,000 mm 0,0 UV-I 0 W/m 6,2 C 6,9 C 1,6 km/h (1 Bft) 100,00 %
04.05.2016 22:40 6,9 C 95 % 1026,9 hPa 0,0 l/m 0,6 km/h (0 Bft) W 261 0 min 0,000 mm 0,0 UV-I 0 W/m 6,2 C 6,9 C 1,6 km/h (1 Bft) 100,00 %
04.05.2016 22:41 6,9 C 95 % 1026,9 hPa 0,0 l/m 0,5 km/h (0 Bft) W 261 0 min 0,000 mm 0,0 UV-I 0 W/m 6,2 C 6,9 C 1,6 km/h (1 Bft) 100,00 %
04.05.2016 22:42 6,9 C 95 % 1026,9 hPa 0,0 l/m 0,5 km/h (0 Bft) W 261 0 min 0,000 mm 0,0 UV-I 0 W/m 6,2 C 6,9 C 1,6 km/h (1 Bft) 100,00 %
04.05.2016 22:43 6,9 C 95 % 1026,9 hPa 0,0 l/m 0,8 km/h (0 Bft) W 261 0 min 0,000 mm 0,0 UV-I 0 W/m 6,2 C 6,9 C 1,6 km/h (1 Bft) 100,00 %
04.05.2016 22:44 6,9 C 95 % 1026,9 hPa 0,0 l/m 0,5 km/h (0 Bft) W 261 0 min 0,000 mm 0,0 UV-I 0 W/m 6,2 C 6,9 C 1,6 km/h (1 Bft) 95,65 %
04.05.2016 22:45 6,9 C 95 % 1026,9 hPa 0,0 l/m 0,0 km/h (0 Bft) W 261 0 min 0,000 mm 0,0 UV-I 0 W/m 6,2 C 6,9 C 0,0 km/h (0 Bft) 100,00 %
04.05.2016 22:46 6,9 C 95 % 1026,9 hPa 0,0 l/m 0,0 km/h (0 Bft) W 261 0 min 0,000 mm 0,0 UV-I 0 W/m 6,2 C 6,9 C 0,0 km/h (0 Bft) 100,00 %
04.05.2016 22:47 6,8 C 95 % 1026,9 hPa 0,0 l/m 0,9 km/h (0 Bft) W 260 0 min 0,000 mm 0,0 UV-I 0 W/m 6,1 C 6,8 C 1,6 km/h (1 Bft) 100,00 %
04.05.2016 22:48 6,9 C 95 % 1026,9 hPa 0,0 l/m 1,1 km/h (1 Bft) W 260 0 min 0,000 mm 0,0 UV-I 0 W/m 6,2 C 6,9 C 3,2 km/h (1 Bft) 100,00 %
04.05.2016 22:49 6,9 C 95 % 1026,9 hPa 0,0 l/m 1,3 km/h (1 Bft) W 260 0 min 0,000 mm 0,0 UV-I 0 W/m 6,2 C 6,9 C 3,2 km/h (1 Bft) 91,67 %
04.05.2016 22:50 6,9 C 95 % 1026,9 hPa 0,0 l/m 0,2 km/h (0 Bft) W 260 0 min 0,000 mm 0,0 UV-I 0 W/m 6,2 C 6,9 C 1,6 km/h (1 Bft) 96,15 %
04.05.2016 22:51 6,9 C 95 % 1026,9 hPa 0,2 l/m 2,0 km/h (1 Bft) W 260 0 min 0,000 mm 0,0 UV-I 0 W/m 6,2 C 6,9 C 3,2 km/h (1 Bft) 100,00 %
04.05.2016 22:52 6,8 C 95 % 1026,9 hPa 0,0 l/m 1,0 km/h (0 Bft) W 260 0 min 0,000 mm 0,0 UV-I 0 W/m 6,1 C 6,8 C 3,2 km/h (1 Bft) 96,55 %
04.05.2016 22:53 6,9 C 95 % 1026,9 hPa 0,0 l/m 1,0 km/h (0 Bft) W 260 0 min 0,000 mm 0,0 UV-I 0 W/m 6,2 C 6,9 C 3,2 km/h (1 Bft) 98,62 %
04.05.2016 22:54 6,9 C 95 % 1026,9 hPa 0,0 l/m 0,2 km/h (0 Bft) W 260 0 min 0,000 mm 0,0 UV-I 0 W/m 6,2 C 6,9 C 1,6 km/h (1 Bft) 100,00 %
04.05.2016 22:55 6,9 C 95 % 1026,9 hPa 0,0 l/m 0,0 km/h (0 Bft) W 260 0 min 0,000 mm 0,0 UV-I 0 W/m 6,2 C 6,9 C 0,0 km/h (0 Bft) 100,00 %
04.05.2016 22:56 6,8 C 95 % 1027,0 hPa 0,0 l/m 0,0 km/h (0 Bft) W 260 0 min 0,000 mm 0,0 UV-I 0 W/m 6,1 C 6,8 C 0,0 km/h (0 Bft) 100,00 %
04.05.2016 22:57 6,8 C 95 % 1026,9 hPa 0,0 l/m 0,1 km/h (0 Bft) W 260 0 min 0,000 mm 0,0 UV-I 0 W/m 6,1 C 6,8 C 1,6 km/h (1 Bft) 100,00 %
04.05.2016 22:58 6,8 C 95 % 1026,9 hPa 0,0 l/m 1,1 km/h (1 Bft) W 260 0 min 0,000 mm 0,0 UV-I 0 W/m 6,1 C 6,8 C 3,2 km/h (1 Bft) 100,00 %
04.05.2016 22:59 6,8 C 95 % 1026,9 hPa 0,0 l/m 0,8 km/h (0 Bft) W 260 0 min 0,000 mm 0,0 UV-I 0 W/m 6,1 C 6,8 C 1,6 km/h (1 Bft) 100,00 %
04.05.2016 23:00 6,8 C 95 % 1026,9 hPa 0,0 l/m 0,3 km/h (0 Bft) W 260 0 min 0,000 mm 0,0 UV-I 0 W/m 6,1 C 6,8 C 1,6 km/h (1 Bft) 91,30 %
04.05.2016 23:01 6,8 C 95 % 1027,0 hPa 0,0 l/m 1,2 km/h (1 Bft) W 260 0 min 0,000 mm 0,0 UV-I 0 W/m 6,1 C 6,8 C 1,6 km/h (1 Bft) 100,00 %
04.05.2016 23:02 6,8 C 95 % 1026,9 hPa 0,0 l/m 0,5 km/h (0 Bft) W 260 0 min 0,000 mm 0,0 UV-I 0 W/m 6,1 C 6,8 C 1,6 km/h (1 Bft) 100,00 %
04.05.2016 23:03 6,8 C 95 % 1026,9 hPa 0,0 l/m 0,6 km/h (0 Bft) W 260 0 min 0,000 mm 0,0 UV-I 0 W/m 6,1 C 6,8 C 1,6 km/h (1 Bft) 92,86 %
04.05.2016 23:04 6,8 C 95 % 1026,9 hPa 0,0 l/m 0,0 km/h (0 Bft) W 260 0 min 0,000 mm 0,0 UV-I 0 W/m 6,1 C 6,8 C 0,0 km/h (0 Bft) 100,00 %
04.05.2016 23:05 6,8 C 95 % 1026,9 hPa 0,0 l/m 0,0 km/h (0 Bft) W 260 0 min 0,000 mm 0,0 UV-I 0 W/m 6,1 C 6,8 C 0,0 km/h (0 Bft) 95,65 %
04.05.2016 23:06 6,8 C 95 % 1026,9 hPa 0,0 l/m 0,0 km/h (0 Bft) W 260 0 min 0,000 mm 0,0 UV-I 0 W/m 6,1 C 6,8 C 0,0 km/h (0 Bft) 100,00 %
04.05.2016 23:07 6,8 C 95 % 1027,0 hPa 0,0 l/m 1,0 km/h (0 Bft) W 260 0 min 0,000 mm 0,0 UV-I 0 W/m 6,1 C 6,8 C 3,2 km/h (1 Bft) 95,65 %
04.05.2016 23:08 6,8 C 95 % 1026,9 hPa 0,0 l/m 1,0 km/h (0 Bft) W 260 0 min 0,000 mm 0,0 UV-I 0 W/m 6,1 C 6,8 C 1,6 km/h (1 Bft) 100,00 %
04.05.2016 23:09 6,8 C 95 % 1026,9 hPa 0,0 l/m 0,1 km/h (0 Bft) W 260 0 min 0,000 mm 0,0 UV-I 0 W/m 6,1 C 6,8 C 1,6 km/h (1 Bft) 96,15 %
04.05.2016 23:10 6,8 C 95 % 1026,9 hPa 0,0 l/m 0,0 km/h (0 Bft) W 260 0 min 0,000 mm 0,0 UV-I 0 W/m 6,1 C 6,8 C 0,0 km/h (0 Bft) 96,67 %
04.05.2016 23:11 6,8 C 96 % 1026,9 hPa 0,0 l/m 0,0 km/h (0 Bft) W 260 0 min 0,000 mm 0,0 UV-I 0 W/m 6,2 C 6,8 C 0,0 km/h (0 Bft) 100,00 %
04.05.2016 23:12 6,8 C 95 % 1027,0 hPa 0,0 l/m 0,1 km/h (0 Bft) W 260 0 min 0,000 mm 0,0 UV-I 0 W/m 6,1 C 6,8 C 1,6 km/h (1 Bft) 95,83 %
04.05.2016 23:13 6,8 C 96 % 1027,0 hPa 0,0 l/m 0,1 km/h (0 Bft) W 260 0 min 0,000 mm 0,0 UV-I 0 W/m 6,2 C 6,8 C 1,6 km/h (1 Bft) 100,00 %
04.05.2016 23:14 6,8 C 96 % 1027,0 hPa 0,0 l/m 0,1 km/h (0 Bft) W 260 0 min 0,000 mm 0,0 UV-I 0 W/m 6,2 C 6,8 C 1,6 km/h (1 Bft) 95,83 %
04.05.2016 23:15 6,8 C 96 % 1026,9 hPa 0,0 l/m 0,0 km/h (0 Bft) W 260 0 min 0,000 mm 0,0 UV-I 0 W/m 6,2 C 6,8 C 0,0 km/h (0 Bft) 100,00 %
04.05.2016 23:16 6,8 C 96 % 1027,0 hPa 0,0 l/m 0,0 km/h (0 Bft) W 260 0 min 0,000 mm 0,0 UV-I 0 W/m 6,2 C 6,8 C 0,0 km/h (0 Bft) 96,67 %
04.05.2016 23:17 6,8 C 96 % 1026,9 hPa 0,0 l/m 0,0 km/h (0 Bft) W 260 0 min 0,000 mm 0,0 UV-I 0 W/m 6,2 C 6,8 C 0,0 km/h (0 Bft) 95,65 %
04.05.2016 23:18 6,8 C 96 % 1027,0 hPa 0,0 l/m 0,0 km/h (0 Bft) W 260 0 min 0,000 mm 0,0 UV-I 0 W/m 6,2 C 6,8 C 0,0 km/h (0 Bft) 96,30 %
04.05.2016 23:19 6,8 C 96 % 1027,0 hPa 0,0 l/m 0,0 km/h (0 Bft) W 260 0 min 0,000 mm 0,0 UV-I 0 W/m 6,2 C 6,8 C 0,0 km/h (0 Bft) 95,65 %
04.05.2016 23:20 6,8 C 96 % 1027,0 hPa 0,0 l/m 0,0 km/h (0 Bft) W 260 0 min 0,000 mm 0,0 UV-I 0 W/m 6,2 C 6,8 C 0,0 km/h (0 Bft) 100,00 %
04.05.2016 23:21 6,8 C 96 % 1027,0 hPa 0,0 l/m 0,0 km/h (0 Bft) W 260 0 min 0,000 mm 0,0 UV-I 0 W/m 6,2 C 6,8 C 0,0 km/h (0 Bft) 83,33 %
04.05.2016 23:22 6,8 C 96 % 1027,0 hPa 0,0 l/m 0,0 km/h (0 Bft) W 260 0 min 0,000 mm 0,0 UV-I 0 W/m 6,2 C 6,8 C 0,0 km/h (0 Bft) 100,00 %
04.05.2016 23:23 6,8 C 96 % 1027,0 hPa 0,0 l/m 0,0 km/h (0 Bft) W 260 0 min 0,000 mm 0,0 UV-I 0 W/m 6,2 C 6,8 C 0,0 km/h (0 Bft) 92,59 %
04.05.2016 23:24 6,8 C 96 % 1027,0 hPa 0,0 l/m 0,0 km/h (0 Bft) W 260 0 min 0,000 mm 0,0 UV-I 0 W/m 6,2 C 6,8 C 0,0 km/h (0 Bft) 95,65 %
04.05.2016 23:25 6,8 C 96 % 1027,0 hPa 0,0 l/m 0,0 km/h (0 Bft) W 260 0 min 0,000 mm 0,0 UV-I 0 W/m 6,2 C 6,8 C 0,0 km/h (0 Bft) 95,83 %
04.05.2016 23:26 6,8 C 96 % 1027,0 hPa 0,0 l/m 0,2 km/h (0 Bft) W 260 0 min 0,000 mm 0,0 UV-I 0 W/m 6,2 C 6,8 C 1,6 km/h (1 Bft) 96,15 %
04.05.2016 23:27 6,8 C 96 % 1027,0 hPa 0,0 l/m 0,0 km/h (0 Bft) W 260 0 min 0,000 mm 0,0 UV-I 0 W/m 6,2 C 6,8 C 0,0 km/h (0 Bft) 100,00 %
04.05.2016 23:28 6,8 C 96 % 1027,0 hPa 0,0 l/m 0,0 km/h (0 Bft) W 260 0 min 0,000 mm 0,0 UV-I 0 W/m 6,2 C 6,8 C 0,0 km/h (0 Bft) 95,65 %
04.05.2016 23:29 6,8 C 96 % 1027,1 hPa 0,0 l/m 0,0 km/h (0 Bft) W 260 0 min 0,000 mm 0,0 UV-I 0 W/m 6,2 C 6,8 C 0,0 km/h (0 Bft) 100,00 %
04.05.2016 23:30 6,8 C 96 % 1027,1 hPa 0,0 l/m 0,0 km/h (0 Bft) W 260 0 min 0,000 mm 0,0 UV-I 0 W/m 6,2 C 6,8 C 0,0 km/h (0 Bft) 91,30 %
04.05.2016 23:31 6,8 C 96 % 1027,0 hPa 0,0 l/m 0,0 km/h (0 Bft) W 260 0 min 0,000 mm 0,0 UV-I 0 W/m 6,2 C 6,8 C 0,0 km/h (0 Bft) 100,00 %
04.05.2016 23:32 6,8 C 96 % 1027,0 hPa 0,0 l/m 0,0 km/h (0 Bft) W 260 0 min 0,000 mm 0,0 UV-I 0 W/m 6,2 C 6,8 C 0,0 km/h (0 Bft) 95,65 %
04.05.2016 23:33 6,8 C 96 % 1027,1 hPa 0,0 l/m 0,7 km/h (0 Bft) W 260 0 min 0,000 mm 0,0 UV-I 0 W/m 6,2 C 6,8 C 1,6 km/h (1 Bft) 100,00 %
04.05.2016 23:34 6,8 C 95 % 1027,1 hPa 0,0 l/m 0,9 km/h (0 Bft) W 260 0 min 0,000 mm 0,0 UV-I 0 W/m 6,1 C 6,8 C 1,6 km/h (1 Bft) 95,65 %
04.05.2016 23:35 6,8 C 95 % 1027,1 hPa 0,0 l/m 0,5 km/h (0 Bft) W 260 0 min 0,000 mm 0,0 UV-I 0 W/m 6,1 C 6,8 C 1,6 km/h (1 Bft) 100,00 %
04.05.2016 23:36 6,8 C 95 % 1027,1 hPa 0,0 l/m 0,6 km/h (0 Bft) W 260 0 min 0,000 mm 0,0 UV-I 0 W/m 6,1 C 6,8 C 1,6 km/h (1 Bft) 96,15 %
04.05.2016 23:37 6,8 C 95 % 1027,0 hPa 0,0 l/m 0,2 km/h (0 Bft) W 260 0 min 0,000 mm 0,0 UV-I 0 W/m 6,1 C 6,8 C 1,6 km/h (1 Bft) 96,30 %
04.05.2016 23:38 6,8 C 95 % 1027,1 hPa 0,0 l/m 0,5 km/h (0 Bft) W 260 0 min 0,000 mm 0,0 UV-I 0 W/m 6,1 C 6,8 C 1,6 km/h (1 Bft) 100,00 %
04.05.2016 23:39 6,8 C 95 % 1027,0 hPa 0,0 l/m 2,0 km/h (1 Bft) W 260 0 min 0,000 mm 0,0 UV-I 0 W/m 6,1 C 6,8 C 3,2 km/h (1 Bft) 100,00 %
04.05.2016 23:40 6,9 C 95 % 1027,0 hPa 0,0 l/m 1,5 km/h (1 Bft) W 260 0 min 0,000 mm 0,0 UV-I 0 W/m 6,2 C 6,9 C 3,2 km/h (1 Bft) 100,00 %
04.05.2016 23:41 6,8 C 95 % 1027,0 hPa 0,0 l/m 1,4 km/h (1 Bft) W 260 0 min 0,000 mm 0,0 UV-I 0 W/m 6,1 C 6,8 C 1,6 km/h (1 Bft) 100,00 %
04.05.2016 23:42 6,8 C 95 % 1027,0 hPa 0,0 l/m 1,1 km/h (1 Bft) W 260 0 min 0,000 mm 0,0 UV-I 0 W/m 6,1 C 6,8 C 1,6 km/h (1 Bft) 100,00 %
04.05.2016 23:43 6,8 C 95 % 1027,0 hPa 0,0 l/m 0,5 km/h (0 Bft) W 260 0 min 0,000 mm 0,0 UV-I 0 W/m 6,1 C 6,8 C 1,6 km/h (1 Bft) 100,00 %
04.05.2016 23:44 6,9 C 95 % 1027,0 hPa 0,0 l/m 0,9 km/h (0 Bft) W 260 0 min 0,000 mm 0,0 UV-I 0 W/m 6,2 C 6,9 C 1,6 km/h (1 Bft) 96,30 %
04.05.2016 23:45 6,8 C 95 % 1027,0 hPa 0,0 l/m 0,6 km/h (0 Bft) W 260 0 min 0,000 mm 0,0 UV-I 0 W/m 6,1 C 6,8 C 1,6 km/h (1 Bft) 100,00 %
04.05.2016 23:46 6,8 C 95 % 1027,0 hPa 0,0 l/m 1,1 km/h (1 Bft) W 260 0 min 0,000 mm 0,0 UV-I 0 W/m 6,1 C 6,8 C 3,2 km/h (1 Bft) 96,30 %
04.05.2016 23:47 6,8 C 95 % 1026,9 hPa 0,0 l/m 0,3 km/h (0 Bft) W 260 0 min 0,000 mm 0,0 UV-I 0 W/m 6,1 C 6,8 C 1,6 km/h (1 Bft) 100,00 %
04.05.2016 23:48 6,8 C 95 % 1026,9 hPa 0,0 l/m 0,5 km/h (0 Bft) W 260 0 min 0,000 mm 0,0 UV-I 0 W/m 6,1 C 6,8 C 1,6 km/h (1 Bft) 100,00 %
04.05.2016 23:49 6,8 C 96 % 1027,0 hPa 0,0 l/m 0,1 km/h (0 Bft) W 260 0 min 0,000 mm 0,0 UV-I 0 W/m 6,2 C 6,8 C 1,6 km/h (1 Bft) 100,00 %
04.05.2016 23:50 6,8 C 96 % 1027,0 hPa 0,0 l/m 0,0 km/h (0 Bft) W 260 0 min 0,000 mm 0,0 UV-I 0 W/m 6,2 C 6,8 C 0,0 km/h (0 Bft) 100,00 %
04.05.2016 23:51 6,9 C 96 % 1027,0 hPa 0,0 l/m 0,7 km/h (0 Bft) W 260 0 min 0,000 mm 0,0 UV-I 0 W/m 6,3 C 6,9 C 1,6 km/h (1 Bft) 100,00 %
04.05.2016 23:52 6,8 C 96 % 1027,0 hPa 0,0 l/m 0,6 km/h (0 Bft) W 260 0 min 0,000 mm 0,0 UV-I 0 W/m 6,2 C 6,8 C 1,6 km/h (1 Bft) 100,00 %
04.05.2016 23:53 6,8 C 96 % 1027,0 hPa 0,0 l/m 0,0 km/h (0 Bft) W 260 0 min 0,000 mm 0,0 UV-I 0 W/m 6,2 C 6,8 C 0,0 km/h (0 Bft) 100,00 %
04.05.2016 23:54 6,8 C 96 % 1027,0 hPa 0,0 l/m 0,0 km/h (0 Bft) W 260 0 min 0,000 mm 0,0 UV-I 0 W/m 6,2 C 6,8 C 0,0 km/h (0 Bft) 100,00 %
04.05.2016 23:55 6,8 C 96 % 1027,0 hPa 0,0 l/m 0,0 km/h (0 Bft) W 260 0 min 0,000 mm 0,0 UV-I 0 W/m 6,2 C 6,8 C 0,0 km/h (0 Bft) 100,00 %
04.05.2016 23:56 6,8 C 96 % 1027,0 hPa 0,0 l/m 0,0 km/h (0 Bft) W 260 0 min 0,000 mm 0,0 UV-I 0 W/m 6,2 C 6,8 C 0,0 km/h (0 Bft) 100,00 %
04.05.2016 23:57 6,8 C 96 % 1027,0 hPa 0,0 l/m 0,0 km/h (0 Bft) W 260 0 min 0,000 mm 0,0 UV-I 0 W/m 6,2 C 6,8 C 0,0 km/h (0 Bft) 95,65 %
04.05.2016 23:58 6,8 C 96 % 1027,0 hPa 0,0 l/m 0,0 km/h (0 Bft) W 260 0 min 0,000 mm 0,0 UV-I 0 W/m 6,2 C 6,8 C 0,0 km/h (0 Bft) 100,00 %
04.05.2016 23:59 6,9 C 96 % 1027,0 hPa 0,0 l/m 0,0 km/h (0 Bft) W 260 0 min 0,000 mm 0,0 UV-I 0 W/m 6,3 C 6,9 C 0,0 km/h (0 Bft) 100,00 %
_ Min-Zeit 07:52 01:17 00:00 - 22:33 - - - - - - 07:33 07:17 22:33 19:21
Minimum _ 6,8 C 83 % 1018,1 hPa - 0,0 km/h (0 Bft) - - - - - - 5,8 C -1,8 C 0,0 km/h (0 Bft) 83,33 %
_ Max-Zeit 00:00 21:48 23:29 02:28 00:58 - - 00:00 15:00 14:14 14:15 00:10 02:03 00:58 00:03
Maximum _ 10,1 C 96 % 1027,1 hPa 0,2 l/m 27,3 km/h
W-SW (4 Bft)
- - 0 min 0,101 mm 1,8 UV-I 308 W/m 7,9 C 9,1 C 40,2 km/h
W-SW (6 Bft)
100,00 %
Durchschnitt _ 8,1 C 91 % 1023,4 hPa #12,6 l/m 9,9 km/h (2 Bft) W-SW - #0 min. #0,787 mm 0,8 UV-I 87 W/m 6,7 C 5,3 C 14,3 km/h (3 Bft) 98,60 %